<?xml version="1.0" encoding="UTF-8" standalone="no" ?>
<gpx xmlns="http://www.topografix.com/GPX/1/1" xmlns:xsi="http://www.w3.org/2001/XMLSchema-instance" xsi:schemaLocation="http://www.topografix.com/GPX/1/1 http://www.topografix.com/GPX/1/1/gpx.xsd" version="1.1" creator="VisuGPX - https://www.visugpx.com">
  <metadata>
    <name>Dent du pra</name>
    <desc><![CDATA[

]]></desc>
  </metadata>
  <trk>
    <name><![CDATA[Dent du pra]]></name>
    <extensions>
      <line xmlns="http://www.topografix.com/GPX/gpx_style/0/2">
        <color>0000FF</color>
        <width>4</width>
      </line>
    </extensions>
    <trkseg>
      <trkpt lat="45.22496" lon="5.99831">
        <ele>1348.4449462891</ele>
        <time>2017-03-25T06:48:17Z</time>
      </trkpt>
      <trkpt lat="45.22493" lon="5.99825">
        <ele>1347.4449462891</ele>
        <time>2017-03-25T06:48:21Z</time>
      </trkpt>
      <trkpt lat="45.22491" lon="5.99818">
        <ele>1344.4449462891</ele>
        <time>2017-03-25T06:49:13Z</time>
      </trkpt>
      <trkpt lat="45.22488" lon="5.99813">
        <ele>1348.4449462891</ele>
        <time>2017-03-25T06:49:23Z</time>
      </trkpt>
      <trkpt lat="45.22484" lon="5.99816">
        <ele>1345.4449462891</ele>
        <time>2017-03-25T06:49:34Z</time>
      </trkpt>
      <trkpt lat="45.22481" lon="5.99821">
        <ele>1346.4449462891</ele>
        <time>2017-03-25T06:49:38Z</time>
      </trkpt>
      <trkpt lat="45.22477" lon="5.99823">
        <ele>1348.4449462891</ele>
        <time>2017-03-25T06:49:42Z</time>
      </trkpt>
      <trkpt lat="45.22474" lon="5.99829">
        <ele>1346.4449462891</ele>
        <time>2017-03-25T06:49:52Z</time>
      </trkpt>
      <trkpt lat="45.22469" lon="5.99832">
        <ele>1345.4449462891</ele>
        <time>2017-03-25T06:49:58Z</time>
      </trkpt>
      <trkpt lat="45.22463" lon="5.99835">
        <ele>1346.4449462891</ele>
        <time>2017-03-25T06:50:02Z</time>
      </trkpt>
      <trkpt lat="45.22458" lon="5.9984">
        <ele>1345.4449462891</ele>
        <time>2017-03-25T06:50:04Z</time>
      </trkpt>
      <trkpt lat="45.22454" lon="5.99844">
        <ele>1345.4449462891</ele>
        <time>2017-03-25T06:50:08Z</time>
      </trkpt>
      <trkpt lat="45.22451" lon="5.99849">
        <ele>1346.4449462891</ele>
        <time>2017-03-25T06:50:12Z</time>
      </trkpt>
      <trkpt lat="45.22448" lon="5.99854">
        <ele>1343.4449462891</ele>
        <time>2017-03-25T06:50:17Z</time>
      </trkpt>
      <trkpt lat="45.22448" lon="5.9986">
        <ele>1340.4449462891</ele>
        <time>2017-03-25T06:50:23Z</time>
      </trkpt>
      <trkpt lat="45.22448" lon="5.99868">
        <ele>1342.4449462891</ele>
        <time>2017-03-25T06:50:27Z</time>
      </trkpt>
      <trkpt lat="45.22448" lon="5.99874">
        <ele>1343.4449462891</ele>
        <time>2017-03-25T06:50:31Z</time>
      </trkpt>
      <trkpt lat="45.22451" lon="5.99882">
        <ele>1343.4449462891</ele>
        <time>2017-03-25T06:50:37Z</time>
      </trkpt>
      <trkpt lat="45.22451" lon="5.9989">
        <ele>1346.4449462891</ele>
        <time>2017-03-25T06:50:44Z</time>
      </trkpt>
      <trkpt lat="45.22449" lon="5.99897">
        <ele>1349.4449462891</ele>
        <time>2017-03-25T06:50:49Z</time>
      </trkpt>
      <trkpt lat="45.22453" lon="5.99902">
        <ele>1351.4449462891</ele>
        <time>2017-03-25T06:50:54Z</time>
      </trkpt>
      <trkpt lat="45.22453" lon="5.99909">
        <ele>1352.4449462891</ele>
        <time>2017-03-25T06:51:00Z</time>
      </trkpt>
      <trkpt lat="45.22455" lon="5.99914">
        <ele>1354.4449462891</ele>
        <time>2017-03-25T06:51:04Z</time>
      </trkpt>
      <trkpt lat="45.22458" lon="5.99921">
        <ele>1358.4449462891</ele>
        <time>2017-03-25T06:51:13Z</time>
      </trkpt>
      <trkpt lat="45.22457" lon="5.99927">
        <ele>1359.4449462891</ele>
        <time>2017-03-25T06:51:18Z</time>
      </trkpt>
      <trkpt lat="45.22456" lon="5.99936">
        <ele>1356.4449462891</ele>
        <time>2017-03-25T06:51:25Z</time>
      </trkpt>
      <trkpt lat="45.22457" lon="5.99943">
        <ele>1359.4449462891</ele>
        <time>2017-03-25T06:51:38Z</time>
      </trkpt>
      <trkpt lat="45.22458" lon="5.99952">
        <ele>1362.4449462891</ele>
        <time>2017-03-25T06:51:42Z</time>
      </trkpt>
      <trkpt lat="45.22455" lon="5.99958">
        <ele>1366.4449462891</ele>
        <time>2017-03-25T06:51:45Z</time>
      </trkpt>
      <trkpt lat="45.22454" lon="5.99965">
        <ele>1364.4449462891</ele>
        <time>2017-03-25T06:51:48Z</time>
      </trkpt>
      <trkpt lat="45.2245" lon="5.99969">
        <ele>1366.4449462891</ele>
        <time>2017-03-25T06:51:52Z</time>
      </trkpt>
      <trkpt lat="45.22449" lon="5.99977">
        <ele>1366.4449462891</ele>
        <time>2017-03-25T06:51:57Z</time>
      </trkpt>
      <trkpt lat="45.22448" lon="5.99984">
        <ele>1366.4449462891</ele>
        <time>2017-03-25T06:52:03Z</time>
      </trkpt>
      <trkpt lat="45.22446" lon="5.9999">
        <ele>1369.4449462891</ele>
        <time>2017-03-25T06:52:06Z</time>
      </trkpt>
      <trkpt lat="45.22442" lon="5.99993">
        <ele>1372.4449462891</ele>
        <time>2017-03-25T06:52:10Z</time>
      </trkpt>
      <trkpt lat="45.22439" lon="5.99999">
        <ele>1373.4449462891</ele>
        <time>2017-03-25T06:52:18Z</time>
      </trkpt>
      <trkpt lat="45.22438" lon="6.00007">
        <ele>1378.4449462891</ele>
        <time>2017-03-25T06:52:35Z</time>
      </trkpt>
      <trkpt lat="45.22435" lon="6.00012">
        <ele>1376.4449462891</ele>
        <time>2017-03-25T06:52:40Z</time>
      </trkpt>
      <trkpt lat="45.22435" lon="6.0002">
        <ele>1374.4449462891</ele>
        <time>2017-03-25T06:52:48Z</time>
      </trkpt>
      <trkpt lat="45.22433" lon="6.00027">
        <ele>1373.4449462891</ele>
        <time>2017-03-25T06:52:52Z</time>
      </trkpt>
      <trkpt lat="45.22431" lon="6.00035">
        <ele>1372.4449462891</ele>
        <time>2017-03-25T06:52:59Z</time>
      </trkpt>
      <trkpt lat="45.22429" lon="6.00041">
        <ele>1370.4449462891</ele>
        <time>2017-03-25T06:53:04Z</time>
      </trkpt>
      <trkpt lat="45.22427" lon="6.00047">
        <ele>1370.4449462891</ele>
        <time>2017-03-25T06:53:09Z</time>
      </trkpt>
      <trkpt lat="45.22426" lon="6.00053">
        <ele>1373.4449462891</ele>
        <time>2017-03-25T06:53:19Z</time>
      </trkpt>
      <trkpt lat="45.22425" lon="6.00059">
        <ele>1380.4449462891</ele>
        <time>2017-03-25T06:53:32Z</time>
      </trkpt>
      <trkpt lat="45.22421" lon="6.00067">
        <ele>1377.4449462891</ele>
        <time>2017-03-25T06:53:36Z</time>
      </trkpt>
      <trkpt lat="45.22419" lon="6.00074">
        <ele>1377.4449462891</ele>
        <time>2017-03-25T06:53:46Z</time>
      </trkpt>
      <trkpt lat="45.22416" lon="6.0008">
        <ele>1374.4449462891</ele>
        <time>2017-03-25T06:53:58Z</time>
      </trkpt>
      <trkpt lat="45.22414" lon="6.00087">
        <ele>1372.4449462891</ele>
        <time>2017-03-25T06:54:06Z</time>
      </trkpt>
      <trkpt lat="45.22411" lon="6.00093">
        <ele>1371.4449462891</ele>
        <time>2017-03-25T06:54:09Z</time>
      </trkpt>
      <trkpt lat="45.22408" lon="6.001">
        <ele>1370.4449462891</ele>
        <time>2017-03-25T06:54:12Z</time>
      </trkpt>
      <trkpt lat="45.22404" lon="6.00105">
        <ele>1376.4449462891</ele>
        <time>2017-03-25T06:54:19Z</time>
      </trkpt>
      <trkpt lat="45.22401" lon="6.0011">
        <ele>1380.4449462891</ele>
        <time>2017-03-25T06:54:26Z</time>
      </trkpt>
      <trkpt lat="45.22396" lon="6.00112">
        <ele>1383.4449462891</ele>
        <time>2017-03-25T06:54:36Z</time>
      </trkpt>
      <trkpt lat="45.22393" lon="6.00117">
        <ele>1382.4449462891</ele>
        <time>2017-03-25T06:54:39Z</time>
      </trkpt>
      <trkpt lat="45.22389" lon="6.00121">
        <ele>1380.4449462891</ele>
        <time>2017-03-25T06:54:42Z</time>
      </trkpt>
      <trkpt lat="45.22384" lon="6.00121">
        <ele>1382.4449462891</ele>
        <time>2017-03-25T06:54:47Z</time>
      </trkpt>
      <trkpt lat="45.22381" lon="6.00125">
        <ele>1367.4449462891</ele>
        <time>2017-03-25T06:54:54Z</time>
      </trkpt>
      <trkpt lat="45.22377" lon="6.0013">
        <ele>1380.4449462891</ele>
        <time>2017-03-25T06:55:01Z</time>
      </trkpt>
      <trkpt lat="45.22372" lon="6.00135">
        <ele>1386.4449462891</ele>
        <time>2017-03-25T06:55:05Z</time>
      </trkpt>
      <trkpt lat="45.22368" lon="6.0014">
        <ele>1388.4449462891</ele>
        <time>2017-03-25T06:55:10Z</time>
      </trkpt>
      <trkpt lat="45.22367" lon="6.0015">
        <ele>1385.4449462891</ele>
        <time>2017-03-25T06:55:15Z</time>
      </trkpt>
      <trkpt lat="45.22368" lon="6.00157">
        <ele>1392.4449462891</ele>
        <time>2017-03-25T06:55:22Z</time>
      </trkpt>
      <trkpt lat="45.22365" lon="6.00162">
        <ele>1392.4449462891</ele>
        <time>2017-03-25T06:55:26Z</time>
      </trkpt>
      <trkpt lat="45.22361" lon="6.00166">
        <ele>1394.4449462891</ele>
        <time>2017-03-25T06:55:29Z</time>
      </trkpt>
      <trkpt lat="45.22356" lon="6.0017">
        <ele>1397.4449462891</ele>
        <time>2017-03-25T06:55:32Z</time>
      </trkpt>
      <trkpt lat="45.22353" lon="6.00175">
        <ele>1398.4449462891</ele>
        <time>2017-03-25T06:55:35Z</time>
      </trkpt>
      <trkpt lat="45.22349" lon="6.00178">
        <ele>1400.4449462891</ele>
        <time>2017-03-25T06:55:40Z</time>
      </trkpt>
      <trkpt lat="45.22344" lon="6.0018">
        <ele>1401.4449462891</ele>
        <time>2017-03-25T06:55:45Z</time>
      </trkpt>
      <trkpt lat="45.2234" lon="6.00185">
        <ele>1400.4449462891</ele>
        <time>2017-03-25T06:55:50Z</time>
      </trkpt>
      <trkpt lat="45.22336" lon="6.00191">
        <ele>1399.4449462891</ele>
        <time>2017-03-25T06:55:55Z</time>
      </trkpt>
      <trkpt lat="45.22334" lon="6.00197">
        <ele>1398.4449462891</ele>
        <time>2017-03-25T06:56:09Z</time>
      </trkpt>
      <trkpt lat="45.2233" lon="6.002">
        <ele>1401.4449462891</ele>
        <time>2017-03-25T06:57:31Z</time>
      </trkpt>
      <trkpt lat="45.22325" lon="6.00203">
        <ele>1400.4449462891</ele>
        <time>2017-03-25T06:57:35Z</time>
      </trkpt>
      <trkpt lat="45.2232" lon="6.00204">
        <ele>1401.4449462891</ele>
        <time>2017-03-25T06:57:40Z</time>
      </trkpt>
      <trkpt lat="45.22315" lon="6.00203">
        <ele>1403.4449462891</ele>
        <time>2017-03-25T06:57:44Z</time>
      </trkpt>
      <trkpt lat="45.22311" lon="6.00204">
        <ele>1404.4449462891</ele>
        <time>2017-03-25T06:57:48Z</time>
      </trkpt>
      <trkpt lat="45.22305" lon="6.00206">
        <ele>1406.4449462891</ele>
        <time>2017-03-25T06:57:53Z</time>
      </trkpt>
      <trkpt lat="45.22303" lon="6.00214">
        <ele>1404.4449462891</ele>
        <time>2017-03-25T06:57:57Z</time>
      </trkpt>
      <trkpt lat="45.22303" lon="6.00221">
        <ele>1407.4449462891</ele>
        <time>2017-03-25T06:58:03Z</time>
      </trkpt>
      <trkpt lat="45.22302" lon="6.00229">
        <ele>1410.4449462891</ele>
        <time>2017-03-25T06:58:10Z</time>
      </trkpt>
      <trkpt lat="45.22302" lon="6.00235">
        <ele>1414.4449462891</ele>
        <time>2017-03-25T06:58:16Z</time>
      </trkpt>
      <trkpt lat="45.22302" lon="6.00242">
        <ele>1415.4449462891</ele>
        <time>2017-03-25T06:58:22Z</time>
      </trkpt>
      <trkpt lat="45.22303" lon="6.00248">
        <ele>1416.4449462891</ele>
        <time>2017-03-25T06:58:26Z</time>
      </trkpt>
      <trkpt lat="45.22307" lon="6.00252">
        <ele>1416.4449462891</ele>
        <time>2017-03-25T06:58:29Z</time>
      </trkpt>
      <trkpt lat="45.22307" lon="6.00258">
        <ele>1419.4449462891</ele>
        <time>2017-03-25T06:58:34Z</time>
      </trkpt>
      <trkpt lat="45.22309" lon="6.00264">
        <ele>1418.4449462891</ele>
        <time>2017-03-25T06:58:39Z</time>
      </trkpt>
      <trkpt lat="45.22311" lon="6.00271">
        <ele>1421.4449462891</ele>
        <time>2017-03-25T06:58:44Z</time>
      </trkpt>
      <trkpt lat="45.22311" lon="6.00278">
        <ele>1423.4449462891</ele>
        <time>2017-03-25T06:58:49Z</time>
      </trkpt>
      <trkpt lat="45.2231" lon="6.00285">
        <ele>1423.4449462891</ele>
        <time>2017-03-25T06:58:53Z</time>
      </trkpt>
      <trkpt lat="45.22308" lon="6.00291">
        <ele>1424.4449462891</ele>
        <time>2017-03-25T06:58:58Z</time>
      </trkpt>
      <trkpt lat="45.22306" lon="6.00296">
        <ele>1422.4449462891</ele>
        <time>2017-03-25T06:59:04Z</time>
      </trkpt>
      <trkpt lat="45.22303" lon="6.00303">
        <ele>1423.4449462891</ele>
        <time>2017-03-25T06:59:08Z</time>
      </trkpt>
      <trkpt lat="45.22302" lon="6.0031">
        <ele>1424.4449462891</ele>
        <time>2017-03-25T06:59:12Z</time>
      </trkpt>
      <trkpt lat="45.22302" lon="6.00317">
        <ele>1425.4449462891</ele>
        <time>2017-03-25T06:59:15Z</time>
      </trkpt>
      <trkpt lat="45.223" lon="6.00323">
        <ele>1422.4449462891</ele>
        <time>2017-03-25T06:59:20Z</time>
      </trkpt>
      <trkpt lat="45.22298" lon="6.00333">
        <ele>1419.4449462891</ele>
        <time>2017-03-25T06:59:31Z</time>
      </trkpt>
      <trkpt lat="45.22294" lon="6.00337">
        <ele>1421.4449462891</ele>
        <time>2017-03-25T06:59:35Z</time>
      </trkpt>
      <trkpt lat="45.22291" lon="6.00343">
        <ele>1428.4449462891</ele>
        <time>2017-03-25T06:59:42Z</time>
      </trkpt>
      <trkpt lat="45.22291" lon="6.00349">
        <ele>1431.4449462891</ele>
        <time>2017-03-25T06:59:49Z</time>
      </trkpt>
      <trkpt lat="45.22289" lon="6.00355">
        <ele>1433.4449462891</ele>
        <time>2017-03-25T06:59:56Z</time>
      </trkpt>
      <trkpt lat="45.22288" lon="6.00362">
        <ele>1439.4449462891</ele>
        <time>2017-03-25T07:00:03Z</time>
      </trkpt>
      <trkpt lat="45.22284" lon="6.00367">
        <ele>1440.4449462891</ele>
        <time>2017-03-25T07:00:11Z</time>
      </trkpt>
      <trkpt lat="45.22284" lon="6.00374">
        <ele>1443.4449462891</ele>
        <time>2017-03-25T07:00:15Z</time>
      </trkpt>
      <trkpt lat="45.22283" lon="6.00382">
        <ele>1445.4449462891</ele>
        <time>2017-03-25T07:00:20Z</time>
      </trkpt>
      <trkpt lat="45.22278" lon="6.00387">
        <ele>1447.4449462891</ele>
        <time>2017-03-25T07:00:25Z</time>
      </trkpt>
      <trkpt lat="45.22273" lon="6.0039">
        <ele>1447.4449462891</ele>
        <time>2017-03-25T07:00:31Z</time>
      </trkpt>
      <trkpt lat="45.2227" lon="6.00394">
        <ele>1446.4449462891</ele>
        <time>2017-03-25T07:00:36Z</time>
      </trkpt>
      <trkpt lat="45.22265" lon="6.00395">
        <ele>1449.4449462891</ele>
        <time>2017-03-25T07:00:44Z</time>
      </trkpt>
      <trkpt lat="45.22267" lon="6.00401">
        <ele>1455.4449462891</ele>
        <time>2017-03-25T07:00:52Z</time>
      </trkpt>
      <trkpt lat="45.22264" lon="6.00407">
        <ele>1455.4449462891</ele>
        <time>2017-03-25T07:00:58Z</time>
      </trkpt>
      <trkpt lat="45.22259" lon="6.00409">
        <ele>1457.4449462891</ele>
        <time>2017-03-25T07:01:04Z</time>
      </trkpt>
      <trkpt lat="45.22254" lon="6.00409">
        <ele>1457.4449462891</ele>
        <time>2017-03-25T07:01:10Z</time>
      </trkpt>
      <trkpt lat="45.2225" lon="6.00413">
        <ele>1457.4449462891</ele>
        <time>2017-03-25T07:01:16Z</time>
      </trkpt>
      <trkpt lat="45.22247" lon="6.00418">
        <ele>1457.4449462891</ele>
        <time>2017-03-25T07:01:19Z</time>
      </trkpt>
      <trkpt lat="45.22248" lon="6.00425">
        <ele>1459.4449462891</ele>
        <time>2017-03-25T07:01:30Z</time>
      </trkpt>
      <trkpt lat="45.22246" lon="6.00431">
        <ele>1461.4449462891</ele>
        <time>2017-03-25T07:01:36Z</time>
      </trkpt>
      <trkpt lat="45.22241" lon="6.00434">
        <ele>1463.4449462891</ele>
        <time>2017-03-25T07:01:46Z</time>
      </trkpt>
      <trkpt lat="45.22236" lon="6.00432">
        <ele>1463.4449462891</ele>
        <time>2017-03-25T07:01:52Z</time>
      </trkpt>
      <trkpt lat="45.22233" lon="6.00437">
        <ele>1462.4449462891</ele>
        <time>2017-03-25T07:01:57Z</time>
      </trkpt>
      <trkpt lat="45.22233" lon="6.00444">
        <ele>1463.4449462891</ele>
        <time>2017-03-25T07:02:05Z</time>
      </trkpt>
      <trkpt lat="45.22231" lon="6.0045">
        <ele>1465.4449462891</ele>
        <time>2017-03-25T07:02:13Z</time>
      </trkpt>
      <trkpt lat="45.22233" lon="6.00456">
        <ele>1464.4449462891</ele>
        <time>2017-03-25T07:02:17Z</time>
      </trkpt>
      <trkpt lat="45.22232" lon="6.00463">
        <ele>1464.4449462891</ele>
        <time>2017-03-25T07:02:22Z</time>
      </trkpt>
      <trkpt lat="45.22226" lon="6.00469">
        <ele>1466.4449462891</ele>
        <time>2017-03-25T07:02:30Z</time>
      </trkpt>
      <trkpt lat="45.22225" lon="6.00475">
        <ele>1469.4449462891</ele>
        <time>2017-03-25T07:02:35Z</time>
      </trkpt>
      <trkpt lat="45.22227" lon="6.00483">
        <ele>1472.4449462891</ele>
        <time>2017-03-25T07:02:40Z</time>
      </trkpt>
      <trkpt lat="45.22226" lon="6.00489">
        <ele>1478.4449462891</ele>
        <time>2017-03-25T07:02:48Z</time>
      </trkpt>
      <trkpt lat="45.22224" lon="6.00497">
        <ele>1482.4449462891</ele>
        <time>2017-03-25T07:02:58Z</time>
      </trkpt>
      <trkpt lat="45.22223" lon="6.00504">
        <ele>1486.4449462891</ele>
        <time>2017-03-25T07:03:07Z</time>
      </trkpt>
      <trkpt lat="45.22222" lon="6.0051">
        <ele>1486.4449462891</ele>
        <time>2017-03-25T07:03:13Z</time>
      </trkpt>
      <trkpt lat="45.22223" lon="6.00517">
        <ele>1489.4449462891</ele>
        <time>2017-03-25T07:03:19Z</time>
      </trkpt>
      <trkpt lat="45.22223" lon="6.00524">
        <ele>1492.4449462891</ele>
        <time>2017-03-25T07:03:25Z</time>
      </trkpt>
      <trkpt lat="45.22224" lon="6.00531">
        <ele>1490.4449462891</ele>
        <time>2017-03-25T07:03:30Z</time>
      </trkpt>
      <trkpt lat="45.22224" lon="6.00539">
        <ele>1488.4449462891</ele>
        <time>2017-03-25T07:03:33Z</time>
      </trkpt>
      <trkpt lat="45.22225" lon="6.00546">
        <ele>1490.4449462891</ele>
        <time>2017-03-25T07:03:39Z</time>
      </trkpt>
      <trkpt lat="45.22225" lon="6.00552">
        <ele>1495.4449462891</ele>
        <time>2017-03-25T07:03:47Z</time>
      </trkpt>
      <trkpt lat="45.22225" lon="6.0056">
        <ele>1496.4449462891</ele>
        <time>2017-03-25T07:03:55Z</time>
      </trkpt>
      <trkpt lat="45.22226" lon="6.00567">
        <ele>1501.4449462891</ele>
        <time>2017-03-25T07:04:03Z</time>
      </trkpt>
      <trkpt lat="45.22225" lon="6.00574">
        <ele>1506.4449462891</ele>
        <time>2017-03-25T07:04:15Z</time>
      </trkpt>
      <trkpt lat="45.22222" lon="6.00579">
        <ele>1508.4449462891</ele>
        <time>2017-03-25T07:04:20Z</time>
      </trkpt>
      <trkpt lat="45.22219" lon="6.00584">
        <ele>1507.4449462891</ele>
        <time>2017-03-25T07:04:23Z</time>
      </trkpt>
      <trkpt lat="45.22219" lon="6.00591">
        <ele>1512.4449462891</ele>
        <time>2017-03-25T07:04:30Z</time>
      </trkpt>
      <trkpt lat="45.22221" lon="6.00597">
        <ele>1513.4449462891</ele>
        <time>2017-03-25T07:04:35Z</time>
      </trkpt>
      <trkpt lat="45.22225" lon="6.006">
        <ele>1515.4449462891</ele>
        <time>2017-03-25T07:04:39Z</time>
      </trkpt>
      <trkpt lat="45.22226" lon="6.00607">
        <ele>1515.4449462891</ele>
        <time>2017-03-25T07:04:45Z</time>
      </trkpt>
      <trkpt lat="45.22227" lon="6.00613">
        <ele>1518.4449462891</ele>
        <time>2017-03-25T07:04:51Z</time>
      </trkpt>
      <trkpt lat="45.22222" lon="6.00614">
        <ele>1516.4449462891</ele>
        <time>2017-03-25T07:04:55Z</time>
      </trkpt>
      <trkpt lat="45.22219" lon="6.00621">
        <ele>1515.4449462891</ele>
        <time>2017-03-25T07:04:58Z</time>
      </trkpt>
      <trkpt lat="45.22216" lon="6.00627">
        <ele>1513.4449462891</ele>
        <time>2017-03-25T07:05:03Z</time>
      </trkpt>
      <trkpt lat="45.22214" lon="6.00635">
        <ele>1513.4449462891</ele>
        <time>2017-03-25T07:05:07Z</time>
      </trkpt>
      <trkpt lat="45.22211" lon="6.00641">
        <ele>1515.4449462891</ele>
        <time>2017-03-25T07:05:11Z</time>
      </trkpt>
      <trkpt lat="45.22208" lon="6.00647">
        <ele>1513.4449462891</ele>
        <time>2017-03-25T07:05:16Z</time>
      </trkpt>
      <trkpt lat="45.22208" lon="6.00655">
        <ele>1517.4449462891</ele>
        <time>2017-03-25T07:05:21Z</time>
      </trkpt>
      <trkpt lat="45.22207" lon="6.00662">
        <ele>1516.4449462891</ele>
        <time>2017-03-25T07:05:28Z</time>
      </trkpt>
      <trkpt lat="45.2221" lon="6.00668">
        <ele>1518.4449462891</ele>
        <time>2017-03-25T07:05:31Z</time>
      </trkpt>
      <trkpt lat="45.22206" lon="6.00673">
        <ele>1520.4449462891</ele>
        <time>2017-03-25T07:05:36Z</time>
      </trkpt>
      <trkpt lat="45.22208" lon="6.00679">
        <ele>1523.4449462891</ele>
        <time>2017-03-25T07:05:39Z</time>
      </trkpt>
      <trkpt lat="45.22211" lon="6.00685">
        <ele>1522.4449462891</ele>
        <time>2017-03-25T07:05:45Z</time>
      </trkpt>
      <trkpt lat="45.22213" lon="6.00691">
        <ele>1526.4449462891</ele>
        <time>2017-03-25T07:05:49Z</time>
      </trkpt>
      <trkpt lat="45.22215" lon="6.00698">
        <ele>1527.4449462891</ele>
        <time>2017-03-25T07:05:54Z</time>
      </trkpt>
      <trkpt lat="45.22217" lon="6.00705">
        <ele>1527.4449462891</ele>
        <time>2017-03-25T07:06:00Z</time>
      </trkpt>
      <trkpt lat="45.22214" lon="6.0071">
        <ele>1525.4449462891</ele>
        <time>2017-03-25T07:06:05Z</time>
      </trkpt>
      <trkpt lat="45.22212" lon="6.00717">
        <ele>1526.4449462891</ele>
        <time>2017-03-25T07:06:11Z</time>
      </trkpt>
      <trkpt lat="45.2221" lon="6.00724">
        <ele>1532.4449462891</ele>
        <time>2017-03-25T07:06:18Z</time>
      </trkpt>
      <trkpt lat="45.22206" lon="6.00729">
        <ele>1532.4449462891</ele>
        <time>2017-03-25T07:06:24Z</time>
      </trkpt>
      <trkpt lat="45.22201" lon="6.00727">
        <ele>1532.4449462891</ele>
        <time>2017-03-25T07:06:30Z</time>
      </trkpt>
      <trkpt lat="45.22196" lon="6.00724">
        <ele>1533.4449462891</ele>
        <time>2017-03-25T07:06:36Z</time>
      </trkpt>
      <trkpt lat="45.22196" lon="6.00732">
        <ele>1536.4449462891</ele>
        <time>2017-03-25T07:06:48Z</time>
      </trkpt>
      <trkpt lat="45.22194" lon="6.00739">
        <ele>1536.4449462891</ele>
        <time>2017-03-25T07:06:55Z</time>
      </trkpt>
      <trkpt lat="45.22195" lon="6.00746">
        <ele>1537.4449462891</ele>
        <time>2017-03-25T07:07:00Z</time>
      </trkpt>
      <trkpt lat="45.22197" lon="6.00755">
        <ele>1539.4449462891</ele>
        <time>2017-03-25T07:07:07Z</time>
      </trkpt>
      <trkpt lat="45.22199" lon="6.00762">
        <ele>1541.4449462891</ele>
        <time>2017-03-25T07:07:12Z</time>
      </trkpt>
      <trkpt lat="45.222" lon="6.00768">
        <ele>1542.4449462891</ele>
        <time>2017-03-25T07:07:16Z</time>
      </trkpt>
      <trkpt lat="45.22201" lon="6.00775">
        <ele>1545.4449462891</ele>
        <time>2017-03-25T07:07:22Z</time>
      </trkpt>
      <trkpt lat="45.22202" lon="6.00785">
        <ele>1543.4449462891</ele>
        <time>2017-03-25T07:07:28Z</time>
      </trkpt>
      <trkpt lat="45.22205" lon="6.00791">
        <ele>1542.4460449219</ele>
        <time>2017-03-25T07:07:31Z</time>
      </trkpt>
      <trkpt lat="45.22205" lon="6.00798">
        <ele>1544.4460449219</ele>
        <time>2017-03-25T07:07:36Z</time>
      </trkpt>
      <trkpt lat="45.22209" lon="6.00802">
        <ele>1548.4460449219</ele>
        <time>2017-03-25T07:07:44Z</time>
      </trkpt>
      <trkpt lat="45.22212" lon="6.00809">
        <ele>1548.4460449219</ele>
        <time>2017-03-25T07:07:49Z</time>
      </trkpt>
      <trkpt lat="45.22214" lon="6.00815">
        <ele>1556.4460449219</ele>
        <time>2017-03-25T07:07:59Z</time>
      </trkpt>
      <trkpt lat="45.22217" lon="6.0082">
        <ele>1560.4460449219</ele>
        <time>2017-03-25T07:08:05Z</time>
      </trkpt>
      <trkpt lat="45.22221" lon="6.00824">
        <ele>1564.4460449219</ele>
        <time>2017-03-25T07:08:10Z</time>
      </trkpt>
      <trkpt lat="45.22224" lon="6.00831">
        <ele>1564.4460449219</ele>
        <time>2017-03-25T07:08:14Z</time>
      </trkpt>
      <trkpt lat="45.22228" lon="6.00836">
        <ele>1566.4460449219</ele>
        <time>2017-03-25T07:08:19Z</time>
      </trkpt>
      <trkpt lat="45.22229" lon="6.00844">
        <ele>1562.4460449219</ele>
        <time>2017-03-25T07:08:24Z</time>
      </trkpt>
      <trkpt lat="45.22232" lon="6.00851">
        <ele>1564.4460449219</ele>
        <time>2017-03-25T07:08:30Z</time>
      </trkpt>
      <trkpt lat="45.22234" lon="6.00858">
        <ele>1564.4460449219</ele>
        <time>2017-03-25T07:08:35Z</time>
      </trkpt>
      <trkpt lat="45.22238" lon="6.00861">
        <ele>1567.4460449219</ele>
        <time>2017-03-25T07:08:41Z</time>
      </trkpt>
      <trkpt lat="45.22241" lon="6.00866">
        <ele>1568.4460449219</ele>
        <time>2017-03-25T07:08:45Z</time>
      </trkpt>
      <trkpt lat="45.22243" lon="6.00873">
        <ele>1570.4460449219</ele>
        <time>2017-03-25T07:08:52Z</time>
      </trkpt>
      <trkpt lat="45.22245" lon="6.0088">
        <ele>1575.4460449219</ele>
        <time>2017-03-25T07:08:58Z</time>
      </trkpt>
      <trkpt lat="45.22247" lon="6.00887">
        <ele>1576.4460449219</ele>
        <time>2017-03-25T07:09:03Z</time>
      </trkpt>
      <trkpt lat="45.22246" lon="6.00893">
        <ele>1575.4460449219</ele>
        <time>2017-03-25T07:09:09Z</time>
      </trkpt>
      <trkpt lat="45.22245" lon="6.00901">
        <ele>1576.4460449219</ele>
        <time>2017-03-25T07:09:15Z</time>
      </trkpt>
      <trkpt lat="45.22246" lon="6.00907">
        <ele>1576.4460449219</ele>
        <time>2017-03-25T07:09:21Z</time>
      </trkpt>
      <trkpt lat="45.22247" lon="6.00914">
        <ele>1572.4460449219</ele>
        <time>2017-03-25T07:09:27Z</time>
      </trkpt>
      <trkpt lat="45.22244" lon="6.0092">
        <ele>1582.4460449219</ele>
        <time>2017-03-25T07:09:38Z</time>
      </trkpt>
      <trkpt lat="45.22238" lon="6.00922">
        <ele>1580.4460449219</ele>
        <time>2017-03-25T07:09:44Z</time>
      </trkpt>
      <trkpt lat="45.22234" lon="6.00925">
        <ele>1580.4460449219</ele>
        <time>2017-03-25T07:09:49Z</time>
      </trkpt>
      <trkpt lat="45.22233" lon="6.00931">
        <ele>1584.4460449219</ele>
        <time>2017-03-25T07:09:57Z</time>
      </trkpt>
      <trkpt lat="45.22235" lon="6.00939">
        <ele>1582.4460449219</ele>
        <time>2017-03-25T07:10:03Z</time>
      </trkpt>
      <trkpt lat="45.22237" lon="6.00945">
        <ele>1582.4460449219</ele>
        <time>2017-03-25T07:10:09Z</time>
      </trkpt>
      <trkpt lat="45.22237" lon="6.00951">
        <ele>1581.4460449219</ele>
        <time>2017-03-25T07:10:13Z</time>
      </trkpt>
      <trkpt lat="45.22238" lon="6.00958">
        <ele>1584.4460449219</ele>
        <time>2017-03-25T07:10:19Z</time>
      </trkpt>
      <trkpt lat="45.22237" lon="6.00965">
        <ele>1582.4460449219</ele>
        <time>2017-03-25T07:10:24Z</time>
      </trkpt>
      <trkpt lat="45.22236" lon="6.00972">
        <ele>1582.4460449219</ele>
        <time>2017-03-25T07:10:29Z</time>
      </trkpt>
      <trkpt lat="45.22236" lon="6.00978">
        <ele>1587.4460449219</ele>
        <time>2017-03-25T07:10:36Z</time>
      </trkpt>
      <trkpt lat="45.22233" lon="6.00985">
        <ele>1590.4460449219</ele>
        <time>2017-03-25T07:10:41Z</time>
      </trkpt>
      <trkpt lat="45.22235" lon="6.00991">
        <ele>1596.4460449219</ele>
        <time>2017-03-25T07:10:49Z</time>
      </trkpt>
      <trkpt lat="45.22236" lon="6.00998">
        <ele>1597.4460449219</ele>
        <time>2017-03-25T07:10:52Z</time>
      </trkpt>
      <trkpt lat="45.22236" lon="6.01005">
        <ele>1598.4460449219</ele>
        <time>2017-03-25T07:10:57Z</time>
      </trkpt>
      <trkpt lat="45.22236" lon="6.01012">
        <ele>1601.4460449219</ele>
        <time>2017-03-25T07:11:03Z</time>
      </trkpt>
      <trkpt lat="45.22236" lon="6.0102">
        <ele>1601.4460449219</ele>
        <time>2017-03-25T07:11:07Z</time>
      </trkpt>
      <trkpt lat="45.22235" lon="6.01026">
        <ele>1601.4460449219</ele>
        <time>2017-03-25T07:11:11Z</time>
      </trkpt>
      <trkpt lat="45.22235" lon="6.01034">
        <ele>1601.4460449219</ele>
        <time>2017-03-25T07:11:16Z</time>
      </trkpt>
      <trkpt lat="45.22235" lon="6.0104">
        <ele>1601.4460449219</ele>
        <time>2017-03-25T07:11:20Z</time>
      </trkpt>
      <trkpt lat="45.22235" lon="6.01048">
        <ele>1599.4460449219</ele>
        <time>2017-03-25T07:11:25Z</time>
      </trkpt>
      <trkpt lat="45.22234" lon="6.01055">
        <ele>1604.4460449219</ele>
        <time>2017-03-25T07:11:31Z</time>
      </trkpt>
      <trkpt lat="45.22234" lon="6.01063">
        <ele>1605.4460449219</ele>
        <time>2017-03-25T07:11:37Z</time>
      </trkpt>
      <trkpt lat="45.22234" lon="6.0107">
        <ele>1610.4460449219</ele>
        <time>2017-03-25T07:11:43Z</time>
      </trkpt>
      <trkpt lat="45.22234" lon="6.01077">
        <ele>1614.4460449219</ele>
        <time>2017-03-25T07:11:50Z</time>
      </trkpt>
      <trkpt lat="45.22234" lon="6.01084">
        <ele>1616.4460449219</ele>
        <time>2017-03-25T07:11:55Z</time>
      </trkpt>
      <trkpt lat="45.22234" lon="6.01092">
        <ele>1615.4460449219</ele>
        <time>2017-03-25T07:12:00Z</time>
      </trkpt>
      <trkpt lat="45.22236" lon="6.01098">
        <ele>1614.4460449219</ele>
        <time>2017-03-25T07:12:03Z</time>
      </trkpt>
      <trkpt lat="45.22237" lon="6.01104">
        <ele>1614.4460449219</ele>
        <time>2017-03-25T07:12:07Z</time>
      </trkpt>
      <trkpt lat="45.22238" lon="6.01111">
        <ele>1613.4460449219</ele>
        <time>2017-03-25T07:12:12Z</time>
      </trkpt>
      <trkpt lat="45.2224" lon="6.01117">
        <ele>1613.4460449219</ele>
        <time>2017-03-25T07:12:15Z</time>
      </trkpt>
      <trkpt lat="45.22243" lon="6.01123">
        <ele>1615.4460449219</ele>
        <time>2017-03-25T07:12:19Z</time>
      </trkpt>
      <trkpt lat="45.22241" lon="6.01129">
        <ele>1615.4460449219</ele>
        <time>2017-03-25T07:12:23Z</time>
      </trkpt>
      <trkpt lat="45.22238" lon="6.01135">
        <ele>1618.4460449219</ele>
        <time>2017-03-25T07:12:27Z</time>
      </trkpt>
      <trkpt lat="45.2224" lon="6.01142">
        <ele>1617.4460449219</ele>
        <time>2017-03-25T07:12:30Z</time>
      </trkpt>
      <trkpt lat="45.2224" lon="6.01149">
        <ele>1621.4460449219</ele>
        <time>2017-03-25T07:12:37Z</time>
      </trkpt>
      <trkpt lat="45.22241" lon="6.01157">
        <ele>1620.4460449219</ele>
        <time>2017-03-25T07:12:41Z</time>
      </trkpt>
      <trkpt lat="45.22241" lon="6.01166">
        <ele>1618.4460449219</ele>
        <time>2017-03-25T07:12:45Z</time>
      </trkpt>
      <trkpt lat="45.22241" lon="6.01173">
        <ele>1619.4460449219</ele>
        <time>2017-03-25T07:12:48Z</time>
      </trkpt>
      <trkpt lat="45.22243" lon="6.0118">
        <ele>1620.4460449219</ele>
        <time>2017-03-25T07:12:57Z</time>
      </trkpt>
      <trkpt lat="45.22242" lon="6.01187">
        <ele>1624.4460449219</ele>
        <time>2017-03-25T07:13:01Z</time>
      </trkpt>
      <trkpt lat="45.22242" lon="6.01193">
        <ele>1619.4460449219</ele>
        <time>2017-03-25T07:13:05Z</time>
      </trkpt>
      <trkpt lat="45.22242" lon="6.012">
        <ele>1621.4460449219</ele>
        <time>2017-03-25T07:13:14Z</time>
      </trkpt>
      <trkpt lat="45.22244" lon="6.01206">
        <ele>1619.4460449219</ele>
        <time>2017-03-25T07:13:21Z</time>
      </trkpt>
      <trkpt lat="45.22246" lon="6.01213">
        <ele>1619.4460449219</ele>
        <time>2017-03-25T07:13:25Z</time>
      </trkpt>
      <trkpt lat="45.22244" lon="6.01221">
        <ele>1623.4460449219</ele>
        <time>2017-03-25T07:13:35Z</time>
      </trkpt>
      <trkpt lat="45.22247" lon="6.01227">
        <ele>1622.4460449219</ele>
        <time>2017-03-25T07:13:42Z</time>
      </trkpt>
      <trkpt lat="45.22243" lon="6.01232">
        <ele>1620.4460449219</ele>
        <time>2017-03-25T07:13:47Z</time>
      </trkpt>
      <trkpt lat="45.22241" lon="6.01238">
        <ele>1625.4460449219</ele>
        <time>2017-03-25T07:13:54Z</time>
      </trkpt>
      <trkpt lat="45.22241" lon="6.01245">
        <ele>1630.4460449219</ele>
        <time>2017-03-25T07:14:00Z</time>
      </trkpt>
      <trkpt lat="45.22239" lon="6.01251">
        <ele>1634.4460449219</ele>
        <time>2017-03-25T07:14:05Z</time>
      </trkpt>
      <trkpt lat="45.22237" lon="6.01258">
        <ele>1637.4460449219</ele>
        <time>2017-03-25T07:14:11Z</time>
      </trkpt>
      <trkpt lat="45.22234" lon="6.01263">
        <ele>1640.4460449219</ele>
        <time>2017-03-25T07:14:21Z</time>
      </trkpt>
      <trkpt lat="45.22232" lon="6.01269">
        <ele>1641.4460449219</ele>
        <time>2017-03-25T07:14:26Z</time>
      </trkpt>
      <trkpt lat="45.22232" lon="6.01276">
        <ele>1638.4460449219</ele>
        <time>2017-03-25T07:14:31Z</time>
      </trkpt>
      <trkpt lat="45.22233" lon="6.01283">
        <ele>1639.4460449219</ele>
        <time>2017-03-25T07:14:35Z</time>
      </trkpt>
      <trkpt lat="45.22234" lon="6.01289">
        <ele>1640.4460449219</ele>
        <time>2017-03-25T07:14:40Z</time>
      </trkpt>
      <trkpt lat="45.22237" lon="6.01296">
        <ele>1644.4460449219</ele>
        <time>2017-03-25T07:14:49Z</time>
      </trkpt>
      <trkpt lat="45.22241" lon="6.013">
        <ele>1644.4460449219</ele>
        <time>2017-03-25T07:14:54Z</time>
      </trkpt>
      <trkpt lat="45.22246" lon="6.01303">
        <ele>1646.4460449219</ele>
        <time>2017-03-25T07:14:59Z</time>
      </trkpt>
      <trkpt lat="45.22246" lon="6.0131">
        <ele>1646.4460449219</ele>
        <time>2017-03-25T07:15:05Z</time>
      </trkpt>
      <trkpt lat="45.22242" lon="6.01315">
        <ele>1648.4460449219</ele>
        <time>2017-03-25T07:15:10Z</time>
      </trkpt>
      <trkpt lat="45.22241" lon="6.01322">
        <ele>1645.4460449219</ele>
        <time>2017-03-25T07:15:15Z</time>
      </trkpt>
      <trkpt lat="45.2224" lon="6.01328">
        <ele>1649.4460449219</ele>
        <time>2017-03-25T07:15:22Z</time>
      </trkpt>
      <trkpt lat="45.22237" lon="6.01334">
        <ele>1648.4460449219</ele>
        <time>2017-03-25T07:15:27Z</time>
      </trkpt>
      <trkpt lat="45.22232" lon="6.01335">
        <ele>1650.4460449219</ele>
        <time>2017-03-25T07:15:33Z</time>
      </trkpt>
      <trkpt lat="45.22232" lon="6.01342">
        <ele>1655.4460449219</ele>
        <time>2017-03-25T07:15:41Z</time>
      </trkpt>
      <trkpt lat="45.22233" lon="6.01349">
        <ele>1657.4460449219</ele>
        <time>2017-03-25T07:15:47Z</time>
      </trkpt>
      <trkpt lat="45.22237" lon="6.01354">
        <ele>1657.4460449219</ele>
        <time>2017-03-25T07:15:53Z</time>
      </trkpt>
      <trkpt lat="45.22241" lon="6.01356">
        <ele>1658.4460449219</ele>
        <time>2017-03-25T07:16:08Z</time>
      </trkpt>
      <trkpt lat="45.22246" lon="6.01359">
        <ele>1663.4460449219</ele>
        <time>2017-03-25T07:16:13Z</time>
      </trkpt>
      <trkpt lat="45.22248" lon="6.01365">
        <ele>1667.4460449219</ele>
        <time>2017-03-25T07:16:17Z</time>
      </trkpt>
      <trkpt lat="45.22253" lon="6.01366">
        <ele>1666.4460449219</ele>
        <time>2017-03-25T07:16:22Z</time>
      </trkpt>
      <trkpt lat="45.22257" lon="6.01368">
        <ele>1664.4460449219</ele>
        <time>2017-03-25T07:16:35Z</time>
      </trkpt>
      <trkpt lat="45.22254" lon="6.01374">
        <ele>1667.4460449219</ele>
        <time>2017-03-25T07:16:42Z</time>
      </trkpt>
      <trkpt lat="45.22249" lon="6.01375">
        <ele>1664.4460449219</ele>
        <time>2017-03-25T07:16:48Z</time>
      </trkpt>
      <trkpt lat="45.22245" lon="6.01378">
        <ele>1668.4460449219</ele>
        <time>2017-03-25T07:16:54Z</time>
      </trkpt>
      <trkpt lat="45.22244" lon="6.01385">
        <ele>1662.4460449219</ele>
        <time>2017-03-25T07:16:58Z</time>
      </trkpt>
      <trkpt lat="45.22241" lon="6.0139">
        <ele>1662.4460449219</ele>
        <time>2017-03-25T07:17:02Z</time>
      </trkpt>
      <trkpt lat="45.22238" lon="6.01397">
        <ele>1664.4460449219</ele>
        <time>2017-03-25T07:17:06Z</time>
      </trkpt>
      <trkpt lat="45.22236" lon="6.01405">
        <ele>1664.4460449219</ele>
        <time>2017-03-25T07:17:10Z</time>
      </trkpt>
      <trkpt lat="45.22235" lon="6.01412">
        <ele>1668.4460449219</ele>
        <time>2017-03-25T07:17:15Z</time>
      </trkpt>
      <trkpt lat="45.22233" lon="6.01418">
        <ele>1669.4460449219</ele>
        <time>2017-03-25T07:17:19Z</time>
      </trkpt>
      <trkpt lat="45.2223" lon="6.01423">
        <ele>1670.4460449219</ele>
        <time>2017-03-25T07:17:24Z</time>
      </trkpt>
      <trkpt lat="45.22229" lon="6.01429">
        <ele>1673.4460449219</ele>
        <time>2017-03-25T07:17:29Z</time>
      </trkpt>
      <trkpt lat="45.22231" lon="6.01434">
        <ele>1673.4460449219</ele>
        <time>2017-03-25T07:17:34Z</time>
      </trkpt>
      <trkpt lat="45.22233" lon="6.01443">
        <ele>1675.4460449219</ele>
        <time>2017-03-25T07:17:38Z</time>
      </trkpt>
      <trkpt lat="45.22236" lon="6.0145">
        <ele>1676.4460449219</ele>
        <time>2017-03-25T07:17:42Z</time>
      </trkpt>
      <trkpt lat="45.22237" lon="6.01457">
        <ele>1677.4470214844</ele>
        <time>2017-03-25T07:17:46Z</time>
      </trkpt>
      <trkpt lat="45.22239" lon="6.01463">
        <ele>1677.4470214844</ele>
        <time>2017-03-25T07:17:50Z</time>
      </trkpt>
      <trkpt lat="45.22239" lon="6.01469">
        <ele>1678.4470214844</ele>
        <time>2017-03-25T07:17:54Z</time>
      </trkpt>
      <trkpt lat="45.22239" lon="6.01476">
        <ele>1676.4470214844</ele>
        <time>2017-03-25T07:17:57Z</time>
      </trkpt>
      <trkpt lat="45.22241" lon="6.01483">
        <ele>1679.4470214844</ele>
        <time>2017-03-25T07:18:03Z</time>
      </trkpt>
      <trkpt lat="45.22243" lon="6.0149">
        <ele>1679.4470214844</ele>
        <time>2017-03-25T07:18:08Z</time>
      </trkpt>
      <trkpt lat="45.22246" lon="6.01495">
        <ele>1678.4470214844</ele>
        <time>2017-03-25T07:18:16Z</time>
      </trkpt>
      <trkpt lat="45.22247" lon="6.01503">
        <ele>1677.4470214844</ele>
        <time>2017-03-25T07:18:20Z</time>
      </trkpt>
      <trkpt lat="45.22248" lon="6.01513">
        <ele>1674.4470214844</ele>
        <time>2017-03-25T07:18:25Z</time>
      </trkpt>
      <trkpt lat="45.22251" lon="6.01519">
        <ele>1675.4470214844</ele>
        <time>2017-03-25T07:18:29Z</time>
      </trkpt>
      <trkpt lat="45.22256" lon="6.01523">
        <ele>1676.4470214844</ele>
        <time>2017-03-25T07:18:33Z</time>
      </trkpt>
      <trkpt lat="45.22256" lon="6.01531">
        <ele>1677.4470214844</ele>
        <time>2017-03-25T07:18:38Z</time>
      </trkpt>
      <trkpt lat="45.22253" lon="6.01539">
        <ele>1676.4470214844</ele>
        <time>2017-03-25T07:18:42Z</time>
      </trkpt>
      <trkpt lat="45.22254" lon="6.01546">
        <ele>1678.4470214844</ele>
        <time>2017-03-25T07:18:48Z</time>
      </trkpt>
      <trkpt lat="45.22254" lon="6.01554">
        <ele>1677.4470214844</ele>
        <time>2017-03-25T07:18:54Z</time>
      </trkpt>
      <trkpt lat="45.22255" lon="6.0156">
        <ele>1679.4470214844</ele>
        <time>2017-03-25T07:18:57Z</time>
      </trkpt>
      <trkpt lat="45.22255" lon="6.0157">
        <ele>1681.4470214844</ele>
        <time>2017-03-25T07:19:00Z</time>
      </trkpt>
      <trkpt lat="45.22258" lon="6.01575">
        <ele>1680.4470214844</ele>
        <time>2017-03-25T07:19:05Z</time>
      </trkpt>
      <trkpt lat="45.22258" lon="6.01583">
        <ele>1682.4470214844</ele>
        <time>2017-03-25T07:19:08Z</time>
      </trkpt>
      <trkpt lat="45.22259" lon="6.0159">
        <ele>1682.4470214844</ele>
        <time>2017-03-25T07:19:11Z</time>
      </trkpt>
      <trkpt lat="45.22261" lon="6.01597">
        <ele>1682.4470214844</ele>
        <time>2017-03-25T07:19:16Z</time>
      </trkpt>
      <trkpt lat="45.22261" lon="6.01605">
        <ele>1682.4470214844</ele>
        <time>2017-03-25T07:19:19Z</time>
      </trkpt>
      <trkpt lat="45.22262" lon="6.01611">
        <ele>1682.4470214844</ele>
        <time>2017-03-25T07:19:24Z</time>
      </trkpt>
      <trkpt lat="45.22262" lon="6.0162">
        <ele>1682.4470214844</ele>
        <time>2017-03-25T07:19:27Z</time>
      </trkpt>
      <trkpt lat="45.22263" lon="6.01627">
        <ele>1682.4470214844</ele>
        <time>2017-03-25T07:19:30Z</time>
      </trkpt>
      <trkpt lat="45.22264" lon="6.01636">
        <ele>1681.4470214844</ele>
        <time>2017-03-25T07:19:34Z</time>
      </trkpt>
      <trkpt lat="45.22265" lon="6.01643">
        <ele>1679.4470214844</ele>
        <time>2017-03-25T07:19:38Z</time>
      </trkpt>
      <trkpt lat="45.22266" lon="6.01651">
        <ele>1677.4470214844</ele>
        <time>2017-03-25T07:19:41Z</time>
      </trkpt>
      <trkpt lat="45.22266" lon="6.01661">
        <ele>1678.4470214844</ele>
        <time>2017-03-25T07:19:45Z</time>
      </trkpt>
      <trkpt lat="45.22265" lon="6.01669">
        <ele>1677.4470214844</ele>
        <time>2017-03-25T07:19:49Z</time>
      </trkpt>
      <trkpt lat="45.22264" lon="6.01677">
        <ele>1678.4470214844</ele>
        <time>2017-03-25T07:19:52Z</time>
      </trkpt>
      <trkpt lat="45.22264" lon="6.01683">
        <ele>1679.4470214844</ele>
        <time>2017-03-25T07:19:56Z</time>
      </trkpt>
      <trkpt lat="45.22264" lon="6.01691">
        <ele>1679.4470214844</ele>
        <time>2017-03-25T07:20:00Z</time>
      </trkpt>
      <trkpt lat="45.22263" lon="6.01698">
        <ele>1679.4470214844</ele>
        <time>2017-03-25T07:20:03Z</time>
      </trkpt>
      <trkpt lat="45.22264" lon="6.01706">
        <ele>1680.4470214844</ele>
        <time>2017-03-25T07:20:07Z</time>
      </trkpt>
      <trkpt lat="45.22264" lon="6.01713">
        <ele>1678.4470214844</ele>
        <time>2017-03-25T07:20:12Z</time>
      </trkpt>
      <trkpt lat="45.22264" lon="6.0172">
        <ele>1677.4470214844</ele>
        <time>2017-03-25T07:20:15Z</time>
      </trkpt>
      <trkpt lat="45.22265" lon="6.01727">
        <ele>1676.4470214844</ele>
        <time>2017-03-25T07:20:20Z</time>
      </trkpt>
      <trkpt lat="45.22266" lon="6.01734">
        <ele>1674.4470214844</ele>
        <time>2017-03-25T07:20:24Z</time>
      </trkpt>
      <trkpt lat="45.22265" lon="6.01742">
        <ele>1674.4470214844</ele>
        <time>2017-03-25T07:20:27Z</time>
      </trkpt>
      <trkpt lat="45.22262" lon="6.01749">
        <ele>1674.4470214844</ele>
        <time>2017-03-25T07:20:29Z</time>
      </trkpt>
      <trkpt lat="45.22262" lon="6.01757">
        <ele>1676.4470214844</ele>
        <time>2017-03-25T07:20:34Z</time>
      </trkpt>
      <trkpt lat="45.22262" lon="6.01764">
        <ele>1674.4470214844</ele>
        <time>2017-03-25T07:20:37Z</time>
      </trkpt>
      <trkpt lat="45.22264" lon="6.01771">
        <ele>1676.4470214844</ele>
        <time>2017-03-25T07:20:44Z</time>
      </trkpt>
      <trkpt lat="45.22267" lon="6.01776">
        <ele>1676.4470214844</ele>
        <time>2017-03-25T07:20:53Z</time>
      </trkpt>
      <trkpt lat="45.22268" lon="6.01783">
        <ele>1677.4470214844</ele>
        <time>2017-03-25T07:20:58Z</time>
      </trkpt>
      <trkpt lat="45.22269" lon="6.0179">
        <ele>1679.4470214844</ele>
        <time>2017-03-25T07:21:03Z</time>
      </trkpt>
      <trkpt lat="45.22269" lon="6.01797">
        <ele>1680.4470214844</ele>
        <time>2017-03-25T07:21:09Z</time>
      </trkpt>
      <trkpt lat="45.22269" lon="6.01804">
        <ele>1681.4470214844</ele>
        <time>2017-03-25T07:21:16Z</time>
      </trkpt>
      <trkpt lat="45.22271" lon="6.0181">
        <ele>1682.4470214844</ele>
        <time>2017-03-25T07:21:20Z</time>
      </trkpt>
      <trkpt lat="45.22269" lon="6.01816">
        <ele>1685.4470214844</ele>
        <time>2017-03-25T07:21:27Z</time>
      </trkpt>
      <trkpt lat="45.22268" lon="6.01822">
        <ele>1689.4470214844</ele>
        <time>2017-03-25T07:21:37Z</time>
      </trkpt>
      <trkpt lat="45.22264" lon="6.01825">
        <ele>1693.4470214844</ele>
        <time>2017-03-25T07:21:45Z</time>
      </trkpt>
      <trkpt lat="45.22262" lon="6.01832">
        <ele>1691.4470214844</ele>
        <time>2017-03-25T07:21:54Z</time>
      </trkpt>
      <trkpt lat="45.22263" lon="6.01839">
        <ele>1689.4470214844</ele>
        <time>2017-03-25T07:21:58Z</time>
      </trkpt>
      <trkpt lat="45.22264" lon="6.01846">
        <ele>1689.4470214844</ele>
        <time>2017-03-25T07:22:03Z</time>
      </trkpt>
      <trkpt lat="45.22262" lon="6.01853">
        <ele>1686.4470214844</ele>
        <time>2017-03-25T07:22:08Z</time>
      </trkpt>
      <trkpt lat="45.22261" lon="6.01859">
        <ele>1687.4470214844</ele>
        <time>2017-03-25T07:22:11Z</time>
      </trkpt>
      <trkpt lat="45.22261" lon="6.01866">
        <ele>1686.4470214844</ele>
        <time>2017-03-25T07:22:15Z</time>
      </trkpt>
      <trkpt lat="45.2226" lon="6.01874">
        <ele>1684.4470214844</ele>
        <time>2017-03-25T07:22:18Z</time>
      </trkpt>
      <trkpt lat="45.2226" lon="6.01881">
        <ele>1686.4470214844</ele>
        <time>2017-03-25T07:22:22Z</time>
      </trkpt>
      <trkpt lat="45.22258" lon="6.01889">
        <ele>1689.4470214844</ele>
        <time>2017-03-25T07:22:27Z</time>
      </trkpt>
      <trkpt lat="45.22257" lon="6.01895">
        <ele>1690.4470214844</ele>
        <time>2017-03-25T07:22:30Z</time>
      </trkpt>
      <trkpt lat="45.22257" lon="6.01902">
        <ele>1691.4470214844</ele>
        <time>2017-03-25T07:22:34Z</time>
      </trkpt>
      <trkpt lat="45.22255" lon="6.01908">
        <ele>1691.4470214844</ele>
        <time>2017-03-25T07:22:38Z</time>
      </trkpt>
      <trkpt lat="45.22252" lon="6.01913">
        <ele>1692.4470214844</ele>
        <time>2017-03-25T07:22:43Z</time>
      </trkpt>
      <trkpt lat="45.22251" lon="6.01921">
        <ele>1694.4470214844</ele>
        <time>2017-03-25T07:22:48Z</time>
      </trkpt>
      <trkpt lat="45.22252" lon="6.01927">
        <ele>1698.4470214844</ele>
        <time>2017-03-25T07:22:53Z</time>
      </trkpt>
      <trkpt lat="45.22253" lon="6.01935">
        <ele>1698.4470214844</ele>
        <time>2017-03-25T07:22:58Z</time>
      </trkpt>
      <trkpt lat="45.22254" lon="6.01942">
        <ele>1700.4470214844</ele>
        <time>2017-03-25T07:23:03Z</time>
      </trkpt>
      <trkpt lat="45.22254" lon="6.01951">
        <ele>1699.4470214844</ele>
        <time>2017-03-25T07:23:07Z</time>
      </trkpt>
      <trkpt lat="45.22252" lon="6.01959">
        <ele>1696.4470214844</ele>
        <time>2017-03-25T07:23:10Z</time>
      </trkpt>
      <trkpt lat="45.22251" lon="6.01966">
        <ele>1697.4470214844</ele>
        <time>2017-03-25T07:23:15Z</time>
      </trkpt>
      <trkpt lat="45.22251" lon="6.01977">
        <ele>1698.4470214844</ele>
        <time>2017-03-25T07:23:19Z</time>
      </trkpt>
      <trkpt lat="45.2225" lon="6.01984">
        <ele>1698.4470214844</ele>
        <time>2017-03-25T07:23:23Z</time>
      </trkpt>
      <trkpt lat="45.22249" lon="6.01992">
        <ele>1697.4470214844</ele>
        <time>2017-03-25T07:23:28Z</time>
      </trkpt>
      <trkpt lat="45.22248" lon="6.01998">
        <ele>1697.4470214844</ele>
        <time>2017-03-25T07:23:32Z</time>
      </trkpt>
      <trkpt lat="45.22247" lon="6.02006">
        <ele>1698.4470214844</ele>
        <time>2017-03-25T07:23:37Z</time>
      </trkpt>
      <trkpt lat="45.22248" lon="6.02012">
        <ele>1701.4470214844</ele>
        <time>2017-03-25T07:23:42Z</time>
      </trkpt>
      <trkpt lat="45.22248" lon="6.02021">
        <ele>1700.4470214844</ele>
        <time>2017-03-25T07:23:47Z</time>
      </trkpt>
      <trkpt lat="45.22248" lon="6.02029">
        <ele>1699.4470214844</ele>
        <time>2017-03-25T07:23:51Z</time>
      </trkpt>
      <trkpt lat="45.22249" lon="6.02036">
        <ele>1696.4470214844</ele>
        <time>2017-03-25T07:23:55Z</time>
      </trkpt>
      <trkpt lat="45.22249" lon="6.02043">
        <ele>1698.4470214844</ele>
        <time>2017-03-25T07:24:00Z</time>
      </trkpt>
      <trkpt lat="45.22251" lon="6.0205">
        <ele>1701.4470214844</ele>
        <time>2017-03-25T07:24:06Z</time>
      </trkpt>
      <trkpt lat="45.22251" lon="6.02057">
        <ele>1699.4470214844</ele>
        <time>2017-03-25T07:24:11Z</time>
      </trkpt>
      <trkpt lat="45.22252" lon="6.02065">
        <ele>1699.4470214844</ele>
        <time>2017-03-25T07:24:17Z</time>
      </trkpt>
      <trkpt lat="45.22253" lon="6.02072">
        <ele>1703.4470214844</ele>
        <time>2017-03-25T07:24:25Z</time>
      </trkpt>
      <trkpt lat="45.22255" lon="6.02078">
        <ele>1702.4470214844</ele>
        <time>2017-03-25T07:24:30Z</time>
      </trkpt>
      <trkpt lat="45.22256" lon="6.02086">
        <ele>1699.4470214844</ele>
        <time>2017-03-25T07:24:35Z</time>
      </trkpt>
      <trkpt lat="45.22258" lon="6.02091">
        <ele>1703.4470214844</ele>
        <time>2017-03-25T07:24:42Z</time>
      </trkpt>
      <trkpt lat="45.22262" lon="6.02095">
        <ele>1701.4470214844</ele>
        <time>2017-03-25T07:24:47Z</time>
      </trkpt>
      <trkpt lat="45.22266" lon="6.02101">
        <ele>1698.4470214844</ele>
        <time>2017-03-25T07:24:53Z</time>
      </trkpt>
      <trkpt lat="45.2227" lon="6.02106">
        <ele>1695.4470214844</ele>
        <time>2017-03-25T07:24:58Z</time>
      </trkpt>
      <trkpt lat="45.22272" lon="6.02114">
        <ele>1697.4470214844</ele>
        <time>2017-03-25T07:25:03Z</time>
      </trkpt>
      <trkpt lat="45.22273" lon="6.0212">
        <ele>1697.4470214844</ele>
        <time>2017-03-25T07:25:07Z</time>
      </trkpt>
      <trkpt lat="45.22274" lon="6.02127">
        <ele>1701.4479980469</ele>
        <time>2017-03-25T07:25:11Z</time>
      </trkpt>
      <trkpt lat="45.22275" lon="6.02135">
        <ele>1699.4479980469</ele>
        <time>2017-03-25T07:25:16Z</time>
      </trkpt>
      <trkpt lat="45.22276" lon="6.02143">
        <ele>1701.4479980469</ele>
        <time>2017-03-25T07:25:21Z</time>
      </trkpt>
      <trkpt lat="45.22277" lon="6.0215">
        <ele>1701.4479980469</ele>
        <time>2017-03-25T07:25:26Z</time>
      </trkpt>
      <trkpt lat="45.22277" lon="6.02158">
        <ele>1705.4479980469</ele>
        <time>2017-03-25T07:25:31Z</time>
      </trkpt>
      <trkpt lat="45.22279" lon="6.02166">
        <ele>1704.4479980469</ele>
        <time>2017-03-25T07:25:36Z</time>
      </trkpt>
      <trkpt lat="45.22284" lon="6.02168">
        <ele>1707.4479980469</ele>
        <time>2017-03-25T07:25:44Z</time>
      </trkpt>
      <trkpt lat="45.22288" lon="6.02171">
        <ele>1707.4479980469</ele>
        <time>2017-03-25T07:25:48Z</time>
      </trkpt>
      <trkpt lat="45.22292" lon="6.02175">
        <ele>1708.4479980469</ele>
        <time>2017-03-25T07:25:57Z</time>
      </trkpt>
      <trkpt lat="45.22297" lon="6.02178">
        <ele>1703.4479980469</ele>
        <time>2017-03-25T07:26:05Z</time>
      </trkpt>
      <trkpt lat="45.22301" lon="6.02182">
        <ele>1703.4479980469</ele>
        <time>2017-03-25T07:26:11Z</time>
      </trkpt>
      <trkpt lat="45.22304" lon="6.02188">
        <ele>1709.4479980469</ele>
        <time>2017-03-25T07:26:18Z</time>
      </trkpt>
      <trkpt lat="45.22307" lon="6.02194">
        <ele>1711.4479980469</ele>
        <time>2017-03-25T07:26:24Z</time>
      </trkpt>
      <trkpt lat="45.22309" lon="6.02199">
        <ele>1712.4479980469</ele>
        <time>2017-03-25T07:26:36Z</time>
      </trkpt>
      <trkpt lat="45.22313" lon="6.02204">
        <ele>1712.4479980469</ele>
        <time>2017-03-25T07:26:46Z</time>
      </trkpt>
      <trkpt lat="45.22317" lon="6.0221">
        <ele>1718.4479980469</ele>
        <time>2017-03-25T07:26:52Z</time>
      </trkpt>
      <trkpt lat="45.22319" lon="6.02217">
        <ele>1720.4479980469</ele>
        <time>2017-03-25T07:26:56Z</time>
      </trkpt>
      <trkpt lat="45.22322" lon="6.02224">
        <ele>1723.4479980469</ele>
        <time>2017-03-25T07:27:02Z</time>
      </trkpt>
      <trkpt lat="45.22326" lon="6.02229">
        <ele>1727.4479980469</ele>
        <time>2017-03-25T07:27:08Z</time>
      </trkpt>
      <trkpt lat="45.22329" lon="6.02235">
        <ele>1731.4479980469</ele>
        <time>2017-03-25T07:27:14Z</time>
      </trkpt>
      <trkpt lat="45.22331" lon="6.02241">
        <ele>1738.4479980469</ele>
        <time>2017-03-25T07:27:24Z</time>
      </trkpt>
      <trkpt lat="45.22334" lon="6.02247">
        <ele>1741.4479980469</ele>
        <time>2017-03-25T07:27:33Z</time>
      </trkpt>
      <trkpt lat="45.22337" lon="6.02253">
        <ele>1744.4479980469</ele>
        <time>2017-03-25T07:27:40Z</time>
      </trkpt>
      <trkpt lat="45.2234" lon="6.02259">
        <ele>1748.4479980469</ele>
        <time>2017-03-25T07:27:48Z</time>
      </trkpt>
      <trkpt lat="45.22343" lon="6.02264">
        <ele>1754.4479980469</ele>
        <time>2017-03-25T07:27:55Z</time>
      </trkpt>
      <trkpt lat="45.22345" lon="6.02271">
        <ele>1753.4479980469</ele>
        <time>2017-03-25T07:27:59Z</time>
      </trkpt>
      <trkpt lat="45.22347" lon="6.02279">
        <ele>1758.4479980469</ele>
        <time>2017-03-25T07:28:07Z</time>
      </trkpt>
      <trkpt lat="45.22348" lon="6.02286">
        <ele>1760.4479980469</ele>
        <time>2017-03-25T07:28:13Z</time>
      </trkpt>
      <trkpt lat="45.22348" lon="6.02292">
        <ele>1761.4479980469</ele>
        <time>2017-03-25T07:28:19Z</time>
      </trkpt>
      <trkpt lat="45.22351" lon="6.02299">
        <ele>1769.4479980469</ele>
        <time>2017-03-25T07:28:27Z</time>
      </trkpt>
      <trkpt lat="45.22352" lon="6.02305">
        <ele>1771.4479980469</ele>
        <time>2017-03-25T07:28:32Z</time>
      </trkpt>
      <trkpt lat="45.22352" lon="6.02313">
        <ele>1773.4479980469</ele>
        <time>2017-03-25T07:28:37Z</time>
      </trkpt>
      <trkpt lat="45.22351" lon="6.02319">
        <ele>1771.4479980469</ele>
        <time>2017-03-25T07:28:41Z</time>
      </trkpt>
      <trkpt lat="45.2235" lon="6.02325">
        <ele>1769.4479980469</ele>
        <time>2017-03-25T07:28:46Z</time>
      </trkpt>
      <trkpt lat="45.22355" lon="6.0233">
        <ele>1773.4479980469</ele>
        <time>2017-03-25T07:28:54Z</time>
      </trkpt>
      <trkpt lat="45.2236" lon="6.02334">
        <ele>1773.4479980469</ele>
        <time>2017-03-25T07:29:00Z</time>
      </trkpt>
      <trkpt lat="45.22364" lon="6.02337">
        <ele>1773.4479980469</ele>
        <time>2017-03-25T07:29:08Z</time>
      </trkpt>
      <trkpt lat="45.22369" lon="6.02336">
        <ele>1774.4479980469</ele>
        <time>2017-03-25T07:29:14Z</time>
      </trkpt>
      <trkpt lat="45.22373" lon="6.02339">
        <ele>1776.4479980469</ele>
        <time>2017-03-25T07:29:21Z</time>
      </trkpt>
      <trkpt lat="45.22375" lon="6.02346">
        <ele>1781.4479980469</ele>
        <time>2017-03-25T07:29:28Z</time>
      </trkpt>
      <trkpt lat="45.22376" lon="6.02353">
        <ele>1779.4479980469</ele>
        <time>2017-03-25T07:29:33Z</time>
      </trkpt>
      <trkpt lat="45.22376" lon="6.0236">
        <ele>1779.4479980469</ele>
        <time>2017-03-25T07:29:38Z</time>
      </trkpt>
      <trkpt lat="45.22378" lon="6.02367">
        <ele>1781.4479980469</ele>
        <time>2017-03-25T07:29:45Z</time>
      </trkpt>
      <trkpt lat="45.22379" lon="6.02373">
        <ele>1782.4479980469</ele>
        <time>2017-03-25T07:29:50Z</time>
      </trkpt>
      <trkpt lat="45.22381" lon="6.0238">
        <ele>1782.4479980469</ele>
        <time>2017-03-25T07:29:58Z</time>
      </trkpt>
      <trkpt lat="45.22383" lon="6.02386">
        <ele>1784.4479980469</ele>
        <time>2017-03-25T07:30:04Z</time>
      </trkpt>
      <trkpt lat="45.22388" lon="6.02385">
        <ele>1787.4479980469</ele>
        <time>2017-03-25T07:30:12Z</time>
      </trkpt>
      <trkpt lat="45.2239" lon="6.02379">
        <ele>1788.4479980469</ele>
        <time>2017-03-25T07:30:18Z</time>
      </trkpt>
      <trkpt lat="45.22394" lon="6.02383">
        <ele>1790.4479980469</ele>
        <time>2017-03-25T07:30:27Z</time>
      </trkpt>
      <trkpt lat="45.22399" lon="6.02381">
        <ele>1793.4479980469</ele>
        <time>2017-03-25T07:30:32Z</time>
      </trkpt>
      <trkpt lat="45.22404" lon="6.0238">
        <ele>1793.4479980469</ele>
        <time>2017-03-25T07:30:40Z</time>
      </trkpt>
      <trkpt lat="45.22409" lon="6.0238">
        <ele>1793.4479980469</ele>
        <time>2017-03-25T07:30:46Z</time>
      </trkpt>
      <trkpt lat="45.22414" lon="6.0238">
        <ele>1797.4479980469</ele>
        <time>2017-03-25T07:30:52Z</time>
      </trkpt>
      <trkpt lat="45.22419" lon="6.02382">
        <ele>1797.4479980469</ele>
        <time>2017-03-25T07:30:59Z</time>
      </trkpt>
      <trkpt lat="45.22424" lon="6.02385">
        <ele>1798.4479980469</ele>
        <time>2017-03-25T07:31:08Z</time>
      </trkpt>
      <trkpt lat="45.22426" lon="6.0239">
        <ele>1803.4479980469</ele>
        <time>2017-03-25T07:31:14Z</time>
      </trkpt>
      <trkpt lat="45.22426" lon="6.02397">
        <ele>1805.4479980469</ele>
        <time>2017-03-25T07:31:20Z</time>
      </trkpt>
      <trkpt lat="45.22426" lon="6.02404">
        <ele>1806.4479980469</ele>
        <time>2017-03-25T07:31:26Z</time>
      </trkpt>
      <trkpt lat="45.22427" lon="6.0241">
        <ele>1806.4479980469</ele>
        <time>2017-03-25T07:31:34Z</time>
      </trkpt>
      <trkpt lat="45.22432" lon="6.02408">
        <ele>1808.4479980469</ele>
        <time>2017-03-25T07:31:39Z</time>
      </trkpt>
      <trkpt lat="45.22437" lon="6.02405">
        <ele>1807.4479980469</ele>
        <time>2017-03-25T07:31:43Z</time>
      </trkpt>
      <trkpt lat="45.2244" lon="6.02401">
        <ele>1809.4479980469</ele>
        <time>2017-03-25T07:31:47Z</time>
      </trkpt>
      <trkpt lat="45.22445" lon="6.02402">
        <ele>1812.4479980469</ele>
        <time>2017-03-25T07:31:54Z</time>
      </trkpt>
      <trkpt lat="45.2245" lon="6.02404">
        <ele>1813.4479980469</ele>
        <time>2017-03-25T07:32:04Z</time>
      </trkpt>
      <trkpt lat="45.22452" lon="6.0241">
        <ele>1812.4479980469</ele>
        <time>2017-03-25T07:32:09Z</time>
      </trkpt>
      <trkpt lat="45.22455" lon="6.02416">
        <ele>1817.4479980469</ele>
        <time>2017-03-25T07:32:20Z</time>
      </trkpt>
      <trkpt lat="45.22453" lon="6.02424">
        <ele>1818.4479980469</ele>
        <time>2017-03-25T07:32:26Z</time>
      </trkpt>
      <trkpt lat="45.22453" lon="6.02432">
        <ele>1816.4479980469</ele>
        <time>2017-03-25T07:32:31Z</time>
      </trkpt>
      <trkpt lat="45.22452" lon="6.0244">
        <ele>1816.4479980469</ele>
        <time>2017-03-25T07:32:37Z</time>
      </trkpt>
      <trkpt lat="45.22452" lon="6.02446">
        <ele>1820.4479980469</ele>
        <time>2017-03-25T07:32:43Z</time>
      </trkpt>
      <trkpt lat="45.22453" lon="6.02453">
        <ele>1823.4479980469</ele>
        <time>2017-03-25T07:32:50Z</time>
      </trkpt>
      <trkpt lat="45.22456" lon="6.02459">
        <ele>1823.4479980469</ele>
        <time>2017-03-25T07:32:58Z</time>
      </trkpt>
      <trkpt lat="45.22457" lon="6.02465">
        <ele>1828.4479980469</ele>
        <time>2017-03-25T07:33:05Z</time>
      </trkpt>
      <trkpt lat="45.22458" lon="6.02471">
        <ele>1831.4479980469</ele>
        <time>2017-03-25T07:33:12Z</time>
      </trkpt>
      <trkpt lat="45.22462" lon="6.02477">
        <ele>1831.4479980469</ele>
        <time>2017-03-25T07:33:18Z</time>
      </trkpt>
      <trkpt lat="45.22464" lon="6.02484">
        <ele>1833.4479980469</ele>
        <time>2017-03-25T07:33:24Z</time>
      </trkpt>
      <trkpt lat="45.22466" lon="6.0249">
        <ele>1834.4479980469</ele>
        <time>2017-03-25T07:33:29Z</time>
      </trkpt>
      <trkpt lat="45.22467" lon="6.02496">
        <ele>1836.4479980469</ele>
        <time>2017-03-25T07:33:35Z</time>
      </trkpt>
      <trkpt lat="45.22468" lon="6.02503">
        <ele>1836.4479980469</ele>
        <time>2017-03-25T07:33:42Z</time>
      </trkpt>
      <trkpt lat="45.22469" lon="6.0251">
        <ele>1835.4479980469</ele>
        <time>2017-03-25T07:33:46Z</time>
      </trkpt>
      <trkpt lat="45.2247" lon="6.02516">
        <ele>1832.4479980469</ele>
        <time>2017-03-25T07:33:50Z</time>
      </trkpt>
      <trkpt lat="45.22472" lon="6.02523">
        <ele>1835.4479980469</ele>
        <time>2017-03-25T07:33:57Z</time>
      </trkpt>
      <trkpt lat="45.22473" lon="6.0253">
        <ele>1840.4479980469</ele>
        <time>2017-03-25T07:34:04Z</time>
      </trkpt>
      <trkpt lat="45.22475" lon="6.02537">
        <ele>1841.4479980469</ele>
        <time>2017-03-25T07:34:11Z</time>
      </trkpt>
      <trkpt lat="45.22475" lon="6.02544">
        <ele>1839.4479980469</ele>
        <time>2017-03-25T07:34:17Z</time>
      </trkpt>
      <trkpt lat="45.22476" lon="6.02551">
        <ele>1840.4479980469</ele>
        <time>2017-03-25T07:34:22Z</time>
      </trkpt>
      <trkpt lat="45.22476" lon="6.02558">
        <ele>1845.4489746094</ele>
        <time>2017-03-25T07:34:28Z</time>
      </trkpt>
      <trkpt lat="45.22478" lon="6.02564">
        <ele>1846.4489746094</ele>
        <time>2017-03-25T07:34:35Z</time>
      </trkpt>
      <trkpt lat="45.22481" lon="6.02571">
        <ele>1845.4489746094</ele>
        <time>2017-03-25T07:34:42Z</time>
      </trkpt>
      <trkpt lat="45.22481" lon="6.02579">
        <ele>1846.4489746094</ele>
        <time>2017-03-25T07:34:47Z</time>
      </trkpt>
      <trkpt lat="45.22483" lon="6.02585">
        <ele>1847.4489746094</ele>
        <time>2017-03-25T07:34:55Z</time>
      </trkpt>
      <trkpt lat="45.22488" lon="6.02588">
        <ele>1846.4489746094</ele>
        <time>2017-03-25T07:35:04Z</time>
      </trkpt>
      <trkpt lat="45.22491" lon="6.02593">
        <ele>1848.4489746094</ele>
        <time>2017-03-25T07:35:11Z</time>
      </trkpt>
      <trkpt lat="45.22496" lon="6.02598">
        <ele>1849.4489746094</ele>
        <time>2017-03-25T07:35:21Z</time>
      </trkpt>
      <trkpt lat="45.22496" lon="6.02605">
        <ele>1848.4489746094</ele>
        <time>2017-03-25T07:35:28Z</time>
      </trkpt>
      <trkpt lat="45.22494" lon="6.02611">
        <ele>1852.4489746094</ele>
        <time>2017-03-25T07:35:36Z</time>
      </trkpt>
      <trkpt lat="45.22492" lon="6.02617">
        <ele>1854.4489746094</ele>
        <time>2017-03-25T07:35:41Z</time>
      </trkpt>
      <trkpt lat="45.2249" lon="6.02623">
        <ele>1857.4489746094</ele>
        <time>2017-03-25T07:35:51Z</time>
      </trkpt>
      <trkpt lat="45.22493" lon="6.02629">
        <ele>1858.4489746094</ele>
        <time>2017-03-25T07:35:59Z</time>
      </trkpt>
      <trkpt lat="45.22498" lon="6.0263">
        <ele>1857.4489746094</ele>
        <time>2017-03-25T07:36:03Z</time>
      </trkpt>
      <trkpt lat="45.22503" lon="6.02631">
        <ele>1859.4489746094</ele>
        <time>2017-03-25T07:36:07Z</time>
      </trkpt>
      <trkpt lat="45.22508" lon="6.02634">
        <ele>1861.4489746094</ele>
        <time>2017-03-25T07:36:15Z</time>
      </trkpt>
      <trkpt lat="45.22512" lon="6.02635">
        <ele>1861.4489746094</ele>
        <time>2017-03-25T07:36:20Z</time>
      </trkpt>
      <trkpt lat="45.22516" lon="6.02637">
        <ele>1861.4489746094</ele>
        <time>2017-03-25T07:36:25Z</time>
      </trkpt>
      <trkpt lat="45.22521" lon="6.02641">
        <ele>1862.4489746094</ele>
        <time>2017-03-25T07:36:33Z</time>
      </trkpt>
      <trkpt lat="45.22522" lon="6.02648">
        <ele>1859.4489746094</ele>
        <time>2017-03-25T07:36:38Z</time>
      </trkpt>
      <trkpt lat="45.22523" lon="6.02654">
        <ele>1857.4489746094</ele>
        <time>2017-03-25T07:36:42Z</time>
      </trkpt>
      <trkpt lat="45.22526" lon="6.0266">
        <ele>1863.4489746094</ele>
        <time>2017-03-25T07:36:48Z</time>
      </trkpt>
      <trkpt lat="45.2253" lon="6.02664">
        <ele>1866.4489746094</ele>
        <time>2017-03-25T07:36:54Z</time>
      </trkpt>
      <trkpt lat="45.22533" lon="6.02669">
        <ele>1867.4489746094</ele>
        <time>2017-03-25T07:36:59Z</time>
      </trkpt>
      <trkpt lat="45.22537" lon="6.02673">
        <ele>1869.4489746094</ele>
        <time>2017-03-25T07:37:07Z</time>
      </trkpt>
      <trkpt lat="45.22539" lon="6.02679">
        <ele>1868.4489746094</ele>
        <time>2017-03-25T07:37:12Z</time>
      </trkpt>
      <trkpt lat="45.22542" lon="6.02685">
        <ele>1869.4489746094</ele>
        <time>2017-03-25T07:37:19Z</time>
      </trkpt>
      <trkpt lat="45.22541" lon="6.02692">
        <ele>1868.4489746094</ele>
        <time>2017-03-25T07:37:24Z</time>
      </trkpt>
      <trkpt lat="45.22545" lon="6.02697">
        <ele>1871.4489746094</ele>
        <time>2017-03-25T07:37:38Z</time>
      </trkpt>
      <trkpt lat="45.22549" lon="6.02702">
        <ele>1873.4489746094</ele>
        <time>2017-03-25T07:37:44Z</time>
      </trkpt>
      <trkpt lat="45.22552" lon="6.02708">
        <ele>1873.4489746094</ele>
        <time>2017-03-25T07:37:50Z</time>
      </trkpt>
      <trkpt lat="45.22556" lon="6.02713">
        <ele>1874.4489746094</ele>
        <time>2017-03-25T07:37:57Z</time>
      </trkpt>
      <trkpt lat="45.22553" lon="6.02718">
        <ele>1875.4489746094</ele>
        <time>2017-03-25T07:38:00Z</time>
      </trkpt>
      <trkpt lat="45.22558" lon="6.02718">
        <ele>1872.4489746094</ele>
        <time>2017-03-25T07:38:08Z</time>
      </trkpt>
      <trkpt lat="45.22561" lon="6.02724">
        <ele>1879.4489746094</ele>
        <time>2017-03-25T07:38:15Z</time>
      </trkpt>
      <trkpt lat="45.22559" lon="6.02729">
        <ele>1879.4489746094</ele>
        <time>2017-03-25T07:38:22Z</time>
      </trkpt>
      <trkpt lat="45.22555" lon="6.02735">
        <ele>1883.4489746094</ele>
        <time>2017-03-25T07:38:34Z</time>
      </trkpt>
      <trkpt lat="45.22551" lon="6.0274">
        <ele>1889.4489746094</ele>
        <time>2017-03-25T07:38:46Z</time>
      </trkpt>
      <trkpt lat="45.22548" lon="6.02744">
        <ele>1890.4489746094</ele>
        <time>2017-03-25T07:38:52Z</time>
      </trkpt>
      <trkpt lat="45.22544" lon="6.02752">
        <ele>1892.4489746094</ele>
        <time>2017-03-25T07:38:59Z</time>
      </trkpt>
      <trkpt lat="45.22545" lon="6.02758">
        <ele>1892.4489746094</ele>
        <time>2017-03-25T07:39:05Z</time>
      </trkpt>
      <trkpt lat="45.2255" lon="6.02759">
        <ele>1895.4489746094</ele>
        <time>2017-03-25T07:39:12Z</time>
      </trkpt>
      <trkpt lat="45.22554" lon="6.02762">
        <ele>1894.4489746094</ele>
        <time>2017-03-25T07:39:22Z</time>
      </trkpt>
      <trkpt lat="45.22553" lon="6.02769">
        <ele>1899.4489746094</ele>
        <time>2017-03-25T07:39:39Z</time>
      </trkpt>
      <trkpt lat="45.2255" lon="6.02775">
        <ele>1902.4489746094</ele>
        <time>2017-03-25T07:39:52Z</time>
      </trkpt>
      <trkpt lat="45.22546" lon="6.02778">
        <ele>1907.4489746094</ele>
        <time>2017-03-25T07:40:05Z</time>
      </trkpt>
      <trkpt lat="45.22542" lon="6.02782">
        <ele>1908.4489746094</ele>
        <time>2017-03-25T07:40:15Z</time>
      </trkpt>
      <trkpt lat="45.22538" lon="6.02785">
        <ele>1905.4489746094</ele>
        <time>2017-03-25T07:40:26Z</time>
      </trkpt>
      <trkpt lat="45.22534" lon="6.02787">
        <ele>1908.4489746094</ele>
        <time>2017-03-25T07:40:33Z</time>
      </trkpt>
      <trkpt lat="45.22529" lon="6.0279">
        <ele>1909.4489746094</ele>
        <time>2017-03-25T07:40:42Z</time>
      </trkpt>
      <trkpt lat="45.22525" lon="6.02794">
        <ele>1909.4489746094</ele>
        <time>2017-03-25T07:40:47Z</time>
      </trkpt>
      <trkpt lat="45.2252" lon="6.02796">
        <ele>1913.4489746094</ele>
        <time>2017-03-25T07:40:56Z</time>
      </trkpt>
      <trkpt lat="45.22515" lon="6.02798">
        <ele>1914.4489746094</ele>
        <time>2017-03-25T07:41:02Z</time>
      </trkpt>
      <trkpt lat="45.22509" lon="6.02798">
        <ele>1916.4489746094</ele>
        <time>2017-03-25T07:41:09Z</time>
      </trkpt>
      <trkpt lat="45.22504" lon="6.02798">
        <ele>1919.4489746094</ele>
        <time>2017-03-25T07:41:17Z</time>
      </trkpt>
      <trkpt lat="45.22499" lon="6.02798">
        <ele>1921.4489746094</ele>
        <time>2017-03-25T07:41:24Z</time>
      </trkpt>
      <trkpt lat="45.22495" lon="6.02797">
        <ele>1924.4489746094</ele>
        <time>2017-03-25T07:41:31Z</time>
      </trkpt>
      <trkpt lat="45.2249" lon="6.02795">
        <ele>1929.4489746094</ele>
        <time>2017-03-25T07:41:38Z</time>
      </trkpt>
      <trkpt lat="45.22485" lon="6.02797">
        <ele>1923.4489746094</ele>
        <time>2017-03-25T07:41:45Z</time>
      </trkpt>
      <trkpt lat="45.2248" lon="6.02795">
        <ele>1925.4489746094</ele>
        <time>2017-03-25T07:41:51Z</time>
      </trkpt>
      <trkpt lat="45.22475" lon="6.02795">
        <ele>1929.4489746094</ele>
        <time>2017-03-25T07:41:56Z</time>
      </trkpt>
      <trkpt lat="45.22471" lon="6.02799">
        <ele>1929.4489746094</ele>
        <time>2017-03-25T07:42:04Z</time>
      </trkpt>
      <trkpt lat="45.22466" lon="6.02797">
        <ele>1934.4489746094</ele>
        <time>2017-03-25T07:42:14Z</time>
      </trkpt>
      <trkpt lat="45.22463" lon="6.02806">
        <ele>1937.4489746094</ele>
        <time>2017-03-25T07:42:25Z</time>
      </trkpt>
      <trkpt lat="45.22466" lon="6.02811">
        <ele>1939.4489746094</ele>
        <time>2017-03-25T07:42:34Z</time>
      </trkpt>
      <trkpt lat="45.22464" lon="6.02821">
        <ele>1933.4489746094</ele>
        <time>2017-03-25T07:42:38Z</time>
      </trkpt>
      <trkpt lat="45.22465" lon="6.02828">
        <ele>1934.4489746094</ele>
        <time>2017-03-25T07:42:44Z</time>
      </trkpt>
      <trkpt lat="45.22465" lon="6.02835">
        <ele>1935.4489746094</ele>
        <time>2017-03-25T07:42:50Z</time>
      </trkpt>
      <trkpt lat="45.22461" lon="6.0284">
        <ele>1938.4489746094</ele>
        <time>2017-03-25T07:42:59Z</time>
      </trkpt>
      <trkpt lat="45.22456" lon="6.02842">
        <ele>1939.4489746094</ele>
        <time>2017-03-25T07:43:05Z</time>
      </trkpt>
      <trkpt lat="45.22451" lon="6.02843">
        <ele>1946.4489746094</ele>
        <time>2017-03-25T07:43:17Z</time>
      </trkpt>
      <trkpt lat="45.22447" lon="6.02845">
        <ele>1948.4489746094</ele>
        <time>2017-03-25T07:43:23Z</time>
      </trkpt>
      <trkpt lat="45.22441" lon="6.02846">
        <ele>1949.4489746094</ele>
        <time>2017-03-25T07:43:29Z</time>
      </trkpt>
      <trkpt lat="45.22437" lon="6.02847">
        <ele>1946.4489746094</ele>
        <time>2017-03-25T07:43:36Z</time>
      </trkpt>
      <trkpt lat="45.22441" lon="6.02851">
        <ele>1954.4489746094</ele>
        <time>2017-03-25T07:43:49Z</time>
      </trkpt>
      <trkpt lat="45.2244" lon="6.02857">
        <ele>1957.4489746094</ele>
        <time>2017-03-25T07:43:52Z</time>
      </trkpt>
      <trkpt lat="45.22442" lon="6.02863">
        <ele>1956.4489746094</ele>
        <time>2017-03-25T07:43:57Z</time>
      </trkpt>
      <trkpt lat="45.22441" lon="6.0287">
        <ele>1954.4489746094</ele>
        <time>2017-03-25T07:43:59Z</time>
      </trkpt>
      <trkpt lat="45.22443" lon="6.02876">
        <ele>1956.4489746094</ele>
        <time>2017-03-25T07:44:03Z</time>
      </trkpt>
      <trkpt lat="45.22447" lon="6.02879">
        <ele>1960.4489746094</ele>
        <time>2017-03-25T07:44:12Z</time>
      </trkpt>
      <trkpt lat="45.22451" lon="6.02881">
        <ele>1962.4489746094</ele>
        <time>2017-03-25T07:44:18Z</time>
      </trkpt>
      <trkpt lat="45.22455" lon="6.02886">
        <ele>1963.4489746094</ele>
        <time>2017-03-25T07:44:24Z</time>
      </trkpt>
      <trkpt lat="45.22456" lon="6.02894">
        <ele>1963.4489746094</ele>
        <time>2017-03-25T07:44:34Z</time>
      </trkpt>
      <trkpt lat="45.22459" lon="6.029">
        <ele>1965.4489746094</ele>
        <time>2017-03-25T07:44:40Z</time>
      </trkpt>
      <trkpt lat="45.22465" lon="6.02904">
        <ele>1965.4489746094</ele>
        <time>2017-03-25T07:44:48Z</time>
      </trkpt>
      <trkpt lat="45.22469" lon="6.02907">
        <ele>1967.4489746094</ele>
        <time>2017-03-25T07:44:55Z</time>
      </trkpt>
      <trkpt lat="45.22474" lon="6.0291">
        <ele>1968.4489746094</ele>
        <time>2017-03-25T07:45:01Z</time>
      </trkpt>
      <trkpt lat="45.22478" lon="6.02911">
        <ele>1970.4489746094</ele>
        <time>2017-03-25T07:45:06Z</time>
      </trkpt>
      <trkpt lat="45.22481" lon="6.02917">
        <ele>1973.4489746094</ele>
        <time>2017-03-25T07:45:15Z</time>
      </trkpt>
      <trkpt lat="45.22476" lon="6.0292">
        <ele>1974.4489746094</ele>
        <time>2017-03-25T07:45:21Z</time>
      </trkpt>
      <trkpt lat="45.22471" lon="6.02919">
        <ele>1976.4489746094</ele>
        <time>2017-03-25T07:45:30Z</time>
      </trkpt>
      <trkpt lat="45.22466" lon="6.0292">
        <ele>1977.4489746094</ele>
        <time>2017-03-25T07:45:37Z</time>
      </trkpt>
      <trkpt lat="45.2246" lon="6.02923">
        <ele>1977.4489746094</ele>
        <time>2017-03-25T07:45:44Z</time>
      </trkpt>
      <trkpt lat="45.22456" lon="6.02927">
        <ele>1979.4489746094</ele>
        <time>2017-03-25T07:45:50Z</time>
      </trkpt>
      <trkpt lat="45.22452" lon="6.02926">
        <ele>1980.4489746094</ele>
        <time>2017-03-25T07:45:58Z</time>
      </trkpt>
      <trkpt lat="45.22448" lon="6.02934">
        <ele>1978.4489746094</ele>
        <time>2017-03-25T07:46:06Z</time>
      </trkpt>
      <trkpt lat="45.22449" lon="6.02941">
        <ele>1983.4489746094</ele>
        <time>2017-03-25T07:46:12Z</time>
      </trkpt>
      <trkpt lat="45.22448" lon="6.02949">
        <ele>1984.4489746094</ele>
        <time>2017-03-25T07:46:18Z</time>
      </trkpt>
      <trkpt lat="45.22447" lon="6.02957">
        <ele>1987.4489746094</ele>
        <time>2017-03-25T07:46:27Z</time>
      </trkpt>
      <trkpt lat="45.22446" lon="6.02964">
        <ele>1995.4489746094</ele>
        <time>2017-03-25T07:46:50Z</time>
      </trkpt>
      <trkpt lat="45.22448" lon="6.0297">
        <ele>1995.4489746094</ele>
        <time>2017-03-25T07:46:53Z</time>
      </trkpt>
      <trkpt lat="45.22445" lon="6.02975">
        <ele>1995.4489746094</ele>
        <time>2017-03-25T07:46:55Z</time>
      </trkpt>
      <trkpt lat="45.22445" lon="6.02982">
        <ele>1998.4489746094</ele>
        <time>2017-03-25T07:47:02Z</time>
      </trkpt>
      <trkpt lat="45.22444" lon="6.02989">
        <ele>1999.4489746094</ele>
        <time>2017-03-25T07:47:10Z</time>
      </trkpt>
      <trkpt lat="45.22445" lon="6.02995">
        <ele>1998.4489746094</ele>
        <time>2017-03-25T07:47:16Z</time>
      </trkpt>
      <trkpt lat="45.22442" lon="6.03001">
        <ele>1999.4489746094</ele>
        <time>2017-03-25T07:47:18Z</time>
      </trkpt>
      <trkpt lat="45.22445" lon="6.03007">
        <ele>2002.4489746094</ele>
        <time>2017-03-25T07:47:33Z</time>
      </trkpt>
      <trkpt lat="45.22445" lon="6.03015">
        <ele>2002.4489746094</ele>
        <time>2017-03-25T07:47:38Z</time>
      </trkpt>
      <trkpt lat="45.22447" lon="6.03021">
        <ele>2005.4489746094</ele>
        <time>2017-03-25T07:47:45Z</time>
      </trkpt>
      <trkpt lat="45.22445" lon="6.03029">
        <ele>2005.4489746094</ele>
        <time>2017-03-25T07:47:50Z</time>
      </trkpt>
      <trkpt lat="45.22447" lon="6.03035">
        <ele>2007.4489746094</ele>
        <time>2017-03-25T07:47:59Z</time>
      </trkpt>
      <trkpt lat="45.22446" lon="6.03043">
        <ele>2009.4489746094</ele>
        <time>2017-03-25T07:48:03Z</time>
      </trkpt>
      <trkpt lat="45.22447" lon="6.0305">
        <ele>2009.4489746094</ele>
        <time>2017-03-25T07:48:08Z</time>
      </trkpt>
      <trkpt lat="45.22451" lon="6.03054">
        <ele>2013.4489746094</ele>
        <time>2017-03-25T07:48:16Z</time>
      </trkpt>
      <trkpt lat="45.22451" lon="6.03063">
        <ele>2013.4489746094</ele>
        <time>2017-03-25T07:48:22Z</time>
      </trkpt>
      <trkpt lat="45.22454" lon="6.03067">
        <ele>2011.4489746094</ele>
        <time>2017-03-25T07:48:29Z</time>
      </trkpt>
      <trkpt lat="45.22459" lon="6.03067">
        <ele>2013.4489746094</ele>
        <time>2017-03-25T07:48:36Z</time>
      </trkpt>
      <trkpt lat="45.22461" lon="6.03073">
        <ele>2019.4489746094</ele>
        <time>2017-03-25T07:48:44Z</time>
      </trkpt>
      <trkpt lat="45.22461" lon="6.03079">
        <ele>2019.4489746094</ele>
        <time>2017-03-25T07:48:56Z</time>
      </trkpt>
      <trkpt lat="45.22464" lon="6.03085">
        <ele>2019.4489746094</ele>
        <time>2017-03-25T07:49:02Z</time>
      </trkpt>
      <trkpt lat="45.22467" lon="6.03091">
        <ele>2019.4489746094</ele>
        <time>2017-03-25T07:49:12Z</time>
      </trkpt>
      <trkpt lat="45.22472" lon="6.03093">
        <ele>2021.4489746094</ele>
        <time>2017-03-25T07:49:21Z</time>
      </trkpt>
      <trkpt lat="45.22474" lon="6.031">
        <ele>2026.4489746094</ele>
        <time>2017-03-25T07:49:27Z</time>
      </trkpt>
      <trkpt lat="45.22477" lon="6.03105">
        <ele>2027.4489746094</ele>
        <time>2017-03-25T07:49:32Z</time>
      </trkpt>
      <trkpt lat="45.2248" lon="6.03109">
        <ele>2027.4489746094</ele>
        <time>2017-03-25T07:49:38Z</time>
      </trkpt>
      <trkpt lat="45.22482" lon="6.03115">
        <ele>2030.4489746094</ele>
        <time>2017-03-25T07:49:45Z</time>
      </trkpt>
      <trkpt lat="45.22485" lon="6.03119">
        <ele>2041.4489746094</ele>
        <time>2017-03-25T07:50:16Z</time>
      </trkpt>
      <trkpt lat="45.22489" lon="6.03124">
        <ele>2042.4489746094</ele>
        <time>2017-03-25T07:50:24Z</time>
      </trkpt>
      <trkpt lat="45.22491" lon="6.0313">
        <ele>2043.4489746094</ele>
        <time>2017-03-25T07:50:29Z</time>
      </trkpt>
      <trkpt lat="45.22489" lon="6.03136">
        <ele>2045.4489746094</ele>
        <time>2017-03-25T07:50:36Z</time>
      </trkpt>
      <trkpt lat="45.22491" lon="6.03142">
        <ele>2047.4489746094</ele>
        <time>2017-03-25T07:50:42Z</time>
      </trkpt>
      <trkpt lat="45.2249" lon="6.03149">
        <ele>2047.4489746094</ele>
        <time>2017-03-25T07:50:47Z</time>
      </trkpt>
      <trkpt lat="45.22486" lon="6.03148">
        <ele>2050.4489746094</ele>
        <time>2017-03-25T07:50:56Z</time>
      </trkpt>
      <trkpt lat="45.22481" lon="6.03148">
        <ele>2052.4489746094</ele>
        <time>2017-03-25T07:51:06Z</time>
      </trkpt>
      <trkpt lat="45.22476" lon="6.03147">
        <ele>2054.4489746094</ele>
        <time>2017-03-25T07:51:19Z</time>
      </trkpt>
      <trkpt lat="45.22471" lon="6.03148">
        <ele>2052.4489746094</ele>
        <time>2017-03-25T07:51:28Z</time>
      </trkpt>
      <trkpt lat="45.22473" lon="6.03154">
        <ele>2055.4489746094</ele>
        <time>2017-03-25T07:51:49Z</time>
      </trkpt>
      <trkpt lat="45.22474" lon="6.0316">
        <ele>2056.4489746094</ele>
        <time>2017-03-25T07:51:56Z</time>
      </trkpt>
      <trkpt lat="45.22477" lon="6.03165">
        <ele>2059.4489746094</ele>
        <time>2017-03-25T07:52:02Z</time>
      </trkpt>
      <trkpt lat="45.2248" lon="6.03171">
        <ele>2061.4489746094</ele>
        <time>2017-03-25T07:52:10Z</time>
      </trkpt>
      <trkpt lat="45.22475" lon="6.03174">
        <ele>2065.4489746094</ele>
        <time>2017-03-25T07:52:28Z</time>
      </trkpt>
      <trkpt lat="45.2247" lon="6.03173">
        <ele>2067.4489746094</ele>
        <time>2017-03-25T07:52:37Z</time>
      </trkpt>
      <trkpt lat="45.2247" lon="6.0318">
        <ele>2072.4489746094</ele>
        <time>2017-03-25T07:52:51Z</time>
      </trkpt>
      <trkpt lat="45.22473" lon="6.03186">
        <ele>2080.4489746094</ele>
        <time>2017-03-25T07:54:28Z</time>
      </trkpt>
      <trkpt lat="45.22472" lon="6.03192">
        <ele>2085.4489746094</ele>
        <time>2017-03-25T07:54:40Z</time>
      </trkpt>
      <trkpt lat="45.2247" lon="6.03199">
        <ele>2088.4489746094</ele>
        <time>2017-03-25T07:54:58Z</time>
      </trkpt>
      <trkpt lat="45.22471" lon="6.03207">
        <ele>2093.4489746094</ele>
        <time>2017-03-25T07:55:10Z</time>
      </trkpt>
      <trkpt lat="45.22474" lon="6.03213">
        <ele>2098.4489746094</ele>
        <time>2017-03-25T07:55:31Z</time>
      </trkpt>
      <trkpt lat="45.22473" lon="6.03219">
        <ele>2098.4489746094</ele>
        <time>2017-03-25T07:55:44Z</time>
      </trkpt>
      <trkpt lat="45.2247" lon="6.03226">
        <ele>2100.4489746094</ele>
        <time>2017-03-25T07:55:57Z</time>
      </trkpt>
      <trkpt lat="45.22473" lon="6.03231">
        <ele>2103.4489746094</ele>
        <time>2017-03-25T07:56:12Z</time>
      </trkpt>
      <trkpt lat="45.22477" lon="6.03233">
        <ele>2107.4489746094</ele>
        <time>2017-03-25T07:56:20Z</time>
      </trkpt>
      <trkpt lat="45.22474" lon="6.03238">
        <ele>2104.4489746094</ele>
        <time>2017-03-25T07:56:24Z</time>
      </trkpt>
      <trkpt lat="45.22475" lon="6.03243">
        <ele>2107.4489746094</ele>
        <time>2017-03-25T07:56:36Z</time>
      </trkpt>
      <trkpt lat="45.22474" lon="6.0325">
        <ele>2107.4489746094</ele>
        <time>2017-03-25T07:56:51Z</time>
      </trkpt>
      <trkpt lat="45.22477" lon="6.03256">
        <ele>2105.4489746094</ele>
        <time>2017-03-25T07:57:09Z</time>
      </trkpt>
      <trkpt lat="45.22481" lon="6.0326">
        <ele>2111.4489746094</ele>
        <time>2017-03-25T07:57:22Z</time>
      </trkpt>
      <trkpt lat="45.22485" lon="6.03262">
        <ele>2118.4489746094</ele>
        <time>2017-03-25T07:57:45Z</time>
      </trkpt>
      <trkpt lat="45.22487" lon="6.03268">
        <ele>2119.4499511719</ele>
        <time>2017-03-25T07:58:15Z</time>
      </trkpt>
      <trkpt lat="45.22489" lon="6.03274">
        <ele>2130.4499511719</ele>
        <time>2017-03-25T07:58:43Z</time>
      </trkpt>
      <trkpt lat="45.22488" lon="6.03281">
        <ele>2132.4499511719</ele>
        <time>2017-03-25T07:58:55Z</time>
      </trkpt>
      <trkpt lat="45.22486" lon="6.03286">
        <ele>2135.4499511719</ele>
        <time>2017-03-25T07:59:21Z</time>
      </trkpt>
      <trkpt lat="45.22482" lon="6.03289">
        <ele>2141.4499511719</ele>
        <time>2017-03-25T07:59:46Z</time>
      </trkpt>
      <trkpt lat="45.22479" lon="6.03295">
        <ele>2143.4499511719</ele>
        <time>2017-03-25T08:00:09Z</time>
      </trkpt>
      <trkpt lat="45.2248" lon="6.03301">
        <ele>2148.4499511719</ele>
        <time>2017-03-25T08:00:29Z</time>
      </trkpt>
      <trkpt lat="45.22484" lon="6.03304">
        <ele>2153.4499511719</ele>
        <time>2017-03-25T08:00:39Z</time>
      </trkpt>
      <trkpt lat="45.22481" lon="6.03309">
        <ele>2157.4499511719</ele>
        <time>2017-03-25T08:00:59Z</time>
      </trkpt>
      <trkpt lat="45.22483" lon="6.03315">
        <ele>2160.4499511719</ele>
        <time>2017-03-25T08:01:24Z</time>
      </trkpt>
      <trkpt lat="45.22481" lon="6.03321">
        <ele>2163.4499511719</ele>
        <time>2017-03-25T08:01:38Z</time>
      </trkpt>
      <trkpt lat="45.22482" lon="6.03328">
        <ele>2165.4499511719</ele>
        <time>2017-03-25T08:01:49Z</time>
      </trkpt>
      <trkpt lat="45.2248" lon="6.03334">
        <ele>2168.4499511719</ele>
        <time>2017-03-25T08:02:14Z</time>
      </trkpt>
      <trkpt lat="45.22482" lon="6.0334">
        <ele>2175.4499511719</ele>
        <time>2017-03-25T08:02:41Z</time>
      </trkpt>
      <trkpt lat="45.22486" lon="6.03345">
        <ele>2177.4499511719</ele>
        <time>2017-03-25T08:02:51Z</time>
      </trkpt>
      <trkpt lat="45.22487" lon="6.03352">
        <ele>2183.4499511719</ele>
        <time>2017-03-25T08:03:16Z</time>
      </trkpt>
      <trkpt lat="45.22487" lon="6.03358">
        <ele>2186.4499511719</ele>
        <time>2017-03-25T08:03:33Z</time>
      </trkpt>
      <trkpt lat="45.2249" lon="6.03365">
        <ele>2195.4499511719</ele>
        <time>2017-03-25T08:03:52Z</time>
      </trkpt>
      <trkpt lat="45.22494" lon="6.03364">
        <ele>2195.4499511719</ele>
        <time>2017-03-25T08:04:04Z</time>
      </trkpt>
      <trkpt lat="45.22499" lon="6.03367">
        <ele>2199.4499511719</ele>
        <time>2017-03-25T08:12:50Z</time>
      </trkpt>
      <trkpt lat="45.22503" lon="6.03371">
        <ele>2198.4499511719</ele>
        <time>2017-03-25T08:12:54Z</time>
      </trkpt>
      <trkpt lat="45.225" lon="6.03376">
        <ele>2197.4499511719</ele>
        <time>2017-03-25T08:12:56Z</time>
      </trkpt>
      <trkpt lat="45.22498" lon="6.03382">
        <ele>2197.4499511719</ele>
        <time>2017-03-25T08:12:59Z</time>
      </trkpt>
      <trkpt lat="45.22502" lon="6.03387">
        <ele>2195.4499511719</ele>
        <time>2017-03-25T08:13:02Z</time>
      </trkpt>
      <trkpt lat="45.22508" lon="6.03392">
        <ele>2194.4499511719</ele>
        <time>2017-03-25T08:13:04Z</time>
      </trkpt>
      <trkpt lat="45.22512" lon="6.03396">
        <ele>2193.4499511719</ele>
        <time>2017-03-25T08:13:06Z</time>
      </trkpt>
      <trkpt lat="45.22507" lon="6.03398">
        <ele>2191.4499511719</ele>
        <time>2017-03-25T08:13:07Z</time>
      </trkpt>
      <trkpt lat="45.22509" lon="6.03406">
        <ele>2187.4499511719</ele>
        <time>2017-03-25T08:13:09Z</time>
      </trkpt>
      <trkpt lat="45.22517" lon="6.03404">
        <ele>2184.4499511719</ele>
        <time>2017-03-25T08:13:12Z</time>
      </trkpt>
      <trkpt lat="45.2252" lon="6.0341">
        <ele>2181.4499511719</ele>
        <time>2017-03-25T08:13:14Z</time>
      </trkpt>
      <trkpt lat="45.22515" lon="6.03415">
        <ele>2176.4499511719</ele>
        <time>2017-03-25T08:13:15Z</time>
      </trkpt>
      <trkpt lat="45.22518" lon="6.03423">
        <ele>2169.4499511719</ele>
        <time>2017-03-25T08:13:18Z</time>
      </trkpt>
      <trkpt lat="45.22526" lon="6.03422">
        <ele>2196.4499511719</ele>
        <time>2017-03-25T08:13:20Z</time>
      </trkpt>
      <trkpt lat="45.22532" lon="6.03423">
        <ele>2192.4499511719</ele>
        <time>2017-03-25T08:13:21Z</time>
      </trkpt>
      <trkpt lat="45.22538" lon="6.03426">
        <ele>2187.4499511719</ele>
        <time>2017-03-25T08:13:22Z</time>
      </trkpt>
      <trkpt lat="45.22547" lon="6.03434">
        <ele>2181.4499511719</ele>
        <time>2017-03-25T08:13:24Z</time>
      </trkpt>
      <trkpt lat="45.22555" lon="6.03444">
        <ele>2173.4499511719</ele>
        <time>2017-03-25T08:13:28Z</time>
      </trkpt>
      <trkpt lat="45.22555" lon="6.03452">
        <ele>2158.4499511719</ele>
        <time>2017-03-25T08:14:00Z</time>
      </trkpt>
      <trkpt lat="45.22552" lon="6.03456">
        <ele>2158.4499511719</ele>
        <time>2017-03-25T08:14:02Z</time>
      </trkpt>
      <trkpt lat="45.22554" lon="6.03461">
        <ele>2156.4499511719</ele>
        <time>2017-03-25T08:14:13Z</time>
      </trkpt>
      <trkpt lat="45.22558" lon="6.03467">
        <ele>2151.4499511719</ele>
        <time>2017-03-25T08:15:17Z</time>
      </trkpt>
      <trkpt lat="45.22563" lon="6.03467">
        <ele>2140.4499511719</ele>
        <time>2017-03-25T08:15:34Z</time>
      </trkpt>
      <trkpt lat="45.22565" lon="6.03476">
        <ele>2139.4499511719</ele>
        <time>2017-03-25T08:15:36Z</time>
      </trkpt>
      <trkpt lat="45.22562" lon="6.03481">
        <ele>2142.4499511719</ele>
        <time>2017-03-25T08:15:39Z</time>
      </trkpt>
      <trkpt lat="45.22556" lon="6.03483">
        <ele>2144.4499511719</ele>
        <time>2017-03-25T08:15:44Z</time>
      </trkpt>
      <trkpt lat="45.22551" lon="6.03481">
        <ele>2136.4499511719</ele>
        <time>2017-03-25T08:16:01Z</time>
      </trkpt>
      <trkpt lat="45.22553" lon="6.03487">
        <ele>2135.4499511719</ele>
        <time>2017-03-25T08:16:11Z</time>
      </trkpt>
      <trkpt lat="45.22557" lon="6.0349">
        <ele>2127.4499511719</ele>
        <time>2017-03-25T08:16:54Z</time>
      </trkpt>
      <trkpt lat="45.22561" lon="6.03496">
        <ele>2124.4499511719</ele>
        <time>2017-03-25T08:16:58Z</time>
      </trkpt>
      <trkpt lat="45.22561" lon="6.03505">
        <ele>2124.4499511719</ele>
        <time>2017-03-25T08:17:07Z</time>
      </trkpt>
      <trkpt lat="45.22562" lon="6.03512">
        <ele>2116.4499511719</ele>
        <time>2017-03-25T08:17:50Z</time>
      </trkpt>
      <trkpt lat="45.22564" lon="6.03518">
        <ele>2108.4499511719</ele>
        <time>2017-03-25T08:18:09Z</time>
      </trkpt>
      <trkpt lat="45.22565" lon="6.03525">
        <ele>2106.4499511719</ele>
        <time>2017-03-25T08:18:24Z</time>
      </trkpt>
      <trkpt lat="45.22567" lon="6.03532">
        <ele>2111.4499511719</ele>
        <time>2017-03-25T08:18:35Z</time>
      </trkpt>
      <trkpt lat="45.22571" lon="6.03535">
        <ele>2106.4499511719</ele>
        <time>2017-03-25T08:18:41Z</time>
      </trkpt>
      <trkpt lat="45.22566" lon="6.03537">
        <ele>2106.4499511719</ele>
        <time>2017-03-25T08:18:48Z</time>
      </trkpt>
      <trkpt lat="45.22565" lon="6.03544">
        <ele>2104.4499511719</ele>
        <time>2017-03-25T08:19:20Z</time>
      </trkpt>
      <trkpt lat="45.22563" lon="6.03537">
        <ele>2103.4499511719</ele>
        <time>2017-03-25T08:19:39Z</time>
      </trkpt>
      <trkpt lat="45.22559" lon="6.03532">
        <ele>2103.4499511719</ele>
        <time>2017-03-25T08:19:44Z</time>
      </trkpt>
      <trkpt lat="45.22554" lon="6.03529">
        <ele>2106.4499511719</ele>
        <time>2017-03-25T08:19:55Z</time>
      </trkpt>
      <trkpt lat="45.22552" lon="6.03523">
        <ele>2104.4499511719</ele>
        <time>2017-03-25T08:20:03Z</time>
      </trkpt>
      <trkpt lat="45.22549" lon="6.03518">
        <ele>2104.4499511719</ele>
        <time>2017-03-25T08:20:12Z</time>
      </trkpt>
      <trkpt lat="45.22544" lon="6.03519">
        <ele>2099.4499511719</ele>
        <time>2017-03-25T08:20:38Z</time>
      </trkpt>
      <trkpt lat="45.22543" lon="6.03526">
        <ele>2099.4499511719</ele>
        <time>2017-03-25T08:20:47Z</time>
      </trkpt>
      <trkpt lat="45.22539" lon="6.03523">
        <ele>2095.4499511719</ele>
        <time>2017-03-25T08:21:04Z</time>
      </trkpt>
      <trkpt lat="45.22535" lon="6.03521">
        <ele>2095.4499511719</ele>
        <time>2017-03-25T08:21:11Z</time>
      </trkpt>
      <trkpt lat="45.22531" lon="6.03517">
        <ele>2091.4499511719</ele>
        <time>2017-03-25T08:21:29Z</time>
      </trkpt>
      <trkpt lat="45.22528" lon="6.03511">
        <ele>2087.4499511719</ele>
        <time>2017-03-25T08:21:39Z</time>
      </trkpt>
      <trkpt lat="45.22523" lon="6.03515">
        <ele>2080.4499511719</ele>
        <time>2017-03-25T08:23:14Z</time>
      </trkpt>
      <trkpt lat="45.22519" lon="6.03521">
        <ele>2077.4499511719</ele>
        <time>2017-03-25T08:23:17Z</time>
      </trkpt>
      <trkpt lat="45.22519" lon="6.03528">
        <ele>2072.4499511719</ele>
        <time>2017-03-25T08:23:23Z</time>
      </trkpt>
      <trkpt lat="45.22514" lon="6.03531">
        <ele>2072.4499511719</ele>
        <time>2017-03-25T08:23:26Z</time>
      </trkpt>
      <trkpt lat="45.22511" lon="6.03542">
        <ele>2072.4499511719</ele>
        <time>2017-03-25T08:23:28Z</time>
      </trkpt>
      <trkpt lat="45.22505" lon="6.03544">
        <ele>2068.4499511719</ele>
        <time>2017-03-25T08:23:35Z</time>
      </trkpt>
      <trkpt lat="45.225" lon="6.03552">
        <ele>2062.4499511719</ele>
        <time>2017-03-25T08:23:42Z</time>
      </trkpt>
      <trkpt lat="45.22496" lon="6.03559">
        <ele>2058.4499511719</ele>
        <time>2017-03-25T08:23:45Z</time>
      </trkpt>
      <trkpt lat="45.22499" lon="6.03564">
        <ele>2055.4499511719</ele>
        <time>2017-03-25T08:23:47Z</time>
      </trkpt>
      <trkpt lat="45.22496" lon="6.03569">
        <ele>2054.4499511719</ele>
        <time>2017-03-25T08:24:15Z</time>
      </trkpt>
      <trkpt lat="45.2249" lon="6.03569">
        <ele>2048.4499511719</ele>
        <time>2017-03-25T08:24:19Z</time>
      </trkpt>
      <trkpt lat="45.22487" lon="6.03561">
        <ele>2044.4499511719</ele>
        <time>2017-03-25T08:24:21Z</time>
      </trkpt>
      <trkpt lat="45.22482" lon="6.03557">
        <ele>2046.4499511719</ele>
        <time>2017-03-25T08:24:35Z</time>
      </trkpt>
      <trkpt lat="45.22477" lon="6.0355">
        <ele>2043.4499511719</ele>
        <time>2017-03-25T08:24:38Z</time>
      </trkpt>
      <trkpt lat="45.22472" lon="6.03545">
        <ele>2041.4499511719</ele>
        <time>2017-03-25T08:24:40Z</time>
      </trkpt>
      <trkpt lat="45.22465" lon="6.03539">
        <ele>2037.4499511719</ele>
        <time>2017-03-25T08:24:42Z</time>
      </trkpt>
      <trkpt lat="45.22457" lon="6.03532">
        <ele>2035.4499511719</ele>
        <time>2017-03-25T08:24:44Z</time>
      </trkpt>
      <trkpt lat="45.22451" lon="6.03526">
        <ele>2032.4499511719</ele>
        <time>2017-03-25T08:24:46Z</time>
      </trkpt>
      <trkpt lat="45.22446" lon="6.03522">
        <ele>2029.4499511719</ele>
        <time>2017-03-25T08:24:49Z</time>
      </trkpt>
      <trkpt lat="45.22441" lon="6.03526">
        <ele>2028.4499511719</ele>
        <time>2017-03-25T08:24:55Z</time>
      </trkpt>
      <trkpt lat="45.22435" lon="6.03522">
        <ele>2028.4499511719</ele>
        <time>2017-03-25T08:24:58Z</time>
      </trkpt>
      <trkpt lat="45.22431" lon="6.03525">
        <ele>2026.4499511719</ele>
        <time>2017-03-25T08:25:01Z</time>
      </trkpt>
      <trkpt lat="45.22427" lon="6.0353">
        <ele>2022.4499511719</ele>
        <time>2017-03-25T08:25:06Z</time>
      </trkpt>
      <trkpt lat="45.22414" lon="6.0353">
        <ele>2024.4499511719</ele>
        <time>2017-03-25T08:25:09Z</time>
      </trkpt>
      <trkpt lat="45.22408" lon="6.03531">
        <ele>2024.4499511719</ele>
        <time>2017-03-25T08:25:11Z</time>
      </trkpt>
      <trkpt lat="45.22404" lon="6.03534">
        <ele>2026.4499511719</ele>
        <time>2017-03-25T08:25:16Z</time>
      </trkpt>
      <trkpt lat="45.22402" lon="6.03546">
        <ele>2017.4499511719</ele>
        <time>2017-03-25T08:25:21Z</time>
      </trkpt>
      <trkpt lat="45.22408" lon="6.03553">
        <ele>2007.4499511719</ele>
        <time>2017-03-25T08:25:25Z</time>
      </trkpt>
      <trkpt lat="45.22409" lon="6.03569">
        <ele>2007.4499511719</ele>
        <time>2017-03-25T08:25:28Z</time>
      </trkpt>
      <trkpt lat="45.22403" lon="6.0357">
        <ele>2005.4499511719</ele>
        <time>2017-03-25T08:25:30Z</time>
      </trkpt>
      <trkpt lat="45.22398" lon="6.03566">
        <ele>2000.4499511719</ele>
        <time>2017-03-25T08:25:32Z</time>
      </trkpt>
      <trkpt lat="45.22391" lon="6.03564">
        <ele>1998.4499511719</ele>
        <time>2017-03-25T08:25:35Z</time>
      </trkpt>
      <trkpt lat="45.22386" lon="6.03564">
        <ele>1998.4499511719</ele>
        <time>2017-03-25T08:25:37Z</time>
      </trkpt>
      <trkpt lat="45.22389" lon="6.0357">
        <ele>1997.4499511719</ele>
        <time>2017-03-25T08:25:39Z</time>
      </trkpt>
      <trkpt lat="45.22393" lon="6.03577">
        <ele>1995.4499511719</ele>
        <time>2017-03-25T08:25:41Z</time>
      </trkpt>
      <trkpt lat="45.22397" lon="6.03585">
        <ele>1993.4499511719</ele>
        <time>2017-03-25T08:25:43Z</time>
      </trkpt>
      <trkpt lat="45.22392" lon="6.03596">
        <ele>1985.4499511719</ele>
        <time>2017-03-25T08:25:46Z</time>
      </trkpt>
      <trkpt lat="45.22396" lon="6.03603">
        <ele>1980.4499511719</ele>
        <time>2017-03-25T08:25:48Z</time>
      </trkpt>
      <trkpt lat="45.22392" lon="6.03608">
        <ele>1979.4499511719</ele>
        <time>2017-03-25T08:25:56Z</time>
      </trkpt>
      <trkpt lat="45.22389" lon="6.03614">
        <ele>1978.4499511719</ele>
        <time>2017-03-25T08:25:59Z</time>
      </trkpt>
      <trkpt lat="45.2239" lon="6.0362">
        <ele>1974.4499511719</ele>
        <time>2017-03-25T08:26:03Z</time>
      </trkpt>
      <trkpt lat="45.22394" lon="6.03626">
        <ele>1972.4499511719</ele>
        <time>2017-03-25T08:26:05Z</time>
      </trkpt>
      <trkpt lat="45.22396" lon="6.03632">
        <ele>1970.4499511719</ele>
        <time>2017-03-25T08:26:07Z</time>
      </trkpt>
      <trkpt lat="45.22399" lon="6.03637">
        <ele>1968.4499511719</ele>
        <time>2017-03-25T08:26:09Z</time>
      </trkpt>
      <trkpt lat="45.22401" lon="6.03646">
        <ele>1966.4499511719</ele>
        <time>2017-03-25T08:26:11Z</time>
      </trkpt>
      <trkpt lat="45.22396" lon="6.0365">
        <ele>1964.4499511719</ele>
        <time>2017-03-25T08:26:13Z</time>
      </trkpt>
      <trkpt lat="45.22389" lon="6.03648">
        <ele>1960.4499511719</ele>
        <time>2017-03-25T08:26:15Z</time>
      </trkpt>
      <trkpt lat="45.22384" lon="6.03653">
        <ele>1956.4499511719</ele>
        <time>2017-03-25T08:26:17Z</time>
      </trkpt>
      <trkpt lat="45.22377" lon="6.03666">
        <ele>1953.4499511719</ele>
        <time>2017-03-25T08:26:19Z</time>
      </trkpt>
      <trkpt lat="45.22375" lon="6.03672">
        <ele>1950.4499511719</ele>
        <time>2017-03-25T08:26:20Z</time>
      </trkpt>
      <trkpt lat="45.22371" lon="6.03687">
        <ele>1941.4499511719</ele>
        <time>2017-03-25T08:27:02Z</time>
      </trkpt>
      <trkpt lat="45.22372" lon="6.03694">
        <ele>1938.4499511719</ele>
        <time>2017-03-25T08:27:05Z</time>
      </trkpt>
      <trkpt lat="45.22376" lon="6.03704">
        <ele>1938.4499511719</ele>
        <time>2017-03-25T08:27:07Z</time>
      </trkpt>
      <trkpt lat="45.22376" lon="6.0371">
        <ele>1935.4499511719</ele>
        <time>2017-03-25T08:27:09Z</time>
      </trkpt>
      <trkpt lat="45.22369" lon="6.03713">
        <ele>1932.4499511719</ele>
        <time>2017-03-25T08:27:11Z</time>
      </trkpt>
      <trkpt lat="45.22362" lon="6.03726">
        <ele>1929.4499511719</ele>
        <time>2017-03-25T08:27:14Z</time>
      </trkpt>
      <trkpt lat="45.22356" lon="6.03722">
        <ele>1926.4499511719</ele>
        <time>2017-03-25T08:27:15Z</time>
      </trkpt>
      <trkpt lat="45.22348" lon="6.03729">
        <ele>1919.4499511719</ele>
        <time>2017-03-25T08:27:17Z</time>
      </trkpt>
      <trkpt lat="45.22341" lon="6.03736">
        <ele>1915.4499511719</ele>
        <time>2017-03-25T08:27:19Z</time>
      </trkpt>
      <trkpt lat="45.22341" lon="6.03743">
        <ele>1909.4499511719</ele>
        <time>2017-03-25T08:27:20Z</time>
      </trkpt>
      <trkpt lat="45.22345" lon="6.03756">
        <ele>1904.4499511719</ele>
        <time>2017-03-25T08:27:22Z</time>
      </trkpt>
      <trkpt lat="45.22342" lon="6.03769">
        <ele>1902.4499511719</ele>
        <time>2017-03-25T08:27:24Z</time>
      </trkpt>
      <trkpt lat="45.22339" lon="6.03774">
        <ele>1899.4499511719</ele>
        <time>2017-03-25T08:27:26Z</time>
      </trkpt>
      <trkpt lat="45.22333" lon="6.03774">
        <ele>1894.4499511719</ele>
        <time>2017-03-25T08:27:27Z</time>
      </trkpt>
      <trkpt lat="45.22327" lon="6.03784">
        <ele>1889.4499511719</ele>
        <time>2017-03-25T08:27:29Z</time>
      </trkpt>
      <trkpt lat="45.22326" lon="6.03794">
        <ele>1878.4499511719</ele>
        <time>2017-03-25T08:27:31Z</time>
      </trkpt>
      <trkpt lat="45.22319" lon="6.03796">
        <ele>1873.4499511719</ele>
        <time>2017-03-25T08:27:33Z</time>
      </trkpt>
      <trkpt lat="45.22319" lon="6.03808">
        <ele>1866.4499511719</ele>
        <time>2017-03-25T08:27:35Z</time>
      </trkpt>
      <trkpt lat="45.22322" lon="6.03821">
        <ele>1862.4499511719</ele>
        <time>2017-03-25T08:27:37Z</time>
      </trkpt>
      <trkpt lat="45.22323" lon="6.03841">
        <ele>1852.4499511719</ele>
        <time>2017-03-25T08:27:39Z</time>
      </trkpt>
      <trkpt lat="45.2233" lon="6.03854">
        <ele>1852.4499511719</ele>
        <time>2017-03-25T08:27:42Z</time>
      </trkpt>
      <trkpt lat="45.22333" lon="6.03862">
        <ele>1847.4499511719</ele>
        <time>2017-03-25T08:27:44Z</time>
      </trkpt>
      <trkpt lat="45.22336" lon="6.03872">
        <ele>1844.4499511719</ele>
        <time>2017-03-25T08:27:46Z</time>
      </trkpt>
      <trkpt lat="45.22338" lon="6.03878">
        <ele>1842.4499511719</ele>
        <time>2017-03-25T08:27:48Z</time>
      </trkpt>
      <trkpt lat="45.22342" lon="6.03886">
        <ele>1839.4499511719</ele>
        <time>2017-03-25T08:27:50Z</time>
      </trkpt>
      <trkpt lat="45.22345" lon="6.03899">
        <ele>1846.4499511719</ele>
        <time>2017-03-25T08:27:52Z</time>
      </trkpt>
      <trkpt lat="45.22348" lon="6.03908">
        <ele>1842.4499511719</ele>
        <time>2017-03-25T08:27:54Z</time>
      </trkpt>
      <trkpt lat="45.2235" lon="6.03915">
        <ele>1837.4499511719</ele>
        <time>2017-03-25T08:27:57Z</time>
      </trkpt>
      <trkpt lat="45.22352" lon="6.03923">
        <ele>1834.4499511719</ele>
        <time>2017-03-25T08:28:00Z</time>
      </trkpt>
      <trkpt lat="45.22353" lon="6.03929">
        <ele>1833.4499511719</ele>
        <time>2017-03-25T08:28:02Z</time>
      </trkpt>
      <trkpt lat="45.22354" lon="6.03939">
        <ele>1833.4499511719</ele>
        <time>2017-03-25T08:28:04Z</time>
      </trkpt>
      <trkpt lat="45.22354" lon="6.03947">
        <ele>1831.4499511719</ele>
        <time>2017-03-25T08:28:06Z</time>
      </trkpt>
      <trkpt lat="45.22355" lon="6.03954">
        <ele>1830.4499511719</ele>
        <time>2017-03-25T08:28:08Z</time>
      </trkpt>
      <trkpt lat="45.22356" lon="6.0396">
        <ele>1830.4499511719</ele>
        <time>2017-03-25T08:28:11Z</time>
      </trkpt>
      <trkpt lat="45.2236" lon="6.03962">
        <ele>1830.4499511719</ele>
        <time>2017-03-25T08:33:14Z</time>
      </trkpt>
      <trkpt lat="45.22365" lon="6.03964">
        <ele>1828.4499511719</ele>
        <time>2017-03-25T08:33:17Z</time>
      </trkpt>
      <trkpt lat="45.22369" lon="6.03968">
        <ele>1833.4499511719</ele>
        <time>2017-03-25T08:33:29Z</time>
      </trkpt>
      <trkpt lat="45.22374" lon="6.0397">
        <ele>1832.4499511719</ele>
        <time>2017-03-25T08:33:36Z</time>
      </trkpt>
      <trkpt lat="45.2238" lon="6.0397">
        <ele>1831.4499511719</ele>
        <time>2017-03-25T08:33:46Z</time>
      </trkpt>
      <trkpt lat="45.22384" lon="6.03971">
        <ele>1836.4499511719</ele>
        <time>2017-03-25T08:34:11Z</time>
      </trkpt>
      <trkpt lat="45.22387" lon="6.03978">
        <ele>1840.4499511719</ele>
        <time>2017-03-25T08:34:32Z</time>
      </trkpt>
      <trkpt lat="45.2239" lon="6.03983">
        <ele>1842.4499511719</ele>
        <time>2017-03-25T08:34:41Z</time>
      </trkpt>
      <trkpt lat="45.22395" lon="6.03982">
        <ele>1844.4499511719</ele>
        <time>2017-03-25T08:35:02Z</time>
      </trkpt>
      <trkpt lat="45.224" lon="6.0398">
        <ele>1844.4499511719</ele>
        <time>2017-03-25T08:35:08Z</time>
      </trkpt>
      <trkpt lat="45.22406" lon="6.03982">
        <ele>1847.4499511719</ele>
        <time>2017-03-25T08:35:16Z</time>
      </trkpt>
      <trkpt lat="45.22405" lon="6.03976">
        <ele>1854.4499511719</ele>
        <time>2017-03-25T08:35:24Z</time>
      </trkpt>
      <trkpt lat="45.2241" lon="6.03973">
        <ele>1856.4499511719</ele>
        <time>2017-03-25T08:35:31Z</time>
      </trkpt>
      <trkpt lat="45.22415" lon="6.03973">
        <ele>1854.4499511719</ele>
        <time>2017-03-25T08:35:36Z</time>
      </trkpt>
      <trkpt lat="45.22417" lon="6.03981">
        <ele>1855.4499511719</ele>
        <time>2017-03-25T08:35:43Z</time>
      </trkpt>
      <trkpt lat="45.2242" lon="6.03986">
        <ele>1854.4499511719</ele>
        <time>2017-03-25T08:35:51Z</time>
      </trkpt>
      <trkpt lat="45.22424" lon="6.0399">
        <ele>1858.4499511719</ele>
        <time>2017-03-25T08:36:08Z</time>
      </trkpt>
      <trkpt lat="45.22429" lon="6.03987">
        <ele>1856.4499511719</ele>
        <time>2017-03-25T08:36:20Z</time>
      </trkpt>
      <trkpt lat="45.22434" lon="6.03986">
        <ele>1858.4499511719</ele>
        <time>2017-03-25T08:36:27Z</time>
      </trkpt>
      <trkpt lat="45.22438" lon="6.03982">
        <ele>1859.4499511719</ele>
        <time>2017-03-25T08:36:31Z</time>
      </trkpt>
      <trkpt lat="45.2244" lon="6.0399">
        <ele>1862.4499511719</ele>
        <time>2017-03-25T08:36:53Z</time>
      </trkpt>
      <trkpt lat="45.22439" lon="6.03996">
        <ele>1865.4499511719</ele>
        <time>2017-03-25T08:37:00Z</time>
      </trkpt>
      <trkpt lat="45.22442" lon="6.04001">
        <ele>1872.4499511719</ele>
        <time>2017-03-25T08:37:26Z</time>
      </trkpt>
      <trkpt lat="45.22445" lon="6.04007">
        <ele>1872.4499511719</ele>
        <time>2017-03-25T08:37:33Z</time>
      </trkpt>
      <trkpt lat="45.2245" lon="6.04009">
        <ele>1872.4499511719</ele>
        <time>2017-03-25T08:37:43Z</time>
      </trkpt>
      <trkpt lat="45.22454" lon="6.04007">
        <ele>1870.4499511719</ele>
        <time>2017-03-25T08:37:51Z</time>
      </trkpt>
      <trkpt lat="45.22458" lon="6.04001">
        <ele>1870.4499511719</ele>
        <time>2017-03-25T08:37:56Z</time>
      </trkpt>
      <trkpt lat="45.22461" lon="6.04006">
        <ele>1872.4499511719</ele>
        <time>2017-03-25T08:40:23Z</time>
      </trkpt>
      <trkpt lat="45.22463" lon="6.04012">
        <ele>1874.4499511719</ele>
        <time>2017-03-25T08:40:29Z</time>
      </trkpt>
      <trkpt lat="45.22466" lon="6.04017">
        <ele>1874.4510498047</ele>
        <time>2017-03-25T08:40:35Z</time>
      </trkpt>
      <trkpt lat="45.22468" lon="6.04023">
        <ele>1878.4510498047</ele>
        <time>2017-03-25T08:40:40Z</time>
      </trkpt>
      <trkpt lat="45.22468" lon="6.0403">
        <ele>1884.4510498047</ele>
        <time>2017-03-25T08:40:46Z</time>
      </trkpt>
      <trkpt lat="45.22472" lon="6.04034">
        <ele>1883.4510498047</ele>
        <time>2017-03-25T08:40:53Z</time>
      </trkpt>
      <trkpt lat="45.22476" lon="6.04031">
        <ele>1882.4510498047</ele>
        <time>2017-03-25T08:41:01Z</time>
      </trkpt>
      <trkpt lat="45.22479" lon="6.04025">
        <ele>1887.4510498047</ele>
        <time>2017-03-25T08:41:11Z</time>
      </trkpt>
      <trkpt lat="45.22482" lon="6.0403">
        <ele>1887.4510498047</ele>
        <time>2017-03-25T08:41:21Z</time>
      </trkpt>
      <trkpt lat="45.22486" lon="6.04034">
        <ele>1890.4510498047</ele>
        <time>2017-03-25T08:41:30Z</time>
      </trkpt>
      <trkpt lat="45.22487" lon="6.04042">
        <ele>1892.4510498047</ele>
        <time>2017-03-25T08:41:36Z</time>
      </trkpt>
      <trkpt lat="45.22491" lon="6.04038">
        <ele>1892.4510498047</ele>
        <time>2017-03-25T08:41:45Z</time>
      </trkpt>
      <trkpt lat="45.22495" lon="6.04033">
        <ele>1896.4510498047</ele>
        <time>2017-03-25T08:41:50Z</time>
      </trkpt>
      <trkpt lat="45.225" lon="6.04029">
        <ele>1896.4510498047</ele>
        <time>2017-03-25T08:41:56Z</time>
      </trkpt>
      <trkpt lat="45.22504" lon="6.04024">
        <ele>1897.4510498047</ele>
        <time>2017-03-25T08:42:02Z</time>
      </trkpt>
      <trkpt lat="45.22509" lon="6.0402">
        <ele>1896.4510498047</ele>
        <time>2017-03-25T08:42:10Z</time>
      </trkpt>
      <trkpt lat="45.22513" lon="6.04015">
        <ele>1895.4510498047</ele>
        <time>2017-03-25T08:42:14Z</time>
      </trkpt>
      <trkpt lat="45.22515" lon="6.04009">
        <ele>1902.4510498047</ele>
        <time>2017-03-25T08:42:25Z</time>
      </trkpt>
      <trkpt lat="45.22519" lon="6.04004">
        <ele>1904.4510498047</ele>
        <time>2017-03-25T08:42:31Z</time>
      </trkpt>
      <trkpt lat="45.22523" lon="6.04009">
        <ele>1907.4510498047</ele>
        <time>2017-03-25T08:42:46Z</time>
      </trkpt>
      <trkpt lat="45.22525" lon="6.04015">
        <ele>1909.4510498047</ele>
        <time>2017-03-25T08:43:00Z</time>
      </trkpt>
      <trkpt lat="45.22528" lon="6.0402">
        <ele>1910.4510498047</ele>
        <time>2017-03-25T08:43:09Z</time>
      </trkpt>
      <trkpt lat="45.2253" lon="6.04026">
        <ele>1913.4510498047</ele>
        <time>2017-03-25T08:43:25Z</time>
      </trkpt>
      <trkpt lat="45.22532" lon="6.04033">
        <ele>1916.4510498047</ele>
        <time>2017-03-25T08:43:30Z</time>
      </trkpt>
      <trkpt lat="45.22533" lon="6.0404">
        <ele>1918.4510498047</ele>
        <time>2017-03-25T08:43:38Z</time>
      </trkpt>
      <trkpt lat="45.22534" lon="6.04046">
        <ele>1919.4510498047</ele>
        <time>2017-03-25T08:43:47Z</time>
      </trkpt>
      <trkpt lat="45.22536" lon="6.04052">
        <ele>1922.4510498047</ele>
        <time>2017-03-25T08:43:55Z</time>
      </trkpt>
      <trkpt lat="45.2254" lon="6.04048">
        <ele>1920.4510498047</ele>
        <time>2017-03-25T08:44:19Z</time>
      </trkpt>
      <trkpt lat="45.22544" lon="6.04045">
        <ele>1920.4510498047</ele>
        <time>2017-03-25T08:44:24Z</time>
      </trkpt>
      <trkpt lat="45.22548" lon="6.0404">
        <ele>1923.4510498047</ele>
        <time>2017-03-25T08:44:33Z</time>
      </trkpt>
      <trkpt lat="45.22552" lon="6.04037">
        <ele>1922.4510498047</ele>
        <time>2017-03-25T08:44:35Z</time>
      </trkpt>
      <trkpt lat="45.22558" lon="6.04033">
        <ele>1922.4510498047</ele>
        <time>2017-03-25T08:44:38Z</time>
      </trkpt>
      <trkpt lat="45.22555" lon="6.04038">
        <ele>1927.4510498047</ele>
        <time>2017-03-25T08:44:44Z</time>
      </trkpt>
      <trkpt lat="45.22556" lon="6.04046">
        <ele>1931.4510498047</ele>
        <time>2017-03-25T08:44:54Z</time>
      </trkpt>
      <trkpt lat="45.22556" lon="6.04053">
        <ele>1935.4510498047</ele>
        <time>2017-03-25T08:45:04Z</time>
      </trkpt>
      <trkpt lat="45.22558" lon="6.04059">
        <ele>1939.4510498047</ele>
        <time>2017-03-25T08:45:12Z</time>
      </trkpt>
      <trkpt lat="45.22563" lon="6.04056">
        <ele>1939.4510498047</ele>
        <time>2017-03-25T08:45:19Z</time>
      </trkpt>
      <trkpt lat="45.22568" lon="6.04052">
        <ele>1938.4510498047</ele>
        <time>2017-03-25T08:45:24Z</time>
      </trkpt>
      <trkpt lat="45.22572" lon="6.04055">
        <ele>1940.4510498047</ele>
        <time>2017-03-25T08:45:35Z</time>
      </trkpt>
      <trkpt lat="45.22572" lon="6.04061">
        <ele>1942.4510498047</ele>
        <time>2017-03-25T08:45:44Z</time>
      </trkpt>
      <trkpt lat="45.22575" lon="6.04068">
        <ele>1940.4510498047</ele>
        <time>2017-03-25T08:45:52Z</time>
      </trkpt>
      <trkpt lat="45.22577" lon="6.04074">
        <ele>1940.4510498047</ele>
        <time>2017-03-25T08:45:59Z</time>
      </trkpt>
      <trkpt lat="45.22576" lon="6.04082">
        <ele>1946.4510498047</ele>
        <time>2017-03-25T08:46:05Z</time>
      </trkpt>
      <trkpt lat="45.22581" lon="6.04078">
        <ele>1951.4510498047</ele>
        <time>2017-03-25T08:46:17Z</time>
      </trkpt>
      <trkpt lat="45.22585" lon="6.04073">
        <ele>1951.4510498047</ele>
        <time>2017-03-25T08:46:22Z</time>
      </trkpt>
      <trkpt lat="45.22587" lon="6.04081">
        <ele>1955.4510498047</ele>
        <time>2017-03-25T08:46:36Z</time>
      </trkpt>
      <trkpt lat="45.22592" lon="6.0408">
        <ele>1955.4510498047</ele>
        <time>2017-03-25T08:46:49Z</time>
      </trkpt>
      <trkpt lat="45.22595" lon="6.04075">
        <ele>1958.4510498047</ele>
        <time>2017-03-25T08:46:56Z</time>
      </trkpt>
      <trkpt lat="45.22597" lon="6.04081">
        <ele>1963.4510498047</ele>
        <time>2017-03-25T08:47:08Z</time>
      </trkpt>
      <trkpt lat="45.22597" lon="6.04088">
        <ele>1963.4510498047</ele>
        <time>2017-03-25T08:47:16Z</time>
      </trkpt>
      <trkpt lat="45.22599" lon="6.04095">
        <ele>1965.4510498047</ele>
        <time>2017-03-25T08:47:22Z</time>
      </trkpt>
      <trkpt lat="45.22605" lon="6.04095">
        <ele>1964.4510498047</ele>
        <time>2017-03-25T08:47:30Z</time>
      </trkpt>
      <trkpt lat="45.22609" lon="6.04092">
        <ele>1966.4510498047</ele>
        <time>2017-03-25T08:47:35Z</time>
      </trkpt>
      <trkpt lat="45.22614" lon="6.04091">
        <ele>1973.4510498047</ele>
        <time>2017-03-25T08:47:58Z</time>
      </trkpt>
      <trkpt lat="45.22618" lon="6.04096">
        <ele>1979.4510498047</ele>
        <time>2017-03-25T08:48:09Z</time>
      </trkpt>
      <trkpt lat="45.22618" lon="6.04103">
        <ele>1980.4510498047</ele>
        <time>2017-03-25T08:48:16Z</time>
      </trkpt>
      <trkpt lat="45.22624" lon="6.04102">
        <ele>1980.4510498047</ele>
        <time>2017-03-25T08:48:33Z</time>
      </trkpt>
      <trkpt lat="45.22629" lon="6.04098">
        <ele>1979.4510498047</ele>
        <time>2017-03-25T08:48:45Z</time>
      </trkpt>
      <trkpt lat="45.22634" lon="6.04094">
        <ele>1979.4510498047</ele>
        <time>2017-03-25T08:48:51Z</time>
      </trkpt>
      <trkpt lat="45.22638" lon="6.04094">
        <ele>1980.4510498047</ele>
        <time>2017-03-25T08:48:59Z</time>
      </trkpt>
      <trkpt lat="45.22639" lon="6.04101">
        <ele>1982.4510498047</ele>
        <time>2017-03-25T08:49:03Z</time>
      </trkpt>
      <trkpt lat="45.22635" lon="6.04108">
        <ele>1984.4510498047</ele>
        <time>2017-03-25T08:49:08Z</time>
      </trkpt>
      <trkpt lat="45.22634" lon="6.04114">
        <ele>1987.4510498047</ele>
        <time>2017-03-25T08:49:23Z</time>
      </trkpt>
      <trkpt lat="45.2263" lon="6.04119">
        <ele>1997.4510498047</ele>
        <time>2017-03-25T08:49:32Z</time>
      </trkpt>
      <trkpt lat="45.22635" lon="6.0412">
        <ele>1995.4510498047</ele>
        <time>2017-03-25T08:49:35Z</time>
      </trkpt>
      <trkpt lat="45.2264" lon="6.04118">
        <ele>1997.4510498047</ele>
        <time>2017-03-25T08:49:40Z</time>
      </trkpt>
      <trkpt lat="45.22644" lon="6.04116">
        <ele>1997.4510498047</ele>
        <time>2017-03-25T08:49:46Z</time>
      </trkpt>
      <trkpt lat="45.22649" lon="6.04116">
        <ele>1999.4510498047</ele>
        <time>2017-03-25T08:49:54Z</time>
      </trkpt>
      <trkpt lat="45.22654" lon="6.04115">
        <ele>1998.4510498047</ele>
        <time>2017-03-25T08:49:59Z</time>
      </trkpt>
      <trkpt lat="45.22659" lon="6.04114">
        <ele>1995.4510498047</ele>
        <time>2017-03-25T08:50:07Z</time>
      </trkpt>
      <trkpt lat="45.22664" lon="6.04111">
        <ele>1995.4510498047</ele>
        <time>2017-03-25T08:50:16Z</time>
      </trkpt>
      <trkpt lat="45.22668" lon="6.04106">
        <ele>1998.4510498047</ele>
        <time>2017-03-25T08:50:21Z</time>
      </trkpt>
      <trkpt lat="45.2267" lon="6.04101">
        <ele>2001.4510498047</ele>
        <time>2017-03-25T08:50:32Z</time>
      </trkpt>
      <trkpt lat="45.22672" lon="6.04107">
        <ele>2006.4510498047</ele>
        <time>2017-03-25T08:50:52Z</time>
      </trkpt>
      <trkpt lat="45.22674" lon="6.04113">
        <ele>2007.4510498047</ele>
        <time>2017-03-25T08:51:02Z</time>
      </trkpt>
      <trkpt lat="45.22679" lon="6.04112">
        <ele>2012.4510498047</ele>
        <time>2017-03-25T08:51:19Z</time>
      </trkpt>
      <trkpt lat="45.22683" lon="6.04108">
        <ele>2012.4510498047</ele>
        <time>2017-03-25T08:51:28Z</time>
      </trkpt>
      <trkpt lat="45.22686" lon="6.04114">
        <ele>2017.4510498047</ele>
        <time>2017-03-25T08:51:41Z</time>
      </trkpt>
      <trkpt lat="45.22687" lon="6.0412">
        <ele>2023.4510498047</ele>
        <time>2017-03-25T08:51:47Z</time>
      </trkpt>
      <trkpt lat="45.22685" lon="6.04126">
        <ele>2026.4510498047</ele>
        <time>2017-03-25T08:51:53Z</time>
      </trkpt>
      <trkpt lat="45.22689" lon="6.04129">
        <ele>2025.4510498047</ele>
        <time>2017-03-25T08:52:04Z</time>
      </trkpt>
      <trkpt lat="45.22694" lon="6.04124">
        <ele>2025.4510498047</ele>
        <time>2017-03-25T08:52:10Z</time>
      </trkpt>
      <trkpt lat="45.22697" lon="6.04119">
        <ele>2024.4510498047</ele>
        <time>2017-03-25T08:52:16Z</time>
      </trkpt>
      <trkpt lat="45.22701" lon="6.04111">
        <ele>2027.4510498047</ele>
        <time>2017-03-25T08:52:34Z</time>
      </trkpt>
      <trkpt lat="45.22704" lon="6.04106">
        <ele>2030.4510498047</ele>
        <time>2017-03-25T08:52:42Z</time>
      </trkpt>
      <trkpt lat="45.22707" lon="6.04112">
        <ele>2031.4510498047</ele>
        <time>2017-03-25T08:52:49Z</time>
      </trkpt>
      <trkpt lat="45.22708" lon="6.04119">
        <ele>2034.4510498047</ele>
        <time>2017-03-25T08:52:56Z</time>
      </trkpt>
      <trkpt lat="45.22709" lon="6.04125">
        <ele>2036.4510498047</ele>
        <time>2017-03-25T08:53:03Z</time>
      </trkpt>
      <trkpt lat="45.22709" lon="6.04131">
        <ele>2036.4510498047</ele>
        <time>2017-03-25T08:53:09Z</time>
      </trkpt>
      <trkpt lat="45.22713" lon="6.04131">
        <ele>2037.4510498047</ele>
        <time>2017-03-25T08:55:28Z</time>
      </trkpt>
      <trkpt lat="45.22718" lon="6.0413">
        <ele>2033.4510498047</ele>
        <time>2017-03-25T08:55:38Z</time>
      </trkpt>
      <trkpt lat="45.22722" lon="6.04124">
        <ele>2037.4510498047</ele>
        <time>2017-03-25T08:55:46Z</time>
      </trkpt>
      <trkpt lat="45.22724" lon="6.04117">
        <ele>2042.4510498047</ele>
        <time>2017-03-25T08:55:53Z</time>
      </trkpt>
      <trkpt lat="45.22726" lon="6.04111">
        <ele>2047.4510498047</ele>
        <time>2017-03-25T08:56:01Z</time>
      </trkpt>
      <trkpt lat="45.22729" lon="6.04107">
        <ele>2050.4509277344</ele>
        <time>2017-03-25T08:56:06Z</time>
      </trkpt>
      <trkpt lat="45.22733" lon="6.04101">
        <ele>2050.4509277344</ele>
        <time>2017-03-25T08:56:11Z</time>
      </trkpt>
      <trkpt lat="45.2273" lon="6.04097">
        <ele>2054.4509277344</ele>
        <time>2017-03-25T08:56:18Z</time>
      </trkpt>
      <trkpt lat="45.22733" lon="6.04102">
        <ele>2053.4509277344</ele>
        <time>2017-03-25T08:56:33Z</time>
      </trkpt>
      <trkpt lat="45.22736" lon="6.04109">
        <ele>2055.4509277344</ele>
        <time>2017-03-25T08:56:41Z</time>
      </trkpt>
      <trkpt lat="45.2274" lon="6.04112">
        <ele>2056.4509277344</ele>
        <time>2017-03-25T08:56:54Z</time>
      </trkpt>
      <trkpt lat="45.22745" lon="6.04108">
        <ele>2059.4509277344</ele>
        <time>2017-03-25T08:57:03Z</time>
      </trkpt>
      <trkpt lat="45.22749" lon="6.0411">
        <ele>2067.4509277344</ele>
        <time>2017-03-25T08:57:27Z</time>
      </trkpt>
      <trkpt lat="45.2275" lon="6.04116">
        <ele>2070.4509277344</ele>
        <time>2017-03-25T08:57:31Z</time>
      </trkpt>
      <trkpt lat="45.22755" lon="6.04115">
        <ele>2070.4509277344</ele>
        <time>2017-03-25T08:57:37Z</time>
      </trkpt>
      <trkpt lat="45.22759" lon="6.04111">
        <ele>2071.4509277344</ele>
        <time>2017-03-25T08:57:45Z</time>
      </trkpt>
      <trkpt lat="45.22764" lon="6.04111">
        <ele>2071.4509277344</ele>
        <time>2017-03-25T08:57:55Z</time>
      </trkpt>
      <trkpt lat="45.22768" lon="6.04113">
        <ele>2070.4509277344</ele>
        <time>2017-03-25T08:58:03Z</time>
      </trkpt>
      <trkpt lat="45.22773" lon="6.04115">
        <ele>2070.4509277344</ele>
        <time>2017-03-25T08:58:06Z</time>
      </trkpt>
      <trkpt lat="45.22778" lon="6.04115">
        <ele>2073.4509277344</ele>
        <time>2017-03-25T08:58:18Z</time>
      </trkpt>
      <trkpt lat="45.22783" lon="6.04116">
        <ele>2073.4509277344</ele>
        <time>2017-03-25T08:58:23Z</time>
      </trkpt>
      <trkpt lat="45.22787" lon="6.04113">
        <ele>2078.4509277344</ele>
        <time>2017-03-25T08:58:32Z</time>
      </trkpt>
      <trkpt lat="45.22792" lon="6.04111">
        <ele>2085.4509277344</ele>
        <time>2017-03-25T08:59:00Z</time>
      </trkpt>
      <trkpt lat="45.22798" lon="6.04112">
        <ele>2084.4509277344</ele>
        <time>2017-03-25T08:59:05Z</time>
      </trkpt>
      <trkpt lat="45.22803" lon="6.04113">
        <ele>2084.4509277344</ele>
        <time>2017-03-25T08:59:12Z</time>
      </trkpt>
      <trkpt lat="45.22807" lon="6.04117">
        <ele>2082.4509277344</ele>
        <time>2017-03-25T08:59:16Z</time>
      </trkpt>
      <trkpt lat="45.22812" lon="6.04116">
        <ele>2082.4509277344</ele>
        <time>2017-03-25T08:59:19Z</time>
      </trkpt>
      <trkpt lat="45.22816" lon="6.04118">
        <ele>2083.4509277344</ele>
        <time>2017-03-25T08:59:24Z</time>
      </trkpt>
      <trkpt lat="45.22821" lon="6.0412">
        <ele>2078.4509277344</ele>
        <time>2017-03-25T08:59:30Z</time>
      </trkpt>
      <trkpt lat="45.22826" lon="6.04122">
        <ele>2081.4509277344</ele>
        <time>2017-03-25T08:59:43Z</time>
      </trkpt>
      <trkpt lat="45.2283" lon="6.04125">
        <ele>2077.4509277344</ele>
        <time>2017-03-25T08:59:46Z</time>
      </trkpt>
      <trkpt lat="45.22835" lon="6.04127">
        <ele>2079.4509277344</ele>
        <time>2017-03-25T08:59:52Z</time>
      </trkpt>
      <trkpt lat="45.22839" lon="6.04124">
        <ele>2078.4509277344</ele>
        <time>2017-03-25T08:59:59Z</time>
      </trkpt>
      <trkpt lat="45.22846" lon="6.04126">
        <ele>2075.4509277344</ele>
        <time>2017-03-25T09:00:03Z</time>
      </trkpt>
      <trkpt lat="45.2285" lon="6.0413">
        <ele>2076.4509277344</ele>
        <time>2017-03-25T09:00:08Z</time>
      </trkpt>
      <trkpt lat="45.22856" lon="6.04132">
        <ele>2079.4509277344</ele>
        <time>2017-03-25T09:00:12Z</time>
      </trkpt>
      <trkpt lat="45.2286" lon="6.04131">
        <ele>2080.4509277344</ele>
        <time>2017-03-25T09:00:16Z</time>
      </trkpt>
      <trkpt lat="45.22865" lon="6.04135">
        <ele>2083.4509277344</ele>
        <time>2017-03-25T09:00:24Z</time>
      </trkpt>
      <trkpt lat="45.22869" lon="6.04134">
        <ele>2086.4509277344</ele>
        <time>2017-03-25T09:00:32Z</time>
      </trkpt>
      <trkpt lat="45.22875" lon="6.04135">
        <ele>2092.4509277344</ele>
        <time>2017-03-25T09:00:50Z</time>
      </trkpt>
      <trkpt lat="45.22881" lon="6.04135">
        <ele>2093.4509277344</ele>
        <time>2017-03-25T09:00:55Z</time>
      </trkpt>
      <trkpt lat="45.22886" lon="6.04136">
        <ele>2097.4519042969</ele>
        <time>2017-03-25T09:01:02Z</time>
      </trkpt>
      <trkpt lat="45.22891" lon="6.04139">
        <ele>2098.4519042969</ele>
        <time>2017-03-25T09:01:11Z</time>
      </trkpt>
      <trkpt lat="45.22894" lon="6.04143">
        <ele>2095.4519042969</ele>
        <time>2017-03-25T09:01:19Z</time>
      </trkpt>
      <trkpt lat="45.22899" lon="6.04146">
        <ele>2098.4519042969</ele>
        <time>2017-03-25T09:01:23Z</time>
      </trkpt>
      <trkpt lat="45.22904" lon="6.0415">
        <ele>2099.4519042969</ele>
        <time>2017-03-25T09:01:29Z</time>
      </trkpt>
      <trkpt lat="45.22908" lon="6.04152">
        <ele>2098.4519042969</ele>
        <time>2017-03-25T09:01:34Z</time>
      </trkpt>
      <trkpt lat="45.22913" lon="6.04153">
        <ele>2092.4519042969</ele>
        <time>2017-03-25T09:01:41Z</time>
      </trkpt>
      <trkpt lat="45.22918" lon="6.04152">
        <ele>2094.4519042969</ele>
        <time>2017-03-25T09:01:46Z</time>
      </trkpt>
      <trkpt lat="45.22921" lon="6.04157">
        <ele>2096.4519042969</ele>
        <time>2017-03-25T09:01:57Z</time>
      </trkpt>
      <trkpt lat="45.22926" lon="6.04159">
        <ele>2096.4519042969</ele>
        <time>2017-03-25T09:02:03Z</time>
      </trkpt>
      <trkpt lat="45.22931" lon="6.0416">
        <ele>2096.4519042969</ele>
        <time>2017-03-25T09:02:08Z</time>
      </trkpt>
      <trkpt lat="45.22936" lon="6.04161">
        <ele>2095.4519042969</ele>
        <time>2017-03-25T09:02:14Z</time>
      </trkpt>
      <trkpt lat="45.22941" lon="6.04162">
        <ele>2095.4519042969</ele>
        <time>2017-03-25T09:02:20Z</time>
      </trkpt>
      <trkpt lat="45.22946" lon="6.04165">
        <ele>2100.4519042969</ele>
        <time>2017-03-25T09:02:28Z</time>
      </trkpt>
      <trkpt lat="45.22951" lon="6.04166">
        <ele>2103.4519042969</ele>
        <time>2017-03-25T09:02:34Z</time>
      </trkpt>
      <trkpt lat="45.22955" lon="6.04167">
        <ele>2105.4519042969</ele>
        <time>2017-03-25T09:02:38Z</time>
      </trkpt>
      <trkpt lat="45.2296" lon="6.04169">
        <ele>2106.4519042969</ele>
        <time>2017-03-25T09:02:44Z</time>
      </trkpt>
      <trkpt lat="45.22965" lon="6.04168">
        <ele>2116.4519042969</ele>
        <time>2017-03-25T09:02:53Z</time>
      </trkpt>
      <trkpt lat="45.2297" lon="6.04169">
        <ele>2117.4519042969</ele>
        <time>2017-03-25T09:02:58Z</time>
      </trkpt>
      <trkpt lat="45.22974" lon="6.04171">
        <ele>2116.4519042969</ele>
        <time>2017-03-25T09:03:03Z</time>
      </trkpt>
      <trkpt lat="45.22979" lon="6.04173">
        <ele>2117.4519042969</ele>
        <time>2017-03-25T09:03:24Z</time>
      </trkpt>
      <trkpt lat="45.22982" lon="6.04177">
        <ele>2120.4519042969</ele>
        <time>2017-03-25T09:03:31Z</time>
      </trkpt>
      <trkpt lat="45.22987" lon="6.04181">
        <ele>2124.4519042969</ele>
        <time>2017-03-25T09:03:37Z</time>
      </trkpt>
      <trkpt lat="45.22991" lon="6.04184">
        <ele>2128.4519042969</ele>
        <time>2017-03-25T09:03:44Z</time>
      </trkpt>
      <trkpt lat="45.22995" lon="6.04188">
        <ele>2128.4519042969</ele>
        <time>2017-03-25T09:03:49Z</time>
      </trkpt>
      <trkpt lat="45.23" lon="6.04192">
        <ele>2130.4519042969</ele>
        <time>2017-03-25T09:03:55Z</time>
      </trkpt>
      <trkpt lat="45.23004" lon="6.04196">
        <ele>2136.4519042969</ele>
        <time>2017-03-25T09:04:01Z</time>
      </trkpt>
      <trkpt lat="45.23008" lon="6.04199">
        <ele>2136.4519042969</ele>
        <time>2017-03-25T09:04:05Z</time>
      </trkpt>
      <trkpt lat="45.23012" lon="6.04199">
        <ele>2135.4519042969</ele>
        <time>2017-03-25T09:04:11Z</time>
      </trkpt>
      <trkpt lat="45.23017" lon="6.04203">
        <ele>2138.4519042969</ele>
        <time>2017-03-25T09:04:17Z</time>
      </trkpt>
      <trkpt lat="45.23021" lon="6.04206">
        <ele>2141.4519042969</ele>
        <time>2017-03-25T09:04:23Z</time>
      </trkpt>
      <trkpt lat="45.23025" lon="6.0421">
        <ele>2140.4519042969</ele>
        <time>2017-03-25T09:04:29Z</time>
      </trkpt>
      <trkpt lat="45.23029" lon="6.04213">
        <ele>2141.4519042969</ele>
        <time>2017-03-25T09:04:38Z</time>
      </trkpt>
      <trkpt lat="45.23034" lon="6.04217">
        <ele>2144.4519042969</ele>
        <time>2017-03-25T09:04:44Z</time>
      </trkpt>
      <trkpt lat="45.2304" lon="6.0422">
        <ele>2147.4519042969</ele>
        <time>2017-03-25T09:04:57Z</time>
      </trkpt>
      <trkpt lat="45.23044" lon="6.04222">
        <ele>2144.4519042969</ele>
        <time>2017-03-25T09:05:02Z</time>
      </trkpt>
      <trkpt lat="45.23048" lon="6.04227">
        <ele>2141.4519042969</ele>
        <time>2017-03-25T09:05:08Z</time>
      </trkpt>
      <trkpt lat="45.23053" lon="6.04228">
        <ele>2139.4519042969</ele>
        <time>2017-03-25T09:05:15Z</time>
      </trkpt>
      <trkpt lat="45.23057" lon="6.04232">
        <ele>2139.4519042969</ele>
        <time>2017-03-25T09:09:53Z</time>
      </trkpt>
      <trkpt lat="45.23061" lon="6.04235">
        <ele>2141.4519042969</ele>
        <time>2017-03-25T09:09:58Z</time>
      </trkpt>
      <trkpt lat="45.23065" lon="6.04237">
        <ele>2141.4519042969</ele>
        <time>2017-03-25T09:10:04Z</time>
      </trkpt>
      <trkpt lat="45.2307" lon="6.04239">
        <ele>2143.4519042969</ele>
        <time>2017-03-25T09:10:10Z</time>
      </trkpt>
      <trkpt lat="45.23074" lon="6.04243">
        <ele>2143.4519042969</ele>
        <time>2017-03-25T09:10:16Z</time>
      </trkpt>
      <trkpt lat="45.23078" lon="6.04247">
        <ele>2143.4519042969</ele>
        <time>2017-03-25T09:10:23Z</time>
      </trkpt>
      <trkpt lat="45.23083" lon="6.0425">
        <ele>2145.4519042969</ele>
        <time>2017-03-25T09:10:29Z</time>
      </trkpt>
      <trkpt lat="45.23087" lon="6.04251">
        <ele>2154.4519042969</ele>
        <time>2017-03-25T09:10:36Z</time>
      </trkpt>
      <trkpt lat="45.23092" lon="6.04254">
        <ele>2155.4519042969</ele>
        <time>2017-03-25T09:10:47Z</time>
      </trkpt>
      <trkpt lat="45.23096" lon="6.04255">
        <ele>2155.4519042969</ele>
        <time>2017-03-25T09:10:51Z</time>
      </trkpt>
      <trkpt lat="45.23102" lon="6.04256">
        <ele>2160.4519042969</ele>
        <time>2017-03-25T09:10:58Z</time>
      </trkpt>
      <trkpt lat="45.23106" lon="6.0426">
        <ele>2167.4519042969</ele>
        <time>2017-03-25T09:11:08Z</time>
      </trkpt>
      <trkpt lat="45.2311" lon="6.04263">
        <ele>2168.4519042969</ele>
        <time>2017-03-25T09:11:15Z</time>
      </trkpt>
      <trkpt lat="45.23114" lon="6.04266">
        <ele>2173.4519042969</ele>
        <time>2017-03-25T09:11:28Z</time>
      </trkpt>
      <trkpt lat="45.23119" lon="6.04269">
        <ele>2174.4519042969</ele>
        <time>2017-03-25T09:11:34Z</time>
      </trkpt>
      <trkpt lat="45.23123" lon="6.04272">
        <ele>2173.4519042969</ele>
        <time>2017-03-25T09:11:41Z</time>
      </trkpt>
      <trkpt lat="45.23127" lon="6.04274">
        <ele>2171.4519042969</ele>
        <time>2017-03-25T09:11:45Z</time>
      </trkpt>
      <trkpt lat="45.23132" lon="6.04278">
        <ele>2172.4519042969</ele>
        <time>2017-03-25T09:11:50Z</time>
      </trkpt>
      <trkpt lat="45.23137" lon="6.04279">
        <ele>2176.4519042969</ele>
        <time>2017-03-25T09:11:57Z</time>
      </trkpt>
      <trkpt lat="45.23142" lon="6.04282">
        <ele>2173.4519042969</ele>
        <time>2017-03-25T09:12:00Z</time>
      </trkpt>
      <trkpt lat="45.23147" lon="6.04283">
        <ele>2171.4519042969</ele>
        <time>2017-03-25T09:12:09Z</time>
      </trkpt>
      <trkpt lat="45.2315" lon="6.04278">
        <ele>2174.4519042969</ele>
        <time>2017-03-25T09:12:26Z</time>
      </trkpt>
      <trkpt lat="45.23154" lon="6.04282">
        <ele>2174.4519042969</ele>
        <time>2017-03-25T09:12:30Z</time>
      </trkpt>
      <trkpt lat="45.23154" lon="6.04291">
        <ele>2179.4519042969</ele>
        <time>2017-03-25T09:12:37Z</time>
      </trkpt>
      <trkpt lat="45.23155" lon="6.04297">
        <ele>2182.4519042969</ele>
        <time>2017-03-25T09:12:44Z</time>
      </trkpt>
      <trkpt lat="45.23151" lon="6.043">
        <ele>2187.4519042969</ele>
        <time>2017-03-25T09:12:51Z</time>
      </trkpt>
      <trkpt lat="45.23156" lon="6.04302">
        <ele>2190.4519042969</ele>
        <time>2017-03-25T09:13:05Z</time>
      </trkpt>
      <trkpt lat="45.23161" lon="6.04302">
        <ele>2190.4519042969</ele>
        <time>2017-03-25T09:13:13Z</time>
      </trkpt>
      <trkpt lat="45.23166" lon="6.04301">
        <ele>2194.4519042969</ele>
        <time>2017-03-25T09:13:22Z</time>
      </trkpt>
      <trkpt lat="45.23171" lon="6.04298">
        <ele>2196.4519042969</ele>
        <time>2017-03-25T09:13:30Z</time>
      </trkpt>
      <trkpt lat="45.23175" lon="6.04294">
        <ele>2197.4519042969</ele>
        <time>2017-03-25T09:13:43Z</time>
      </trkpt>
      <trkpt lat="45.23178" lon="6.04289">
        <ele>2201.4519042969</ele>
        <time>2017-03-25T09:13:50Z</time>
      </trkpt>
      <trkpt lat="45.23183" lon="6.04286">
        <ele>2201.4519042969</ele>
        <time>2017-03-25T09:13:57Z</time>
      </trkpt>
      <trkpt lat="45.23186" lon="6.04282">
        <ele>2204.4519042969</ele>
        <time>2017-03-25T09:14:08Z</time>
      </trkpt>
      <trkpt lat="45.23186" lon="6.04289">
        <ele>2213.4519042969</ele>
        <time>2017-03-25T09:14:29Z</time>
      </trkpt>
      <trkpt lat="45.23188" lon="6.04296">
        <ele>2214.4519042969</ele>
        <time>2017-03-25T09:14:42Z</time>
      </trkpt>
      <trkpt lat="45.23191" lon="6.04291">
        <ele>2224.4519042969</ele>
        <time>2017-03-25T09:14:57Z</time>
      </trkpt>
      <trkpt lat="45.23197" lon="6.0429">
        <ele>2223.4519042969</ele>
        <time>2017-03-25T09:15:06Z</time>
      </trkpt>
      <trkpt lat="45.23202" lon="6.04289">
        <ele>2224.4519042969</ele>
        <time>2017-03-25T09:15:13Z</time>
      </trkpt>
      <trkpt lat="45.23201" lon="6.04295">
        <ele>2228.4519042969</ele>
        <time>2017-03-25T09:15:20Z</time>
      </trkpt>
      <trkpt lat="45.23202" lon="6.04302">
        <ele>2229.4519042969</ele>
        <time>2017-03-25T09:15:32Z</time>
      </trkpt>
      <trkpt lat="45.23204" lon="6.04308">
        <ele>2228.4519042969</ele>
        <time>2017-03-25T09:15:39Z</time>
      </trkpt>
      <trkpt lat="45.23207" lon="6.04314">
        <ele>2230.4519042969</ele>
        <time>2017-03-25T09:15:49Z</time>
      </trkpt>
      <trkpt lat="45.23206" lon="6.0432">
        <ele>2236.4519042969</ele>
        <time>2017-03-25T09:15:57Z</time>
      </trkpt>
      <trkpt lat="45.23206" lon="6.04327">
        <ele>2238.4519042969</ele>
        <time>2017-03-25T09:16:04Z</time>
      </trkpt>
      <trkpt lat="45.2321" lon="6.04327">
        <ele>2238.4519042969</ele>
        <time>2017-03-25T09:16:11Z</time>
      </trkpt>
      <trkpt lat="45.23215" lon="6.04327">
        <ele>2237.4519042969</ele>
        <time>2017-03-25T09:16:15Z</time>
      </trkpt>
      <trkpt lat="45.23217" lon="6.04321">
        <ele>2238.4519042969</ele>
        <time>2017-03-25T09:16:26Z</time>
      </trkpt>
      <trkpt lat="45.23219" lon="6.04315">
        <ele>2243.4519042969</ele>
        <time>2017-03-25T09:16:33Z</time>
      </trkpt>
      <trkpt lat="45.23224" lon="6.04314">
        <ele>2243.4519042969</ele>
        <time>2017-03-25T09:16:40Z</time>
      </trkpt>
      <trkpt lat="45.23224" lon="6.0432">
        <ele>2248.4519042969</ele>
        <time>2017-03-25T09:16:54Z</time>
      </trkpt>
      <trkpt lat="45.23224" lon="6.04327">
        <ele>2252.4519042969</ele>
        <time>2017-03-25T09:17:04Z</time>
      </trkpt>
      <trkpt lat="45.23225" lon="6.04334">
        <ele>2256.4519042969</ele>
        <time>2017-03-25T09:17:17Z</time>
      </trkpt>
      <trkpt lat="45.23226" lon="6.04341">
        <ele>2259.4519042969</ele>
        <time>2017-03-25T09:17:25Z</time>
      </trkpt>
      <trkpt lat="45.23231" lon="6.04346">
        <ele>2261.4519042969</ele>
        <time>2017-03-25T09:17:33Z</time>
      </trkpt>
      <trkpt lat="45.23236" lon="6.04344">
        <ele>2265.4519042969</ele>
        <time>2017-03-25T09:17:55Z</time>
      </trkpt>
      <trkpt lat="45.23238" lon="6.04351">
        <ele>2269.4519042969</ele>
        <time>2017-03-25T09:18:17Z</time>
      </trkpt>
      <trkpt lat="45.23242" lon="6.04357">
        <ele>2277.4528808594</ele>
        <time>2017-03-25T09:18:55Z</time>
      </trkpt>
      <trkpt lat="45.23246" lon="6.04353">
        <ele>2285.4528808594</ele>
        <time>2017-03-25T09:19:07Z</time>
      </trkpt>
      <trkpt lat="45.23243" lon="6.04359">
        <ele>2292.4528808594</ele>
        <time>2017-03-25T09:19:32Z</time>
      </trkpt>
      <trkpt lat="45.23244" lon="6.04366">
        <ele>2293.4528808594</ele>
        <time>2017-03-25T09:19:38Z</time>
      </trkpt>
      <trkpt lat="45.23249" lon="6.0437">
        <ele>2289.4528808594</ele>
        <time>2017-03-25T09:19:41Z</time>
      </trkpt>
      <trkpt lat="45.23254" lon="6.04374">
        <ele>2288.4528808594</ele>
        <time>2017-03-25T09:20:22Z</time>
      </trkpt>
      <trkpt lat="45.23256" lon="6.04381">
        <ele>2294.4528808594</ele>
        <time>2017-03-25T09:21:02Z</time>
      </trkpt>
      <trkpt lat="45.23261" lon="6.04382">
        <ele>2298.4528808594</ele>
        <time>2017-03-25T09:21:31Z</time>
      </trkpt>
      <trkpt lat="45.23265" lon="6.04387">
        <ele>2299.4528808594</ele>
        <time>2017-03-25T09:22:14Z</time>
      </trkpt>
      <trkpt lat="45.23267" lon="6.04395">
        <ele>2300.4528808594</ele>
        <time>2017-03-25T09:22:57Z</time>
      </trkpt>
      <trkpt lat="45.23271" lon="6.04399">
        <ele>2302.4528808594</ele>
        <time>2017-03-25T09:23:19Z</time>
      </trkpt>
      <trkpt lat="45.23276" lon="6.04399">
        <ele>2298.4528808594</ele>
        <time>2017-03-25T09:23:25Z</time>
      </trkpt>
      <trkpt lat="45.23273" lon="6.04405">
        <ele>2305.4528808594</ele>
        <time>2017-03-25T09:24:04Z</time>
      </trkpt>
      <trkpt lat="45.23268" lon="6.04407">
        <ele>2308.4528808594</ele>
        <time>2017-03-25T09:24:10Z</time>
      </trkpt>
      <trkpt lat="45.23266" lon="6.04414">
        <ele>2306.4528808594</ele>
        <time>2017-03-25T09:24:15Z</time>
      </trkpt>
      <trkpt lat="45.23269" lon="6.0442">
        <ele>2306.4528808594</ele>
        <time>2017-03-25T09:24:23Z</time>
      </trkpt>
      <trkpt lat="45.23273" lon="6.04422">
        <ele>2307.4528808594</ele>
        <time>2017-03-25T09:24:29Z</time>
      </trkpt>
      <trkpt lat="45.2328" lon="6.04422">
        <ele>2312.4528808594</ele>
        <time>2017-03-25T09:24:51Z</time>
      </trkpt>
      <trkpt lat="45.23284" lon="6.04419">
        <ele>2311.4528808594</ele>
        <time>2017-03-25T09:24:57Z</time>
      </trkpt>
      <trkpt lat="45.23288" lon="6.0442">
        <ele>2311.4528808594</ele>
        <time>2017-03-25T09:25:00Z</time>
      </trkpt>
      <trkpt lat="45.23294" lon="6.0442">
        <ele>2313.4528808594</ele>
        <time>2017-03-25T09:25:04Z</time>
      </trkpt>
      <trkpt lat="45.23297" lon="6.04415">
        <ele>2313.4528808594</ele>
        <time>2017-03-25T09:25:10Z</time>
      </trkpt>
      <trkpt lat="45.233" lon="6.04409">
        <ele>2315.4528808594</ele>
        <time>2017-03-25T09:25:16Z</time>
      </trkpt>
      <trkpt lat="45.23303" lon="6.04403">
        <ele>2315.4528808594</ele>
        <time>2017-03-25T09:25:21Z</time>
      </trkpt>
      <trkpt lat="45.23305" lon="6.04396">
        <ele>2317.4528808594</ele>
        <time>2017-03-25T09:25:27Z</time>
      </trkpt>
      <trkpt lat="45.23308" lon="6.04389">
        <ele>2317.4528808594</ele>
        <time>2017-03-25T09:25:33Z</time>
      </trkpt>
      <trkpt lat="45.23308" lon="6.04382">
        <ele>2322.4528808594</ele>
        <time>2017-03-25T09:25:38Z</time>
      </trkpt>
      <trkpt lat="45.2331" lon="6.04376">
        <ele>2324.4528808594</ele>
        <time>2017-03-25T09:25:46Z</time>
      </trkpt>
      <trkpt lat="45.2331" lon="6.04368">
        <ele>2329.4528808594</ele>
        <time>2017-03-25T09:25:51Z</time>
      </trkpt>
      <trkpt lat="45.2331" lon="6.0436">
        <ele>2329.4528808594</ele>
        <time>2017-03-25T09:25:57Z</time>
      </trkpt>
      <trkpt lat="45.23315" lon="6.04358">
        <ele>2334.4528808594</ele>
        <time>2017-03-25T09:26:42Z</time>
      </trkpt>
      <trkpt lat="45.23319" lon="6.04359">
        <ele>2335.4528808594</ele>
        <time>2017-03-25T09:26:48Z</time>
      </trkpt>
      <trkpt lat="45.23324" lon="6.04361">
        <ele>2336.4528808594</ele>
        <time>2017-03-25T09:26:54Z</time>
      </trkpt>
      <trkpt lat="45.23329" lon="6.04361">
        <ele>2338.4528808594</ele>
        <time>2017-03-25T09:27:00Z</time>
      </trkpt>
      <trkpt lat="45.23333" lon="6.04362">
        <ele>2337.4528808594</ele>
        <time>2017-03-25T09:27:05Z</time>
      </trkpt>
      <trkpt lat="45.23338" lon="6.04361">
        <ele>2338.4528808594</ele>
        <time>2017-03-25T09:27:11Z</time>
      </trkpt>
      <trkpt lat="45.23343" lon="6.04363">
        <ele>2335.4528808594</ele>
        <time>2017-03-25T09:27:15Z</time>
      </trkpt>
      <trkpt lat="45.23348" lon="6.04359">
        <ele>2335.4528808594</ele>
        <time>2017-03-25T09:27:21Z</time>
      </trkpt>
      <trkpt lat="45.23353" lon="6.04357">
        <ele>2338.4528808594</ele>
        <time>2017-03-25T09:27:33Z</time>
      </trkpt>
      <trkpt lat="45.23358" lon="6.0436">
        <ele>2347.4528808594</ele>
        <time>2017-03-25T09:28:30Z</time>
      </trkpt>
      <trkpt lat="45.23363" lon="6.0436">
        <ele>2349.4528808594</ele>
        <time>2017-03-25T09:28:34Z</time>
      </trkpt>
      <trkpt lat="45.23368" lon="6.04361">
        <ele>2348.4528808594</ele>
        <time>2017-03-25T09:28:39Z</time>
      </trkpt>
      <trkpt lat="45.23372" lon="6.04362">
        <ele>2349.4528808594</ele>
        <time>2017-03-25T09:28:48Z</time>
      </trkpt>
      <trkpt lat="45.23379" lon="6.04365">
        <ele>2347.4528808594</ele>
        <time>2017-03-25T09:28:52Z</time>
      </trkpt>
      <trkpt lat="45.23384" lon="6.04367">
        <ele>2350.4528808594</ele>
        <time>2017-03-25T09:28:57Z</time>
      </trkpt>
      <trkpt lat="45.23388" lon="6.0437">
        <ele>2349.4528808594</ele>
        <time>2017-03-25T09:29:01Z</time>
      </trkpt>
      <trkpt lat="45.23392" lon="6.04373">
        <ele>2351.4528808594</ele>
        <time>2017-03-25T09:29:08Z</time>
      </trkpt>
      <trkpt lat="45.23397" lon="6.04379">
        <ele>2347.4528808594</ele>
        <time>2017-03-25T09:29:19Z</time>
      </trkpt>
      <trkpt lat="45.23401" lon="6.04383">
        <ele>2347.4528808594</ele>
        <time>2017-03-25T09:29:29Z</time>
      </trkpt>
      <trkpt lat="45.23406" lon="6.04386">
        <ele>2348.4528808594</ele>
        <time>2017-03-25T09:29:38Z</time>
      </trkpt>
      <trkpt lat="45.23412" lon="6.04391">
        <ele>2348.4528808594</ele>
        <time>2017-03-25T09:29:43Z</time>
      </trkpt>
      <trkpt lat="45.23416" lon="6.04394">
        <ele>2350.4528808594</ele>
        <time>2017-03-25T09:29:48Z</time>
      </trkpt>
      <trkpt lat="45.23421" lon="6.04395">
        <ele>2354.4528808594</ele>
        <time>2017-03-25T09:29:59Z</time>
      </trkpt>
      <trkpt lat="45.23426" lon="6.04397">
        <ele>2353.4528808594</ele>
        <time>2017-03-25T09:30:04Z</time>
      </trkpt>
      <trkpt lat="45.23431" lon="6.044">
        <ele>2351.4528808594</ele>
        <time>2017-03-25T09:30:10Z</time>
      </trkpt>
      <trkpt lat="45.23436" lon="6.04404">
        <ele>2349.4528808594</ele>
        <time>2017-03-25T09:30:15Z</time>
      </trkpt>
      <trkpt lat="45.23442" lon="6.04404">
        <ele>2351.4528808594</ele>
        <time>2017-03-25T09:30:21Z</time>
      </trkpt>
      <trkpt lat="45.23447" lon="6.04405">
        <ele>2352.4528808594</ele>
        <time>2017-03-25T09:30:25Z</time>
      </trkpt>
      <trkpt lat="45.23452" lon="6.04406">
        <ele>2354.4528808594</ele>
        <time>2017-03-25T09:30:31Z</time>
      </trkpt>
      <trkpt lat="45.23456" lon="6.04409">
        <ele>2355.4528808594</ele>
        <time>2017-03-25T09:30:37Z</time>
      </trkpt>
      <trkpt lat="45.2346" lon="6.04413">
        <ele>2353.4528808594</ele>
        <time>2017-03-25T09:30:43Z</time>
      </trkpt>
      <trkpt lat="45.23465" lon="6.04417">
        <ele>2354.4528808594</ele>
        <time>2017-03-25T09:30:48Z</time>
      </trkpt>
      <trkpt lat="45.2347" lon="6.04419">
        <ele>2351.4528808594</ele>
        <time>2017-03-25T09:30:52Z</time>
      </trkpt>
      <trkpt lat="45.23474" lon="6.0442">
        <ele>2351.4528808594</ele>
        <time>2017-03-25T09:30:56Z</time>
      </trkpt>
      <trkpt lat="45.2348" lon="6.04422">
        <ele>2350.4528808594</ele>
        <time>2017-03-25T09:31:00Z</time>
      </trkpt>
      <trkpt lat="45.23486" lon="6.04423">
        <ele>2351.4528808594</ele>
        <time>2017-03-25T09:31:04Z</time>
      </trkpt>
      <trkpt lat="45.23492" lon="6.04423">
        <ele>2351.4528808594</ele>
        <time>2017-03-25T09:31:10Z</time>
      </trkpt>
      <trkpt lat="45.23497" lon="6.04426">
        <ele>2352.4528808594</ele>
        <time>2017-03-25T09:31:16Z</time>
      </trkpt>
      <trkpt lat="45.23502" lon="6.04429">
        <ele>2354.4528808594</ele>
        <time>2017-03-25T09:31:21Z</time>
      </trkpt>
      <trkpt lat="45.23509" lon="6.04431">
        <ele>2354.4528808594</ele>
        <time>2017-03-25T09:31:26Z</time>
      </trkpt>
      <trkpt lat="45.23515" lon="6.0443">
        <ele>2353.4528808594</ele>
        <time>2017-03-25T09:31:34Z</time>
      </trkpt>
      <trkpt lat="45.2352" lon="6.0443">
        <ele>2350.4528808594</ele>
        <time>2017-03-25T09:31:38Z</time>
      </trkpt>
      <trkpt lat="45.23524" lon="6.04432">
        <ele>2355.4528808594</ele>
        <time>2017-03-25T09:31:43Z</time>
      </trkpt>
      <trkpt lat="45.23529" lon="6.0443">
        <ele>2354.4528808594</ele>
        <time>2017-03-25T09:31:51Z</time>
      </trkpt>
      <trkpt lat="45.23534" lon="6.04431">
        <ele>2356.4528808594</ele>
        <time>2017-03-25T09:31:55Z</time>
      </trkpt>
      <trkpt lat="45.23538" lon="6.04432">
        <ele>2351.4528808594</ele>
        <time>2017-03-25T09:32:01Z</time>
      </trkpt>
      <trkpt lat="45.23543" lon="6.04432">
        <ele>2349.4528808594</ele>
        <time>2017-03-25T09:32:04Z</time>
      </trkpt>
      <trkpt lat="45.2355" lon="6.04432">
        <ele>2350.4528808594</ele>
        <time>2017-03-25T09:32:09Z</time>
      </trkpt>
      <trkpt lat="45.23555" lon="6.04434">
        <ele>2351.4528808594</ele>
        <time>2017-03-25T09:32:12Z</time>
      </trkpt>
      <trkpt lat="45.2356" lon="6.04434">
        <ele>2353.4528808594</ele>
        <time>2017-03-25T09:32:16Z</time>
      </trkpt>
      <trkpt lat="45.23566" lon="6.04429">
        <ele>2359.4528808594</ele>
        <time>2017-03-25T09:32:59Z</time>
      </trkpt>
      <trkpt lat="45.23571" lon="6.0443">
        <ele>2366.4528808594</ele>
        <time>2017-03-25T09:33:09Z</time>
      </trkpt>
      <trkpt lat="45.23575" lon="6.04427">
        <ele>2364.4528808594</ele>
        <time>2017-03-25T09:33:16Z</time>
      </trkpt>
      <trkpt lat="45.23579" lon="6.04425">
        <ele>2368.4528808594</ele>
        <time>2017-03-25T09:33:21Z</time>
      </trkpt>
      <trkpt lat="45.23585" lon="6.04425">
        <ele>2374.4528808594</ele>
        <time>2017-03-25T09:33:34Z</time>
      </trkpt>
      <trkpt lat="45.2359" lon="6.04426">
        <ele>2377.4528808594</ele>
        <time>2017-03-25T09:33:40Z</time>
      </trkpt>
      <trkpt lat="45.23595" lon="6.04427">
        <ele>2378.4528808594</ele>
        <time>2017-03-25T09:33:46Z</time>
      </trkpt>
      <trkpt lat="45.23601" lon="6.04427">
        <ele>2380.4528808594</ele>
        <time>2017-03-25T09:33:53Z</time>
      </trkpt>
      <trkpt lat="45.23606" lon="6.04428">
        <ele>2383.4528808594</ele>
        <time>2017-03-25T09:34:03Z</time>
      </trkpt>
      <trkpt lat="45.2361" lon="6.04429">
        <ele>2388.4528808594</ele>
        <time>2017-03-25T09:34:24Z</time>
      </trkpt>
      <trkpt lat="45.23615" lon="6.04427">
        <ele>2391.4528808594</ele>
        <time>2017-03-25T09:34:30Z</time>
      </trkpt>
      <trkpt lat="45.2362" lon="6.04428">
        <ele>2393.4528808594</ele>
        <time>2017-03-25T09:34:39Z</time>
      </trkpt>
      <trkpt lat="45.23626" lon="6.04428">
        <ele>2391.4528808594</ele>
        <time>2017-03-25T09:34:50Z</time>
      </trkpt>
      <trkpt lat="45.23632" lon="6.04429">
        <ele>2392.4528808594</ele>
        <time>2017-03-25T09:34:54Z</time>
      </trkpt>
      <trkpt lat="45.23637" lon="6.04429">
        <ele>2394.4528808594</ele>
        <time>2017-03-25T09:34:59Z</time>
      </trkpt>
      <trkpt lat="45.23643" lon="6.04426">
        <ele>2398.4528808594</ele>
        <time>2017-03-25T09:35:10Z</time>
      </trkpt>
      <trkpt lat="45.23646" lon="6.04422">
        <ele>2402.4528808594</ele>
        <time>2017-03-25T09:35:22Z</time>
      </trkpt>
      <trkpt lat="45.23652" lon="6.04419">
        <ele>2404.4528808594</ele>
        <time>2017-03-25T09:35:30Z</time>
      </trkpt>
      <trkpt lat="45.23656" lon="6.04415">
        <ele>2409.4528808594</ele>
        <time>2017-03-25T09:35:40Z</time>
      </trkpt>
      <trkpt lat="45.23661" lon="6.04414">
        <ele>2410.4528808594</ele>
        <time>2017-03-25T09:35:48Z</time>
      </trkpt>
      <trkpt lat="45.23665" lon="6.04411">
        <ele>2413.4528808594</ele>
        <time>2017-03-25T09:35:53Z</time>
      </trkpt>
      <trkpt lat="45.23671" lon="6.0441">
        <ele>2417.4528808594</ele>
        <time>2017-03-25T09:35:59Z</time>
      </trkpt>
      <trkpt lat="45.23673" lon="6.04404">
        <ele>2423.4528808594</ele>
        <time>2017-03-25T09:36:10Z</time>
      </trkpt>
      <trkpt lat="45.23678" lon="6.04401">
        <ele>2424.4528808594</ele>
        <time>2017-03-25T09:36:19Z</time>
      </trkpt>
      <trkpt lat="45.23682" lon="6.04397">
        <ele>2428.4528808594</ele>
        <time>2017-03-25T09:36:26Z</time>
      </trkpt>
      <trkpt lat="45.23687" lon="6.04396">
        <ele>2431.4528808594</ele>
        <time>2017-03-25T09:36:34Z</time>
      </trkpt>
      <trkpt lat="45.23684" lon="6.0439">
        <ele>2433.4528808594</ele>
        <time>2017-03-25T09:36:42Z</time>
      </trkpt>
      <trkpt lat="45.23686" lon="6.04382">
        <ele>2428.4528808594</ele>
        <time>2017-03-25T09:36:54Z</time>
      </trkpt>
      <trkpt lat="45.23683" lon="6.04376">
        <ele>2429.4528808594</ele>
        <time>2017-03-25T09:36:58Z</time>
      </trkpt>
      <trkpt lat="45.23685" lon="6.0437">
        <ele>2432.4528808594</ele>
        <time>2017-03-25T09:37:05Z</time>
      </trkpt>
      <trkpt lat="45.23686" lon="6.04363">
        <ele>2435.4528808594</ele>
        <time>2017-03-25T09:37:19Z</time>
      </trkpt>
      <trkpt lat="45.2369" lon="6.04358">
        <ele>2439.4528808594</ele>
        <time>2017-03-25T09:37:36Z</time>
      </trkpt>
      <trkpt lat="45.23692" lon="6.04352">
        <ele>2442.4528808594</ele>
        <time>2017-03-25T09:37:40Z</time>
      </trkpt>
      <trkpt lat="45.23691" lon="6.04344">
        <ele>2443.4528808594</ele>
        <time>2017-03-25T09:37:47Z</time>
      </trkpt>
      <trkpt lat="45.23689" lon="6.04336">
        <ele>2444.4528808594</ele>
        <time>2017-03-25T09:38:04Z</time>
      </trkpt>
      <trkpt lat="45.23686" lon="6.0433">
        <ele>2447.4528808594</ele>
        <time>2017-03-25T09:38:15Z</time>
      </trkpt>
      <trkpt lat="45.23684" lon="6.04324">
        <ele>2447.4528808594</ele>
        <time>2017-03-25T09:38:22Z</time>
      </trkpt>
      <trkpt lat="45.23691" lon="6.04322">
        <ele>2449.4528808594</ele>
        <time>2017-03-25T09:38:29Z</time>
      </trkpt>
      <trkpt lat="45.23696" lon="6.0432">
        <ele>2450.4528808594</ele>
        <time>2017-03-25T09:38:35Z</time>
      </trkpt>
      <trkpt lat="45.23701" lon="6.04319">
        <ele>2450.4528808594</ele>
        <time>2017-03-25T09:38:39Z</time>
      </trkpt>
      <trkpt lat="45.23706" lon="6.04322">
        <ele>2454.4528808594</ele>
        <time>2017-03-25T09:38:53Z</time>
      </trkpt>
      <trkpt lat="45.23706" lon="6.04315">
        <ele>2455.4528808594</ele>
        <time>2017-03-25T09:39:05Z</time>
      </trkpt>
      <trkpt lat="45.23701" lon="6.0431">
        <ele>2463.4528808594</ele>
        <time>2017-03-25T09:39:44Z</time>
      </trkpt>
      <trkpt lat="45.23699" lon="6.04304">
        <ele>2460.4528808594</ele>
        <time>2017-03-25T09:39:51Z</time>
      </trkpt>
      <trkpt lat="45.23696" lon="6.04298">
        <ele>2462.4528808594</ele>
        <time>2017-03-25T09:40:06Z</time>
      </trkpt>
      <trkpt lat="45.23693" lon="6.04293">
        <ele>2459.4528808594</ele>
        <time>2017-03-25T09:40:11Z</time>
      </trkpt>
      <trkpt lat="45.23698" lon="6.04291">
        <ele>2465.4528808594</ele>
        <time>2017-03-25T09:40:34Z</time>
      </trkpt>
      <trkpt lat="45.23703" lon="6.04292">
        <ele>2470.4528808594</ele>
        <time>2017-03-25T09:40:41Z</time>
      </trkpt>
      <trkpt lat="45.23708" lon="6.04293">
        <ele>2471.4528808594</ele>
        <time>2017-03-25T09:40:49Z</time>
      </trkpt>
      <trkpt lat="45.23714" lon="6.04294">
        <ele>2474.4528808594</ele>
        <time>2017-03-25T09:40:55Z</time>
      </trkpt>
      <trkpt lat="45.23718" lon="6.04293">
        <ele>2474.4528808594</ele>
        <time>2017-03-25T09:41:01Z</time>
      </trkpt>
      <trkpt lat="45.23717" lon="6.04286">
        <ele>2476.4528808594</ele>
        <time>2017-03-25T09:41:12Z</time>
      </trkpt>
      <trkpt lat="45.23714" lon="6.04282">
        <ele>2478.4528808594</ele>
        <time>2017-03-25T09:41:18Z</time>
      </trkpt>
      <trkpt lat="45.23711" lon="6.04277">
        <ele>2478.4528808594</ele>
        <time>2017-03-25T09:41:57Z</time>
      </trkpt>
      <trkpt lat="45.23707" lon="6.04273">
        <ele>2483.4528808594</ele>
        <time>2017-03-25T09:42:05Z</time>
      </trkpt>
      <trkpt lat="45.23702" lon="6.04269">
        <ele>2487.4528808594</ele>
        <time>2017-03-25T09:42:10Z</time>
      </trkpt>
      <trkpt lat="45.237" lon="6.04262">
        <ele>2484.4528808594</ele>
        <time>2017-03-25T09:42:23Z</time>
      </trkpt>
      <trkpt lat="45.23698" lon="6.04256">
        <ele>2483.4528808594</ele>
        <time>2017-03-25T09:42:32Z</time>
      </trkpt>
      <trkpt lat="45.23693" lon="6.04252">
        <ele>2485.4528808594</ele>
        <time>2017-03-25T09:42:38Z</time>
      </trkpt>
      <trkpt lat="45.23689" lon="6.04247">
        <ele>2486.4528808594</ele>
        <time>2017-03-25T09:42:44Z</time>
      </trkpt>
      <trkpt lat="45.23685" lon="6.04242">
        <ele>2488.4528808594</ele>
        <time>2017-03-25T09:42:59Z</time>
      </trkpt>
      <trkpt lat="45.23682" lon="6.04237">
        <ele>2489.4528808594</ele>
        <time>2017-03-25T09:43:04Z</time>
      </trkpt>
      <trkpt lat="45.23687" lon="6.04237">
        <ele>2490.4528808594</ele>
        <time>2017-03-25T09:43:18Z</time>
      </trkpt>
      <trkpt lat="45.23692" lon="6.04238">
        <ele>2493.4528808594</ele>
        <time>2017-03-25T09:43:38Z</time>
      </trkpt>
      <trkpt lat="45.23693" lon="6.04231">
        <ele>2495.4528808594</ele>
        <time>2017-03-25T09:43:52Z</time>
      </trkpt>
      <trkpt lat="45.2369" lon="6.04224">
        <ele>2496.4528808594</ele>
        <time>2017-03-25T09:44:02Z</time>
      </trkpt>
      <trkpt lat="45.23688" lon="6.04217">
        <ele>2501.4528808594</ele>
        <time>2017-03-25T09:44:08Z</time>
      </trkpt>
      <trkpt lat="45.23693" lon="6.04216">
        <ele>2503.4528808594</ele>
        <time>2017-03-25T09:44:16Z</time>
      </trkpt>
      <trkpt lat="45.23698" lon="6.04216">
        <ele>2503.4528808594</ele>
        <time>2017-03-25T09:44:26Z</time>
      </trkpt>
      <trkpt lat="45.23698" lon="6.04209">
        <ele>2505.4528808594</ele>
        <time>2017-03-25T09:44:59Z</time>
      </trkpt>
      <trkpt lat="45.23702" lon="6.04206">
        <ele>2514.4528808594</ele>
        <time>2017-03-25T09:45:23Z</time>
      </trkpt>
      <trkpt lat="45.23707" lon="6.04206">
        <ele>2514.4528808594</ele>
        <time>2017-03-25T09:45:31Z</time>
      </trkpt>
      <trkpt lat="45.23712" lon="6.04206">
        <ele>2517.4528808594</ele>
        <time>2017-03-25T09:45:41Z</time>
      </trkpt>
      <trkpt lat="45.23717" lon="6.04204">
        <ele>2513.4528808594</ele>
        <time>2017-03-25T09:45:53Z</time>
      </trkpt>
      <trkpt lat="45.23721" lon="6.04202">
        <ele>2518.4528808594</ele>
        <time>2017-03-25T09:46:17Z</time>
      </trkpt>
      <trkpt lat="45.23726" lon="6.04199">
        <ele>2519.4528808594</ele>
        <time>2017-03-25T09:46:22Z</time>
      </trkpt>
      <trkpt lat="45.23731" lon="6.04198">
        <ele>2520.4528808594</ele>
        <time>2017-03-25T09:46:34Z</time>
      </trkpt>
      <trkpt lat="45.23735" lon="6.04198">
        <ele>2524.4528808594</ele>
        <time>2017-03-25T09:46:37Z</time>
      </trkpt>
      <trkpt lat="45.2374" lon="6.04197">
        <ele>2522.4528808594</ele>
        <time>2017-03-25T09:46:40Z</time>
      </trkpt>
      <trkpt lat="45.23744" lon="6.04193">
        <ele>2521.4528808594</ele>
        <time>2017-03-25T09:46:45Z</time>
      </trkpt>
      <trkpt lat="45.23749" lon="6.04188">
        <ele>2523.4528808594</ele>
        <time>2017-03-25T09:47:11Z</time>
      </trkpt>
      <trkpt lat="45.23753" lon="6.04184">
        <ele>2524.4528808594</ele>
        <time>2017-03-25T09:47:15Z</time>
      </trkpt>
      <trkpt lat="45.23759" lon="6.04183">
        <ele>2528.4528808594</ele>
        <time>2017-03-25T09:47:19Z</time>
      </trkpt>
      <trkpt lat="45.23766" lon="6.0418">
        <ele>2532.4528808594</ele>
        <time>2017-03-25T09:47:26Z</time>
      </trkpt>
      <trkpt lat="45.23771" lon="6.04179">
        <ele>2532.4528808594</ele>
        <time>2017-03-25T09:47:35Z</time>
      </trkpt>
      <trkpt lat="45.23776" lon="6.04175">
        <ele>2536.4528808594</ele>
        <time>2017-03-25T09:47:41Z</time>
      </trkpt>
      <trkpt lat="45.2378" lon="6.04169">
        <ele>2538.4528808594</ele>
        <time>2017-03-25T09:47:45Z</time>
      </trkpt>
      <trkpt lat="45.23783" lon="6.04163">
        <ele>2537.4528808594</ele>
        <time>2017-03-25T09:47:50Z</time>
      </trkpt>
      <trkpt lat="45.23787" lon="6.04157">
        <ele>2538.4528808594</ele>
        <time>2017-03-25T09:47:54Z</time>
      </trkpt>
      <trkpt lat="45.23791" lon="6.04154">
        <ele>2541.4528808594</ele>
        <time>2017-03-25T09:47:58Z</time>
      </trkpt>
      <trkpt lat="45.23795" lon="6.0415">
        <ele>2540.4528808594</ele>
        <time>2017-03-25T09:48:03Z</time>
      </trkpt>
      <trkpt lat="45.23792" lon="6.04144">
        <ele>2537.4528808594</ele>
        <time>2017-03-25T09:48:10Z</time>
      </trkpt>
      <trkpt lat="45.23796" lon="6.04139">
        <ele>2540.4528808594</ele>
        <time>2017-03-25T09:48:15Z</time>
      </trkpt>
      <trkpt lat="45.23798" lon="6.04132">
        <ele>2541.4528808594</ele>
        <time>2017-03-25T09:48:22Z</time>
      </trkpt>
      <trkpt lat="45.23801" lon="6.04127">
        <ele>2543.4528808594</ele>
        <time>2017-03-25T09:48:31Z</time>
      </trkpt>
      <trkpt lat="45.23806" lon="6.04131">
        <ele>2550.4528808594</ele>
        <time>2017-03-25T09:48:37Z</time>
      </trkpt>
      <trkpt lat="45.23811" lon="6.04133">
        <ele>2549.4528808594</ele>
        <time>2017-03-25T09:48:42Z</time>
      </trkpt>
      <trkpt lat="45.23815" lon="6.04137">
        <ele>2547.4528808594</ele>
        <time>2017-03-25T09:48:52Z</time>
      </trkpt>
      <trkpt lat="45.23819" lon="6.0414">
        <ele>2548.4528808594</ele>
        <time>2017-03-25T09:49:00Z</time>
      </trkpt>
      <trkpt lat="45.23825" lon="6.04143">
        <ele>2551.4528808594</ele>
        <time>2017-03-25T09:49:07Z</time>
      </trkpt>
      <trkpt lat="45.23829" lon="6.04146">
        <ele>2551.4528808594</ele>
        <time>2017-03-25T09:49:11Z</time>
      </trkpt>
      <trkpt lat="45.23833" lon="6.0415">
        <ele>2551.4528808594</ele>
        <time>2017-03-25T09:49:16Z</time>
      </trkpt>
      <trkpt lat="45.23835" lon="6.04156">
        <ele>2561.4528808594</ele>
        <time>2017-03-25T09:49:27Z</time>
      </trkpt>
      <trkpt lat="45.23838" lon="6.04162">
        <ele>2563.4528808594</ele>
        <time>2017-03-25T09:49:34Z</time>
      </trkpt>
      <trkpt lat="45.23842" lon="6.04167">
        <ele>2565.4528808594</ele>
        <time>2017-03-25T09:49:44Z</time>
      </trkpt>
      <trkpt lat="45.23846" lon="6.04171">
        <ele>2564.4528808594</ele>
        <time>2017-03-25T09:50:26Z</time>
      </trkpt>
      <trkpt lat="45.2385" lon="6.04171">
        <ele>2569.4528808594</ele>
        <time>2017-03-25T09:50:33Z</time>
      </trkpt>
      <trkpt lat="45.23855" lon="6.04173">
        <ele>2570.4528808594</ele>
        <time>2017-03-25T09:50:41Z</time>
      </trkpt>
      <trkpt lat="45.23859" lon="6.04177">
        <ele>2573.4528808594</ele>
        <time>2017-03-25T09:50:48Z</time>
      </trkpt>
      <trkpt lat="45.23863" lon="6.04181">
        <ele>2574.4541015625</ele>
        <time>2017-03-25T09:50:54Z</time>
      </trkpt>
      <trkpt lat="45.23867" lon="6.04177">
        <ele>2574.4541015625</ele>
        <time>2017-03-25T09:51:09Z</time>
      </trkpt>
      <trkpt lat="45.23868" lon="6.0417">
        <ele>2577.4528808594</ele>
        <time>2017-03-25T09:51:14Z</time>
      </trkpt>
      <trkpt lat="45.23868" lon="6.04164">
        <ele>2575.4528808594</ele>
        <time>2017-03-25T09:51:25Z</time>
      </trkpt>
      <trkpt lat="45.23868" lon="6.04156">
        <ele>2578.4528808594</ele>
        <time>2017-03-25T09:51:33Z</time>
      </trkpt>
      <trkpt lat="45.23873" lon="6.04157">
        <ele>2580.4528808594</ele>
        <time>2017-03-25T09:52:08Z</time>
      </trkpt>
      <trkpt lat="45.23877" lon="6.04161">
        <ele>2583.4541015625</ele>
        <time>2017-03-25T09:52:13Z</time>
      </trkpt>
      <trkpt lat="45.23878" lon="6.04154">
        <ele>2584.4528808594</ele>
        <time>2017-03-25T09:52:51Z</time>
      </trkpt>
      <trkpt lat="45.23876" lon="6.04147">
        <ele>2586.4528808594</ele>
        <time>2017-03-25T09:52:59Z</time>
      </trkpt>
      <trkpt lat="45.23876" lon="6.04141">
        <ele>2588.4528808594</ele>
        <time>2017-03-25T09:53:06Z</time>
      </trkpt>
      <trkpt lat="45.23875" lon="6.04134">
        <ele>2593.4528808594</ele>
        <time>2017-03-25T09:53:13Z</time>
      </trkpt>
      <trkpt lat="45.23874" lon="6.04128">
        <ele>2595.4528808594</ele>
        <time>2017-03-25T09:53:22Z</time>
      </trkpt>
      <trkpt lat="45.23874" lon="6.04121">
        <ele>2598.4528808594</ele>
        <time>2017-03-25T09:53:30Z</time>
      </trkpt>
      <trkpt lat="45.23872" lon="6.04115">
        <ele>2602.4528808594</ele>
        <time>2017-03-25T09:53:38Z</time>
      </trkpt>
      <trkpt lat="45.23872" lon="6.04108">
        <ele>2606.4528808594</ele>
        <time>2017-03-25T09:54:04Z</time>
      </trkpt>
      <trkpt lat="45.2387" lon="6.04102">
        <ele>2606.4528808594</ele>
        <time>2017-03-25T09:54:11Z</time>
      </trkpt>
      <trkpt lat="45.23868" lon="6.04095">
        <ele>2606.4528808594</ele>
        <time>2017-03-25T09:54:16Z</time>
      </trkpt>
      <trkpt lat="45.23868" lon="6.04088">
        <ele>2605.4528808594</ele>
        <time>2017-03-25T09:54:23Z</time>
      </trkpt>
      <trkpt lat="45.23866" lon="6.04082">
        <ele>2607.4528808594</ele>
        <time>2017-03-25T09:54:32Z</time>
      </trkpt>
      <trkpt lat="45.23866" lon="6.04075">
        <ele>2609.4528808594</ele>
        <time>2017-03-25T09:54:52Z</time>
      </trkpt>
      <trkpt lat="45.23866" lon="6.04067">
        <ele>2611.4528808594</ele>
        <time>2017-03-25T09:55:00Z</time>
      </trkpt>
      <trkpt lat="45.23867" lon="6.0406">
        <ele>2611.4528808594</ele>
        <time>2017-03-25T09:55:12Z</time>
      </trkpt>
      <trkpt lat="45.23867" lon="6.04053">
        <ele>2613.4528808594</ele>
        <time>2017-03-25T09:55:21Z</time>
      </trkpt>
      <trkpt lat="45.23865" lon="6.04047">
        <ele>2620.4528808594</ele>
        <time>2017-03-25T09:55:34Z</time>
      </trkpt>
      <trkpt lat="45.23862" lon="6.04041">
        <ele>2622.4528808594</ele>
        <time>2017-03-25T09:55:46Z</time>
      </trkpt>
      <trkpt lat="45.23867" lon="6.04042">
        <ele>2624.4528808594</ele>
        <time>2017-03-25T09:56:22Z</time>
      </trkpt>
      <trkpt lat="45.2387" lon="6.04046">
        <ele>2625.4528808594</ele>
        <time>2017-03-25T09:57:01Z</time>
      </trkpt>
      <trkpt lat="45.23871" lon="6.0404">
        <ele>2627.4528808594</ele>
        <time>2017-03-25T09:57:19Z</time>
      </trkpt>
      <trkpt lat="45.23876" lon="6.04042">
        <ele>2628.4528808594</ele>
        <time>2017-03-25T10:01:22Z</time>
      </trkpt>
      <trkpt lat="45.23871" lon="6.04045">
        <ele>2627.4528808594</ele>
        <time>2017-03-25T10:01:37Z</time>
      </trkpt>
      <trkpt lat="45.23868" lon="6.04041">
        <ele>2620.4528808594</ele>
        <time>2017-03-25T10:08:49Z</time>
      </trkpt>
      <trkpt lat="45.23862" lon="6.04041">
        <ele>2616.4528808594</ele>
        <time>2017-03-25T10:12:01Z</time>
      </trkpt>
      <trkpt lat="45.23855" lon="6.0404">
        <ele>2615.4528808594</ele>
        <time>2017-03-25T10:12:05Z</time>
      </trkpt>
      <trkpt lat="45.23851" lon="6.04044">
        <ele>2612.4528808594</ele>
        <time>2017-03-25T10:12:07Z</time>
      </trkpt>
      <trkpt lat="45.23845" lon="6.04039">
        <ele>2611.4528808594</ele>
        <time>2017-03-25T10:12:09Z</time>
      </trkpt>
      <trkpt lat="45.2384" lon="6.04038">
        <ele>2611.4528808594</ele>
        <time>2017-03-25T10:12:15Z</time>
      </trkpt>
      <trkpt lat="45.23834" lon="6.04038">
        <ele>2608.4528808594</ele>
        <time>2017-03-25T10:12:22Z</time>
      </trkpt>
      <trkpt lat="45.23832" lon="6.04031">
        <ele>2606.4528808594</ele>
        <time>2017-03-25T10:13:00Z</time>
      </trkpt>
      <trkpt lat="45.23827" lon="6.04033">
        <ele>2606.4528808594</ele>
        <time>2017-03-25T10:13:02Z</time>
      </trkpt>
      <trkpt lat="45.23823" lon="6.04036">
        <ele>2603.4528808594</ele>
        <time>2017-03-25T10:13:04Z</time>
      </trkpt>
      <trkpt lat="45.23825" lon="6.04027">
        <ele>2601.4528808594</ele>
        <time>2017-03-25T10:13:08Z</time>
      </trkpt>
      <trkpt lat="45.23819" lon="6.04025">
        <ele>2599.4528808594</ele>
        <time>2017-03-25T10:13:10Z</time>
      </trkpt>
      <trkpt lat="45.23815" lon="6.04022">
        <ele>2596.4528808594</ele>
        <time>2017-03-25T10:13:14Z</time>
      </trkpt>
      <trkpt lat="45.23814" lon="6.04013">
        <ele>2593.4528808594</ele>
        <time>2017-03-25T10:13:18Z</time>
      </trkpt>
      <trkpt lat="45.23813" lon="6.04004">
        <ele>2586.4528808594</ele>
        <time>2017-03-25T10:13:20Z</time>
      </trkpt>
      <trkpt lat="45.23816" lon="6.03995">
        <ele>2582.4528808594</ele>
        <time>2017-03-25T10:13:22Z</time>
      </trkpt>
      <trkpt lat="45.23808" lon="6.03995">
        <ele>2580.4528808594</ele>
        <time>2017-03-25T10:13:24Z</time>
      </trkpt>
      <trkpt lat="45.23802" lon="6.03996">
        <ele>2578.4528808594</ele>
        <time>2017-03-25T10:13:26Z</time>
      </trkpt>
      <trkpt lat="45.23797" lon="6.03995">
        <ele>2577.4528808594</ele>
        <time>2017-03-25T10:13:29Z</time>
      </trkpt>
      <trkpt lat="45.23786" lon="6.03991">
        <ele>2575.4528808594</ele>
        <time>2017-03-25T10:13:30Z</time>
      </trkpt>
      <trkpt lat="45.23779" lon="6.03978">
        <ele>2570.4528808594</ele>
        <time>2017-03-25T10:13:33Z</time>
      </trkpt>
      <trkpt lat="45.23777" lon="6.03971">
        <ele>2569.4528808594</ele>
        <time>2017-03-25T10:13:35Z</time>
      </trkpt>
      <trkpt lat="45.23775" lon="6.03964">
        <ele>2567.4528808594</ele>
        <time>2017-03-25T10:13:38Z</time>
      </trkpt>
      <trkpt lat="45.23769" lon="6.03953">
        <ele>2558.4528808594</ele>
        <time>2017-03-25T10:13:50Z</time>
      </trkpt>
      <trkpt lat="45.23773" lon="6.03941">
        <ele>2553.4528808594</ele>
        <time>2017-03-25T10:13:52Z</time>
      </trkpt>
      <trkpt lat="45.23763" lon="6.03937">
        <ele>2550.4528808594</ele>
        <time>2017-03-25T10:13:54Z</time>
      </trkpt>
      <trkpt lat="45.23756" lon="6.03924">
        <ele>2549.4528808594</ele>
        <time>2017-03-25T10:13:56Z</time>
      </trkpt>
      <trkpt lat="45.23759" lon="6.03917">
        <ele>2548.4528808594</ele>
        <time>2017-03-25T10:13:57Z</time>
      </trkpt>
      <trkpt lat="45.23761" lon="6.03907">
        <ele>2547.4528808594</ele>
        <time>2017-03-25T10:13:59Z</time>
      </trkpt>
      <trkpt lat="45.23755" lon="6.03904">
        <ele>2546.4528808594</ele>
        <time>2017-03-25T10:14:01Z</time>
      </trkpt>
      <trkpt lat="45.2375" lon="6.03908">
        <ele>2544.4528808594</ele>
        <time>2017-03-25T10:14:02Z</time>
      </trkpt>
      <trkpt lat="45.23744" lon="6.03908">
        <ele>2542.4528808594</ele>
        <time>2017-03-25T10:14:04Z</time>
      </trkpt>
      <trkpt lat="45.23745" lon="6.039">
        <ele>2539.4528808594</ele>
        <time>2017-03-25T10:14:06Z</time>
      </trkpt>
      <trkpt lat="45.23747" lon="6.03893">
        <ele>2538.4528808594</ele>
        <time>2017-03-25T10:14:08Z</time>
      </trkpt>
      <trkpt lat="45.23741" lon="6.03889">
        <ele>2533.4528808594</ele>
        <time>2017-03-25T10:14:10Z</time>
      </trkpt>
      <trkpt lat="45.23731" lon="6.03888">
        <ele>2532.4528808594</ele>
        <time>2017-03-25T10:14:12Z</time>
      </trkpt>
      <trkpt lat="45.23724" lon="6.03884">
        <ele>2530.4528808594</ele>
        <time>2017-03-25T10:14:14Z</time>
      </trkpt>
      <trkpt lat="45.2373" lon="6.03873">
        <ele>2526.4528808594</ele>
        <time>2017-03-25T10:14:16Z</time>
      </trkpt>
      <trkpt lat="45.23724" lon="6.03867">
        <ele>2519.4528808594</ele>
        <time>2017-03-25T10:14:19Z</time>
      </trkpt>
      <trkpt lat="45.2372" lon="6.03862">
        <ele>2516.4528808594</ele>
        <time>2017-03-25T10:14:21Z</time>
      </trkpt>
      <trkpt lat="45.23722" lon="6.03851">
        <ele>2514.4528808594</ele>
        <time>2017-03-25T10:14:23Z</time>
      </trkpt>
      <trkpt lat="45.23724" lon="6.03845">
        <ele>2511.4528808594</ele>
        <time>2017-03-25T10:14:25Z</time>
      </trkpt>
      <trkpt lat="45.23726" lon="6.03838">
        <ele>2508.4528808594</ele>
        <time>2017-03-25T10:14:27Z</time>
      </trkpt>
      <trkpt lat="45.2373" lon="6.03832">
        <ele>2503.4528808594</ele>
        <time>2017-03-25T10:14:29Z</time>
      </trkpt>
      <trkpt lat="45.23731" lon="6.03823">
        <ele>2501.4528808594</ele>
        <time>2017-03-25T10:14:31Z</time>
      </trkpt>
      <trkpt lat="45.23734" lon="6.03811">
        <ele>2494.4528808594</ele>
        <time>2017-03-25T10:14:33Z</time>
      </trkpt>
      <trkpt lat="45.23732" lon="6.03804">
        <ele>2488.4528808594</ele>
        <time>2017-03-25T10:14:35Z</time>
      </trkpt>
      <trkpt lat="45.23724" lon="6.03804">
        <ele>2485.4528808594</ele>
        <time>2017-03-25T10:14:37Z</time>
      </trkpt>
      <trkpt lat="45.23718" lon="6.03805">
        <ele>2483.4528808594</ele>
        <time>2017-03-25T10:14:39Z</time>
      </trkpt>
      <trkpt lat="45.23713" lon="6.03807">
        <ele>2481.4528808594</ele>
        <time>2017-03-25T10:14:42Z</time>
      </trkpt>
      <trkpt lat="45.23707" lon="6.03799">
        <ele>2475.4528808594</ele>
        <time>2017-03-25T10:14:48Z</time>
      </trkpt>
      <trkpt lat="45.23696" lon="6.03795">
        <ele>2473.4528808594</ele>
        <time>2017-03-25T10:14:50Z</time>
      </trkpt>
      <trkpt lat="45.23685" lon="6.03788">
        <ele>2471.4528808594</ele>
        <time>2017-03-25T10:14:52Z</time>
      </trkpt>
      <trkpt lat="45.23676" lon="6.03779">
        <ele>2468.4528808594</ele>
        <time>2017-03-25T10:14:54Z</time>
      </trkpt>
      <trkpt lat="45.23668" lon="6.03769">
        <ele>2465.4528808594</ele>
        <time>2017-03-25T10:14:56Z</time>
      </trkpt>
      <trkpt lat="45.23656" lon="6.03756">
        <ele>2461.4528808594</ele>
        <time>2017-03-25T10:14:58Z</time>
      </trkpt>
      <trkpt lat="45.23647" lon="6.03742">
        <ele>2458.4519042969</ele>
        <time>2017-03-25T10:15:00Z</time>
      </trkpt>
      <trkpt lat="45.23635" lon="6.0372">
        <ele>2455.4519042969</ele>
        <time>2017-03-25T10:15:02Z</time>
      </trkpt>
      <trkpt lat="45.23629" lon="6.03717">
        <ele>2451.4519042969</ele>
        <time>2017-03-25T10:15:03Z</time>
      </trkpt>
      <trkpt lat="45.23621" lon="6.03707">
        <ele>2447.4519042969</ele>
        <time>2017-03-25T10:15:05Z</time>
      </trkpt>
      <trkpt lat="45.23616" lon="6.03693">
        <ele>2445.4519042969</ele>
        <time>2017-03-25T10:15:07Z</time>
      </trkpt>
      <trkpt lat="45.23609" lon="6.0368">
        <ele>2442.4519042969</ele>
        <time>2017-03-25T10:15:09Z</time>
      </trkpt>
      <trkpt lat="45.23606" lon="6.03668">
        <ele>2442.4519042969</ele>
        <time>2017-03-25T10:15:10Z</time>
      </trkpt>
      <trkpt lat="45.23599" lon="6.03651">
        <ele>2441.4519042969</ele>
        <time>2017-03-25T10:15:12Z</time>
      </trkpt>
      <trkpt lat="45.23603" lon="6.03646">
        <ele>2434.4519042969</ele>
        <time>2017-03-25T10:15:13Z</time>
      </trkpt>
      <trkpt lat="45.236" lon="6.03629">
        <ele>2432.4519042969</ele>
        <time>2017-03-25T10:15:15Z</time>
      </trkpt>
      <trkpt lat="45.23596" lon="6.03609">
        <ele>2427.4519042969</ele>
        <time>2017-03-25T10:15:17Z</time>
      </trkpt>
      <trkpt lat="45.23592" lon="6.03595">
        <ele>2427.4519042969</ele>
        <time>2017-03-25T10:15:18Z</time>
      </trkpt>
      <trkpt lat="45.23584" lon="6.03571">
        <ele>2424.4519042969</ele>
        <time>2017-03-25T10:15:20Z</time>
      </trkpt>
      <trkpt lat="45.23573" lon="6.03556">
        <ele>2421.4519042969</ele>
        <time>2017-03-25T10:15:22Z</time>
      </trkpt>
      <trkpt lat="45.23564" lon="6.0354">
        <ele>2417.4519042969</ele>
        <time>2017-03-25T10:15:24Z</time>
      </trkpt>
      <trkpt lat="45.2356" lon="6.03526">
        <ele>2413.4519042969</ele>
        <time>2017-03-25T10:15:26Z</time>
      </trkpt>
      <trkpt lat="45.23553" lon="6.03517">
        <ele>2408.4519042969</ele>
        <time>2017-03-25T10:15:28Z</time>
      </trkpt>
      <trkpt lat="45.23548" lon="6.03506">
        <ele>2404.4519042969</ele>
        <time>2017-03-25T10:15:30Z</time>
      </trkpt>
      <trkpt lat="45.23545" lon="6.0351">
        <ele>2390.4519042969</ele>
        <time>2017-03-25T10:16:08Z</time>
      </trkpt>
      <trkpt lat="45.23545" lon="6.03503">
        <ele>2386.4519042969</ele>
        <time>2017-03-25T10:16:36Z</time>
      </trkpt>
      <trkpt lat="45.23545" lon="6.03494">
        <ele>2383.4519042969</ele>
        <time>2017-03-25T10:16:39Z</time>
      </trkpt>
      <trkpt lat="45.23539" lon="6.03491">
        <ele>2379.4519042969</ele>
        <time>2017-03-25T10:16:42Z</time>
      </trkpt>
      <trkpt lat="45.23532" lon="6.03492">
        <ele>2376.4519042969</ele>
        <time>2017-03-25T10:16:45Z</time>
      </trkpt>
      <trkpt lat="45.23527" lon="6.03499">
        <ele>2375.4519042969</ele>
        <time>2017-03-25T10:16:47Z</time>
      </trkpt>
      <trkpt lat="45.2352" lon="6.03503">
        <ele>2373.4519042969</ele>
        <time>2017-03-25T10:16:49Z</time>
      </trkpt>
      <trkpt lat="45.23516" lon="6.03509">
        <ele>2373.4519042969</ele>
        <time>2017-03-25T10:16:51Z</time>
      </trkpt>
      <trkpt lat="45.2351" lon="6.03515">
        <ele>2371.4519042969</ele>
        <time>2017-03-25T10:16:53Z</time>
      </trkpt>
      <trkpt lat="45.23505" lon="6.03519">
        <ele>2369.4519042969</ele>
        <time>2017-03-25T10:16:56Z</time>
      </trkpt>
      <trkpt lat="45.23502" lon="6.03512">
        <ele>2362.4519042969</ele>
        <time>2017-03-25T10:17:09Z</time>
      </trkpt>
      <trkpt lat="45.23493" lon="6.03513">
        <ele>2359.4519042969</ele>
        <time>2017-03-25T10:17:11Z</time>
      </trkpt>
      <trkpt lat="45.23485" lon="6.03511">
        <ele>2357.4519042969</ele>
        <time>2017-03-25T10:17:13Z</time>
      </trkpt>
      <trkpt lat="45.23475" lon="6.03503">
        <ele>2354.4519042969</ele>
        <time>2017-03-25T10:17:15Z</time>
      </trkpt>
      <trkpt lat="45.23468" lon="6.03508">
        <ele>2352.4519042969</ele>
        <time>2017-03-25T10:17:17Z</time>
      </trkpt>
      <trkpt lat="45.23461" lon="6.03507">
        <ele>2352.4519042969</ele>
        <time>2017-03-25T10:17:19Z</time>
      </trkpt>
      <trkpt lat="45.23458" lon="6.035">
        <ele>2350.4519042969</ele>
        <time>2017-03-25T10:17:21Z</time>
      </trkpt>
      <trkpt lat="45.23454" lon="6.03487">
        <ele>2347.4519042969</ele>
        <time>2017-03-25T10:17:23Z</time>
      </trkpt>
      <trkpt lat="45.23452" lon="6.03476">
        <ele>2343.4519042969</ele>
        <time>2017-03-25T10:17:25Z</time>
      </trkpt>
      <trkpt lat="45.23446" lon="6.03471">
        <ele>2339.4519042969</ele>
        <time>2017-03-25T10:17:27Z</time>
      </trkpt>
      <trkpt lat="45.2345" lon="6.03462">
        <ele>2329.4519042969</ele>
        <time>2017-03-25T10:17:43Z</time>
      </trkpt>
      <trkpt lat="45.23447" lon="6.03456">
        <ele>2325.4519042969</ele>
        <time>2017-03-25T10:17:45Z</time>
      </trkpt>
      <trkpt lat="45.23446" lon="6.03448">
        <ele>2322.4519042969</ele>
        <time>2017-03-25T10:17:47Z</time>
      </trkpt>
      <trkpt lat="45.23444" lon="6.03438">
        <ele>2318.4519042969</ele>
        <time>2017-03-25T10:17:49Z</time>
      </trkpt>
      <trkpt lat="45.23439" lon="6.03435">
        <ele>2313.4519042969</ele>
        <time>2017-03-25T10:17:51Z</time>
      </trkpt>
      <trkpt lat="45.23436" lon="6.03427">
        <ele>2308.4519042969</ele>
        <time>2017-03-25T10:17:53Z</time>
      </trkpt>
      <trkpt lat="45.23443" lon="6.03423">
        <ele>2307.4519042969</ele>
        <time>2017-03-25T10:17:54Z</time>
      </trkpt>
      <trkpt lat="45.23441" lon="6.03411">
        <ele>2303.4519042969</ele>
        <time>2017-03-25T10:17:56Z</time>
      </trkpt>
      <trkpt lat="45.23439" lon="6.03397">
        <ele>2303.4519042969</ele>
        <time>2017-03-25T10:17:58Z</time>
      </trkpt>
      <trkpt lat="45.23438" lon="6.0339">
        <ele>2300.4519042969</ele>
        <time>2017-03-25T10:18:00Z</time>
      </trkpt>
      <trkpt lat="45.23436" lon="6.0338">
        <ele>2295.4519042969</ele>
        <time>2017-03-25T10:18:03Z</time>
      </trkpt>
      <trkpt lat="45.23432" lon="6.03376">
        <ele>2288.4519042969</ele>
        <time>2017-03-25T10:18:04Z</time>
      </trkpt>
      <trkpt lat="45.23428" lon="6.03374">
        <ele>2286.4519042969</ele>
        <time>2017-03-25T10:18:05Z</time>
      </trkpt>
      <trkpt lat="45.23421" lon="6.03372">
        <ele>2284.4519042969</ele>
        <time>2017-03-25T10:18:07Z</time>
      </trkpt>
      <trkpt lat="45.23417" lon="6.03372">
        <ele>2280.4509277344</ele>
        <time>2017-03-25T10:18:10Z</time>
      </trkpt>
      <trkpt lat="45.23421" lon="6.03374">
        <ele>2270.4519042969</ele>
        <time>2017-03-25T10:18:18Z</time>
      </trkpt>
      <trkpt lat="45.23417" lon="6.03369">
        <ele>2267.4509277344</ele>
        <time>2017-03-25T10:18:44Z</time>
      </trkpt>
      <trkpt lat="45.23412" lon="6.03368">
        <ele>2265.4509277344</ele>
        <time>2017-03-25T10:18:46Z</time>
      </trkpt>
      <trkpt lat="45.23405" lon="6.03368">
        <ele>2262.4509277344</ele>
        <time>2017-03-25T10:18:48Z</time>
      </trkpt>
      <trkpt lat="45.23397" lon="6.03369">
        <ele>2260.4509277344</ele>
        <time>2017-03-25T10:18:50Z</time>
      </trkpt>
      <trkpt lat="45.23393" lon="6.03362">
        <ele>2258.4509277344</ele>
        <time>2017-03-25T10:18:52Z</time>
      </trkpt>
      <trkpt lat="45.23391" lon="6.03352">
        <ele>2256.4509277344</ele>
        <time>2017-03-25T10:18:54Z</time>
      </trkpt>
      <trkpt lat="45.2339" lon="6.03339">
        <ele>2254.4509277344</ele>
        <time>2017-03-25T10:18:56Z</time>
      </trkpt>
      <trkpt lat="45.23394" lon="6.03324">
        <ele>2252.4509277344</ele>
        <time>2017-03-25T10:18:58Z</time>
      </trkpt>
      <trkpt lat="45.23387" lon="6.03309">
        <ele>2250.4509277344</ele>
        <time>2017-03-25T10:19:00Z</time>
      </trkpt>
      <trkpt lat="45.23383" lon="6.03298">
        <ele>2247.4509277344</ele>
        <time>2017-03-25T10:19:01Z</time>
      </trkpt>
      <trkpt lat="45.23384" lon="6.0328">
        <ele>2242.4509277344</ele>
        <time>2017-03-25T10:19:03Z</time>
      </trkpt>
      <trkpt lat="45.2338" lon="6.03274">
        <ele>2231.4509277344</ele>
        <time>2017-03-25T10:19:04Z</time>
      </trkpt>
      <trkpt lat="45.2338" lon="6.03258">
        <ele>2219.4509277344</ele>
        <time>2017-03-25T10:19:06Z</time>
      </trkpt>
      <trkpt lat="45.23369" lon="6.03249">
        <ele>2213.4509277344</ele>
        <time>2017-03-25T10:19:08Z</time>
      </trkpt>
      <trkpt lat="45.23357" lon="6.03241">
        <ele>2211.4509277344</ele>
        <time>2017-03-25T10:19:10Z</time>
      </trkpt>
      <trkpt lat="45.23347" lon="6.03239">
        <ele>2207.4509277344</ele>
        <time>2017-03-25T10:19:11Z</time>
      </trkpt>
      <trkpt lat="45.23333" lon="6.03235">
        <ele>2204.4509277344</ele>
        <time>2017-03-25T10:19:13Z</time>
      </trkpt>
      <trkpt lat="45.23316" lon="6.03229">
        <ele>2203.4509277344</ele>
        <time>2017-03-25T10:19:15Z</time>
      </trkpt>
      <trkpt lat="45.23298" lon="6.03221">
        <ele>2198.4509277344</ele>
        <time>2017-03-25T10:19:17Z</time>
      </trkpt>
      <trkpt lat="45.23284" lon="6.0321">
        <ele>2192.4509277344</ele>
        <time>2017-03-25T10:19:19Z</time>
      </trkpt>
      <trkpt lat="45.23273" lon="6.03203">
        <ele>2190.4509277344</ele>
        <time>2017-03-25T10:19:21Z</time>
      </trkpt>
      <trkpt lat="45.23262" lon="6.03194">
        <ele>2186.4509277344</ele>
        <time>2017-03-25T10:19:23Z</time>
      </trkpt>
      <trkpt lat="45.2325" lon="6.03186">
        <ele>2182.4509277344</ele>
        <time>2017-03-25T10:19:25Z</time>
      </trkpt>
      <trkpt lat="45.23238" lon="6.03179">
        <ele>2180.4509277344</ele>
        <time>2017-03-25T10:19:27Z</time>
      </trkpt>
      <trkpt lat="45.23232" lon="6.03176">
        <ele>2178.4509277344</ele>
        <time>2017-03-25T10:19:28Z</time>
      </trkpt>
      <trkpt lat="45.23222" lon="6.03169">
        <ele>2174.4509277344</ele>
        <time>2017-03-25T10:19:30Z</time>
      </trkpt>
      <trkpt lat="45.23217" lon="6.03165">
        <ele>2172.4509277344</ele>
        <time>2017-03-25T10:19:31Z</time>
      </trkpt>
      <trkpt lat="45.23208" lon="6.0316">
        <ele>2170.4509277344</ele>
        <time>2017-03-25T10:19:33Z</time>
      </trkpt>
      <trkpt lat="45.23198" lon="6.03154">
        <ele>2164.4509277344</ele>
        <time>2017-03-25T10:19:35Z</time>
      </trkpt>
      <trkpt lat="45.23192" lon="6.03152">
        <ele>2162.4509277344</ele>
        <time>2017-03-25T10:19:36Z</time>
      </trkpt>
      <trkpt lat="45.23178" lon="6.03146">
        <ele>2158.4509277344</ele>
        <time>2017-03-25T10:19:38Z</time>
      </trkpt>
      <trkpt lat="45.23166" lon="6.03144">
        <ele>2154.4509277344</ele>
        <time>2017-03-25T10:19:40Z</time>
      </trkpt>
      <trkpt lat="45.23161" lon="6.03143">
        <ele>2151.4509277344</ele>
        <time>2017-03-25T10:19:41Z</time>
      </trkpt>
      <trkpt lat="45.23147" lon="6.0314">
        <ele>2148.4509277344</ele>
        <time>2017-03-25T10:19:43Z</time>
      </trkpt>
      <trkpt lat="45.23133" lon="6.03138">
        <ele>2145.4509277344</ele>
        <time>2017-03-25T10:19:45Z</time>
      </trkpt>
      <trkpt lat="45.23118" lon="6.0313">
        <ele>2145.4509277344</ele>
        <time>2017-03-25T10:19:48Z</time>
      </trkpt>
      <trkpt lat="45.23116" lon="6.03117">
        <ele>2141.4509277344</ele>
        <time>2017-03-25T10:19:50Z</time>
      </trkpt>
      <trkpt lat="45.23119" lon="6.03104">
        <ele>2131.4509277344</ele>
        <time>2017-03-25T10:19:52Z</time>
      </trkpt>
      <trkpt lat="45.23114" lon="6.03082">
        <ele>2123.4499511719</ele>
        <time>2017-03-25T10:19:55Z</time>
      </trkpt>
      <trkpt lat="45.23103" lon="6.03072">
        <ele>2120.4499511719</ele>
        <time>2017-03-25T10:19:57Z</time>
      </trkpt>
      <trkpt lat="45.23095" lon="6.03072">
        <ele>2118.4499511719</ele>
        <time>2017-03-25T10:19:59Z</time>
      </trkpt>
      <trkpt lat="45.23091" lon="6.0307">
        <ele>2116.4499511719</ele>
        <time>2017-03-25T10:20:01Z</time>
      </trkpt>
      <trkpt lat="45.23084" lon="6.03069">
        <ele>2113.4499511719</ele>
        <time>2017-03-25T10:20:03Z</time>
      </trkpt>
      <trkpt lat="45.23077" lon="6.03069">
        <ele>2111.4499511719</ele>
        <time>2017-03-25T10:20:05Z</time>
      </trkpt>
      <trkpt lat="45.23071" lon="6.03069">
        <ele>2110.4499511719</ele>
        <time>2017-03-25T10:20:07Z</time>
      </trkpt>
      <trkpt lat="45.23065" lon="6.03068">
        <ele>2107.4499511719</ele>
        <time>2017-03-25T10:20:09Z</time>
      </trkpt>
      <trkpt lat="45.23059" lon="6.03071">
        <ele>2105.4499511719</ele>
        <time>2017-03-25T10:20:12Z</time>
      </trkpt>
      <trkpt lat="45.23059" lon="6.03064">
        <ele>2107.4499511719</ele>
        <time>2017-03-25T10:20:31Z</time>
      </trkpt>
      <trkpt lat="45.2306" lon="6.03056">
        <ele>2103.4499511719</ele>
        <time>2017-03-25T10:20:40Z</time>
      </trkpt>
      <trkpt lat="45.23054" lon="6.03054">
        <ele>2102.4499511719</ele>
        <time>2017-03-25T10:20:42Z</time>
      </trkpt>
      <trkpt lat="45.23047" lon="6.03048">
        <ele>2099.4499511719</ele>
        <time>2017-03-25T10:20:44Z</time>
      </trkpt>
      <trkpt lat="45.2304" lon="6.03044">
        <ele>2098.4499511719</ele>
        <time>2017-03-25T10:20:46Z</time>
      </trkpt>
      <trkpt lat="45.23035" lon="6.03047">
        <ele>2096.4499511719</ele>
        <time>2017-03-25T10:20:48Z</time>
      </trkpt>
      <trkpt lat="45.23036" lon="6.03039">
        <ele>2092.4499511719</ele>
        <time>2017-03-25T10:20:55Z</time>
      </trkpt>
      <trkpt lat="45.23029" lon="6.03039">
        <ele>2091.4499511719</ele>
        <time>2017-03-25T10:20:57Z</time>
      </trkpt>
      <trkpt lat="45.23023" lon="6.0304">
        <ele>2088.4499511719</ele>
        <time>2017-03-25T10:21:02Z</time>
      </trkpt>
      <trkpt lat="45.23019" lon="6.03043">
        <ele>2087.4499511719</ele>
        <time>2017-03-25T10:21:06Z</time>
      </trkpt>
      <trkpt lat="45.23014" lon="6.03047">
        <ele>2085.4499511719</ele>
        <time>2017-03-25T10:21:09Z</time>
      </trkpt>
      <trkpt lat="45.23008" lon="6.03053">
        <ele>2081.4499511719</ele>
        <time>2017-03-25T10:21:23Z</time>
      </trkpt>
      <trkpt lat="45.22999" lon="6.03061">
        <ele>2082.4499511719</ele>
        <time>2017-03-25T10:21:25Z</time>
      </trkpt>
      <trkpt lat="45.22989" lon="6.0307">
        <ele>2079.4499511719</ele>
        <time>2017-03-25T10:21:27Z</time>
      </trkpt>
      <trkpt lat="45.22982" lon="6.03066">
        <ele>2074.4499511719</ele>
        <time>2017-03-25T10:21:29Z</time>
      </trkpt>
      <trkpt lat="45.2297" lon="6.03069">
        <ele>2071.4499511719</ele>
        <time>2017-03-25T10:21:31Z</time>
      </trkpt>
      <trkpt lat="45.22961" lon="6.03068">
        <ele>2068.4499511719</ele>
        <time>2017-03-25T10:21:33Z</time>
      </trkpt>
      <trkpt lat="45.22949" lon="6.03046">
        <ele>2065.4499511719</ele>
        <time>2017-03-25T10:21:35Z</time>
      </trkpt>
      <trkpt lat="45.22932" lon="6.03042">
        <ele>2063.4499511719</ele>
        <time>2017-03-25T10:21:37Z</time>
      </trkpt>
      <trkpt lat="45.22921" lon="6.03036">
        <ele>2062.4499511719</ele>
        <time>2017-03-25T10:21:38Z</time>
      </trkpt>
      <trkpt lat="45.22917" lon="6.03036">
        <ele>2062.4499511719</ele>
        <time>2017-03-25T10:21:39Z</time>
      </trkpt>
      <trkpt lat="45.22909" lon="6.03023">
        <ele>2061.4499511719</ele>
        <time>2017-03-25T10:21:42Z</time>
      </trkpt>
      <trkpt lat="45.22895" lon="6.03">
        <ele>2059.4499511719</ele>
        <time>2017-03-25T10:21:44Z</time>
      </trkpt>
      <trkpt lat="45.22883" lon="6.02992">
        <ele>2060.4499511719</ele>
        <time>2017-03-25T10:21:45Z</time>
      </trkpt>
      <trkpt lat="45.22876" lon="6.02969">
        <ele>2059.4499511719</ele>
        <time>2017-03-25T10:21:47Z</time>
      </trkpt>
      <trkpt lat="45.22877" lon="6.02956">
        <ele>2058.4499511719</ele>
        <time>2017-03-25T10:21:48Z</time>
      </trkpt>
      <trkpt lat="45.22869" lon="6.02947">
        <ele>2047.4499511719</ele>
        <time>2017-03-25T10:21:49Z</time>
      </trkpt>
      <trkpt lat="45.22863" lon="6.02941">
        <ele>2042.4499511719</ele>
        <time>2017-03-25T10:21:50Z</time>
      </trkpt>
      <trkpt lat="45.22856" lon="6.02929">
        <ele>2035.4499511719</ele>
        <time>2017-03-25T10:21:53Z</time>
      </trkpt>
      <trkpt lat="45.22852" lon="6.02928">
        <ele>2028.4499511719</ele>
        <time>2017-03-25T10:21:56Z</time>
      </trkpt>
      <trkpt lat="45.22845" lon="6.02928">
        <ele>2024.4499511719</ele>
        <time>2017-03-25T10:22:29Z</time>
      </trkpt>
      <trkpt lat="45.22838" lon="6.02932">
        <ele>2022.4499511719</ele>
        <time>2017-03-25T10:22:31Z</time>
      </trkpt>
      <trkpt lat="45.22828" lon="6.0293">
        <ele>2016.4499511719</ele>
        <time>2017-03-25T10:22:33Z</time>
      </trkpt>
      <trkpt lat="45.22815" lon="6.02933">
        <ele>2012.4499511719</ele>
        <time>2017-03-25T10:22:36Z</time>
      </trkpt>
      <trkpt lat="45.22809" lon="6.02936">
        <ele>2010.4499511719</ele>
        <time>2017-03-25T10:22:38Z</time>
      </trkpt>
      <trkpt lat="45.22805" lon="6.02938">
        <ele>2006.4499511719</ele>
        <time>2017-03-25T10:22:41Z</time>
      </trkpt>
      <trkpt lat="45.228" lon="6.02932">
        <ele>2003.4499511719</ele>
        <time>2017-03-25T10:22:44Z</time>
      </trkpt>
      <trkpt lat="45.22796" lon="6.02933">
        <ele>2000.4499511719</ele>
        <time>2017-03-25T10:22:45Z</time>
      </trkpt>
      <trkpt lat="45.22791" lon="6.02937">
        <ele>1999.4499511719</ele>
        <time>2017-03-25T10:22:47Z</time>
      </trkpt>
      <trkpt lat="45.22788" lon="6.02941">
        <ele>1996.4499511719</ele>
        <time>2017-03-25T10:22:52Z</time>
      </trkpt>
      <trkpt lat="45.22782" lon="6.02941">
        <ele>1991.4499511719</ele>
        <time>2017-03-25T10:23:06Z</time>
      </trkpt>
      <trkpt lat="45.22776" lon="6.02943">
        <ele>1988.4499511719</ele>
        <time>2017-03-25T10:23:08Z</time>
      </trkpt>
      <trkpt lat="45.2277" lon="6.02945">
        <ele>1986.4499511719</ele>
        <time>2017-03-25T10:23:10Z</time>
      </trkpt>
      <trkpt lat="45.22766" lon="6.02936">
        <ele>1981.4499511719</ele>
        <time>2017-03-25T10:23:13Z</time>
      </trkpt>
      <trkpt lat="45.22758" lon="6.02932">
        <ele>1977.4499511719</ele>
        <time>2017-03-25T10:23:15Z</time>
      </trkpt>
      <trkpt lat="45.22742" lon="6.02929">
        <ele>1976.4499511719</ele>
        <time>2017-03-25T10:23:17Z</time>
      </trkpt>
      <trkpt lat="45.2272" lon="6.0293">
        <ele>1974.4499511719</ele>
        <time>2017-03-25T10:23:19Z</time>
      </trkpt>
      <trkpt lat="45.22712" lon="6.02929">
        <ele>1973.4489746094</ele>
        <time>2017-03-25T10:23:21Z</time>
      </trkpt>
      <trkpt lat="45.22701" lon="6.02927">
        <ele>1970.4489746094</ele>
        <time>2017-03-25T10:23:23Z</time>
      </trkpt>
      <trkpt lat="45.22688" lon="6.02923">
        <ele>1967.4489746094</ele>
        <time>2017-03-25T10:23:25Z</time>
      </trkpt>
      <trkpt lat="45.22674" lon="6.02915">
        <ele>1964.4489746094</ele>
        <time>2017-03-25T10:23:27Z</time>
      </trkpt>
      <trkpt lat="45.22667" lon="6.02907">
        <ele>1961.4489746094</ele>
        <time>2017-03-25T10:23:28Z</time>
      </trkpt>
      <trkpt lat="45.22656" lon="6.02894">
        <ele>1958.4489746094</ele>
        <time>2017-03-25T10:23:30Z</time>
      </trkpt>
      <trkpt lat="45.22647" lon="6.02885">
        <ele>1955.4489746094</ele>
        <time>2017-03-25T10:23:34Z</time>
      </trkpt>
      <trkpt lat="45.2265" lon="6.02879">
        <ele>1951.4489746094</ele>
        <time>2017-03-25T10:23:39Z</time>
      </trkpt>
      <trkpt lat="45.22652" lon="6.02869">
        <ele>1949.4489746094</ele>
        <time>2017-03-25T10:23:41Z</time>
      </trkpt>
      <trkpt lat="45.22652" lon="6.02862">
        <ele>1944.4489746094</ele>
        <time>2017-03-25T10:23:43Z</time>
      </trkpt>
      <trkpt lat="45.22655" lon="6.02853">
        <ele>1939.4489746094</ele>
        <time>2017-03-25T10:23:45Z</time>
      </trkpt>
      <trkpt lat="45.22652" lon="6.02841">
        <ele>1935.4489746094</ele>
        <time>2017-03-25T10:23:47Z</time>
      </trkpt>
      <trkpt lat="45.22648" lon="6.02828">
        <ele>1931.4489746094</ele>
        <time>2017-03-25T10:23:50Z</time>
      </trkpt>
      <trkpt lat="45.22652" lon="6.02818">
        <ele>1929.4489746094</ele>
        <time>2017-03-25T10:23:52Z</time>
      </trkpt>
      <trkpt lat="45.2265" lon="6.02805">
        <ele>1926.4489746094</ele>
        <time>2017-03-25T10:23:54Z</time>
      </trkpt>
      <trkpt lat="45.22652" lon="6.02798">
        <ele>1924.4489746094</ele>
        <time>2017-03-25T10:23:56Z</time>
      </trkpt>
      <trkpt lat="45.22659" lon="6.02796">
        <ele>1924.4489746094</ele>
        <time>2017-03-25T10:23:58Z</time>
      </trkpt>
      <trkpt lat="45.22658" lon="6.02784">
        <ele>1922.4489746094</ele>
        <time>2017-03-25T10:24:00Z</time>
      </trkpt>
      <trkpt lat="45.2266" lon="6.02773">
        <ele>1915.4489746094</ele>
        <time>2017-03-25T10:24:02Z</time>
      </trkpt>
      <trkpt lat="45.22658" lon="6.02758">
        <ele>1911.4489746094</ele>
        <time>2017-03-25T10:24:04Z</time>
      </trkpt>
      <trkpt lat="45.22654" lon="6.02753">
        <ele>1909.4489746094</ele>
        <time>2017-03-25T10:24:05Z</time>
      </trkpt>
      <trkpt lat="45.22648" lon="6.02748">
        <ele>1905.4489746094</ele>
        <time>2017-03-25T10:24:07Z</time>
      </trkpt>
      <trkpt lat="45.22643" lon="6.02742">
        <ele>1903.4489746094</ele>
        <time>2017-03-25T10:24:09Z</time>
      </trkpt>
      <trkpt lat="45.22636" lon="6.02738">
        <ele>1901.4489746094</ele>
        <time>2017-03-25T10:24:11Z</time>
      </trkpt>
      <trkpt lat="45.22632" lon="6.02735">
        <ele>1899.4489746094</ele>
        <time>2017-03-25T10:24:13Z</time>
      </trkpt>
      <trkpt lat="45.22624" lon="6.02729">
        <ele>1895.4489746094</ele>
        <time>2017-03-25T10:24:15Z</time>
      </trkpt>
      <trkpt lat="45.22615" lon="6.02724">
        <ele>1892.4489746094</ele>
        <time>2017-03-25T10:24:17Z</time>
      </trkpt>
      <trkpt lat="45.22605" lon="6.02721">
        <ele>1888.4489746094</ele>
        <time>2017-03-25T10:24:19Z</time>
      </trkpt>
      <trkpt lat="45.22595" lon="6.02715">
        <ele>1886.4489746094</ele>
        <time>2017-03-25T10:24:21Z</time>
      </trkpt>
      <trkpt lat="45.22586" lon="6.0271">
        <ele>1885.4489746094</ele>
        <time>2017-03-25T10:24:23Z</time>
      </trkpt>
      <trkpt lat="45.22574" lon="6.02708">
        <ele>1883.4489746094</ele>
        <time>2017-03-25T10:24:26Z</time>
      </trkpt>
      <trkpt lat="45.22568" lon="6.02713">
        <ele>1882.4489746094</ele>
        <time>2017-03-25T10:24:28Z</time>
      </trkpt>
      <trkpt lat="45.22563" lon="6.02715">
        <ele>1881.4489746094</ele>
        <time>2017-03-25T10:24:42Z</time>
      </trkpt>
      <trkpt lat="45.22556" lon="6.02711">
        <ele>1878.4489746094</ele>
        <time>2017-03-25T10:24:44Z</time>
      </trkpt>
      <trkpt lat="45.22544" lon="6.02708">
        <ele>1874.4489746094</ele>
        <time>2017-03-25T10:24:47Z</time>
      </trkpt>
      <trkpt lat="45.22527" lon="6.02706">
        <ele>1873.4489746094</ele>
        <time>2017-03-25T10:24:51Z</time>
      </trkpt>
      <trkpt lat="45.22513" lon="6.02706">
        <ele>1872.4489746094</ele>
        <time>2017-03-25T10:24:54Z</time>
      </trkpt>
      <trkpt lat="45.22502" lon="6.02704">
        <ele>1870.4489746094</ele>
        <time>2017-03-25T10:24:56Z</time>
      </trkpt>
      <trkpt lat="45.22493" lon="6.02701">
        <ele>1865.4489746094</ele>
        <time>2017-03-25T10:24:58Z</time>
      </trkpt>
      <trkpt lat="45.22478" lon="6.02692">
        <ele>1862.4489746094</ele>
        <time>2017-03-25T10:25:01Z</time>
      </trkpt>
      <trkpt lat="45.2247" lon="6.02686">
        <ele>1860.4489746094</ele>
        <time>2017-03-25T10:25:03Z</time>
      </trkpt>
      <trkpt lat="45.22457" lon="6.02677">
        <ele>1857.4489746094</ele>
        <time>2017-03-25T10:25:06Z</time>
      </trkpt>
      <trkpt lat="45.2245" lon="6.02674">
        <ele>1856.4489746094</ele>
        <time>2017-03-25T10:25:08Z</time>
      </trkpt>
      <trkpt lat="45.22444" lon="6.02672">
        <ele>1855.4489746094</ele>
        <time>2017-03-25T10:25:10Z</time>
      </trkpt>
      <trkpt lat="45.22439" lon="6.0267">
        <ele>1854.4489746094</ele>
        <time>2017-03-25T10:25:13Z</time>
      </trkpt>
      <trkpt lat="45.22433" lon="6.02666">
        <ele>1854.4489746094</ele>
        <time>2017-03-25T10:25:16Z</time>
      </trkpt>
      <trkpt lat="45.22428" lon="6.02663">
        <ele>1855.4489746094</ele>
        <time>2017-03-25T10:25:20Z</time>
      </trkpt>
      <trkpt lat="45.22422" lon="6.02662">
        <ele>1856.4489746094</ele>
        <time>2017-03-25T10:25:24Z</time>
      </trkpt>
      <trkpt lat="45.22417" lon="6.02661">
        <ele>1856.4489746094</ele>
        <time>2017-03-25T10:25:26Z</time>
      </trkpt>
      <trkpt lat="45.22411" lon="6.0266">
        <ele>1854.4489746094</ele>
        <time>2017-03-25T10:25:28Z</time>
      </trkpt>
      <trkpt lat="45.22404" lon="6.02653">
        <ele>1851.4479980469</ele>
        <time>2017-03-25T10:25:30Z</time>
      </trkpt>
      <trkpt lat="45.22398" lon="6.02649">
        <ele>1851.4479980469</ele>
        <time>2017-03-25T10:25:31Z</time>
      </trkpt>
      <trkpt lat="45.22385" lon="6.02641">
        <ele>1851.4479980469</ele>
        <time>2017-03-25T10:25:34Z</time>
      </trkpt>
      <trkpt lat="45.22381" lon="6.02639">
        <ele>1850.4479980469</ele>
        <time>2017-03-25T10:25:35Z</time>
      </trkpt>
      <trkpt lat="45.22374" lon="6.02639">
        <ele>1845.4479980469</ele>
        <time>2017-03-25T10:25:37Z</time>
      </trkpt>
      <trkpt lat="45.22364" lon="6.02636">
        <ele>1843.4479980469</ele>
        <time>2017-03-25T10:25:39Z</time>
      </trkpt>
      <trkpt lat="45.22359" lon="6.02636">
        <ele>1842.4479980469</ele>
        <time>2017-03-25T10:25:40Z</time>
      </trkpt>
      <trkpt lat="45.22346" lon="6.02633">
        <ele>1841.4479980469</ele>
        <time>2017-03-25T10:25:42Z</time>
      </trkpt>
      <trkpt lat="45.22336" lon="6.02634">
        <ele>1838.4479980469</ele>
        <time>2017-03-25T10:25:44Z</time>
      </trkpt>
      <trkpt lat="45.22327" lon="6.02625">
        <ele>1835.4479980469</ele>
        <time>2017-03-25T10:25:46Z</time>
      </trkpt>
      <trkpt lat="45.22315" lon="6.02619">
        <ele>1834.4479980469</ele>
        <time>2017-03-25T10:25:48Z</time>
      </trkpt>
      <trkpt lat="45.22308" lon="6.0261">
        <ele>1833.4479980469</ele>
        <time>2017-03-25T10:25:50Z</time>
      </trkpt>
      <trkpt lat="45.22304" lon="6.02593">
        <ele>1832.4479980469</ele>
        <time>2017-03-25T10:25:52Z</time>
      </trkpt>
      <trkpt lat="45.22307" lon="6.02575">
        <ele>1830.4479980469</ele>
        <time>2017-03-25T10:25:54Z</time>
      </trkpt>
      <trkpt lat="45.22308" lon="6.02561">
        <ele>1829.4479980469</ele>
        <time>2017-03-25T10:25:56Z</time>
      </trkpt>
      <trkpt lat="45.22309" lon="6.0255">
        <ele>1828.4479980469</ele>
        <time>2017-03-25T10:25:58Z</time>
      </trkpt>
      <trkpt lat="45.22311" lon="6.0254">
        <ele>1819.4479980469</ele>
        <time>2017-03-25T10:25:59Z</time>
      </trkpt>
      <trkpt lat="45.22318" lon="6.02527">
        <ele>1815.4479980469</ele>
        <time>2017-03-25T10:26:01Z</time>
      </trkpt>
      <trkpt lat="45.22319" lon="6.02514">
        <ele>1812.4479980469</ele>
        <time>2017-03-25T10:26:03Z</time>
      </trkpt>
      <trkpt lat="45.22322" lon="6.02505">
        <ele>1810.4479980469</ele>
        <time>2017-03-25T10:26:04Z</time>
      </trkpt>
      <trkpt lat="45.22317" lon="6.02488">
        <ele>1808.4479980469</ele>
        <time>2017-03-25T10:26:07Z</time>
      </trkpt>
      <trkpt lat="45.2232" lon="6.02468">
        <ele>1803.4479980469</ele>
        <time>2017-03-25T10:26:09Z</time>
      </trkpt>
      <trkpt lat="45.22331" lon="6.02449">
        <ele>1795.4479980469</ele>
        <time>2017-03-25T10:26:11Z</time>
      </trkpt>
      <trkpt lat="45.22337" lon="6.02441">
        <ele>1791.4479980469</ele>
        <time>2017-03-25T10:26:12Z</time>
      </trkpt>
      <trkpt lat="45.22344" lon="6.02432">
        <ele>1789.4479980469</ele>
        <time>2017-03-25T10:26:13Z</time>
      </trkpt>
      <trkpt lat="45.22355" lon="6.02422">
        <ele>1785.4479980469</ele>
        <time>2017-03-25T10:26:15Z</time>
      </trkpt>
      <trkpt lat="45.2236" lon="6.02413">
        <ele>1784.4479980469</ele>
        <time>2017-03-25T10:26:17Z</time>
      </trkpt>
      <trkpt lat="45.22353" lon="6.02411">
        <ele>1776.4479980469</ele>
        <time>2017-03-25T10:26:42Z</time>
      </trkpt>
      <trkpt lat="45.2235" lon="6.02404">
        <ele>1775.4479980469</ele>
        <time>2017-03-25T10:26:43Z</time>
      </trkpt>
      <trkpt lat="45.22349" lon="6.02396">
        <ele>1774.4479980469</ele>
        <time>2017-03-25T10:26:44Z</time>
      </trkpt>
      <trkpt lat="45.22345" lon="6.0238">
        <ele>1770.4479980469</ele>
        <time>2017-03-25T10:26:46Z</time>
      </trkpt>
      <trkpt lat="45.22335" lon="6.02379">
        <ele>1768.4479980469</ele>
        <time>2017-03-25T10:26:48Z</time>
      </trkpt>
      <trkpt lat="45.22327" lon="6.02378">
        <ele>1769.4479980469</ele>
        <time>2017-03-25T10:26:49Z</time>
      </trkpt>
      <trkpt lat="45.22322" lon="6.02378">
        <ele>1767.4479980469</ele>
        <time>2017-03-25T10:26:50Z</time>
      </trkpt>
      <trkpt lat="45.22311" lon="6.02368">
        <ele>1766.4479980469</ele>
        <time>2017-03-25T10:26:52Z</time>
      </trkpt>
      <trkpt lat="45.22305" lon="6.02364">
        <ele>1768.4479980469</ele>
        <time>2017-03-25T10:26:53Z</time>
      </trkpt>
      <trkpt lat="45.223" lon="6.02367">
        <ele>1768.4479980469</ele>
        <time>2017-03-25T10:26:54Z</time>
      </trkpt>
      <trkpt lat="45.2229" lon="6.02371">
        <ele>1760.4479980469</ele>
        <time>2017-03-25T10:26:56Z</time>
      </trkpt>
      <trkpt lat="45.22283" lon="6.02375">
        <ele>1758.4479980469</ele>
        <time>2017-03-25T10:26:57Z</time>
      </trkpt>
      <trkpt lat="45.22274" lon="6.02384">
        <ele>1757.4479980469</ele>
        <time>2017-03-25T10:26:59Z</time>
      </trkpt>
      <trkpt lat="45.22267" lon="6.02384">
        <ele>1756.4479980469</ele>
        <time>2017-03-25T10:27:03Z</time>
      </trkpt>
      <trkpt lat="45.22262" lon="6.02387">
        <ele>1755.4479980469</ele>
        <time>2017-03-25T10:27:04Z</time>
      </trkpt>
      <trkpt lat="45.22256" lon="6.02389">
        <ele>1756.4479980469</ele>
        <time>2017-03-25T10:27:06Z</time>
      </trkpt>
      <trkpt lat="45.22249" lon="6.0239">
        <ele>1754.4479980469</ele>
        <time>2017-03-25T10:27:08Z</time>
      </trkpt>
      <trkpt lat="45.22244" lon="6.02376">
        <ele>1753.4479980469</ele>
        <time>2017-03-25T10:27:10Z</time>
      </trkpt>
      <trkpt lat="45.22236" lon="6.02358">
        <ele>1750.4479980469</ele>
        <time>2017-03-25T10:27:12Z</time>
      </trkpt>
      <trkpt lat="45.2224" lon="6.02337">
        <ele>1751.4479980469</ele>
        <time>2017-03-25T10:27:14Z</time>
      </trkpt>
      <trkpt lat="45.2224" lon="6.02329">
        <ele>1750.4479980469</ele>
        <time>2017-03-25T10:27:15Z</time>
      </trkpt>
      <trkpt lat="45.22238" lon="6.02322">
        <ele>1748.4479980469</ele>
        <time>2017-03-25T10:27:16Z</time>
      </trkpt>
      <trkpt lat="45.22236" lon="6.02316">
        <ele>1747.4479980469</ele>
        <time>2017-03-25T10:27:17Z</time>
      </trkpt>
      <trkpt lat="45.22229" lon="6.02306">
        <ele>1746.4479980469</ele>
        <time>2017-03-25T10:27:20Z</time>
      </trkpt>
      <trkpt lat="45.22226" lon="6.023">
        <ele>1746.4479980469</ele>
        <time>2017-03-25T10:27:22Z</time>
      </trkpt>
      <trkpt lat="45.22223" lon="6.02292">
        <ele>1744.4479980469</ele>
        <time>2017-03-25T10:27:25Z</time>
      </trkpt>
      <trkpt lat="45.22224" lon="6.02283">
        <ele>1742.4479980469</ele>
        <time>2017-03-25T10:27:27Z</time>
      </trkpt>
      <trkpt lat="45.22224" lon="6.02276">
        <ele>1741.4479980469</ele>
        <time>2017-03-25T10:27:43Z</time>
      </trkpt>
      <trkpt lat="45.22225" lon="6.02268">
        <ele>1741.4479980469</ele>
        <time>2017-03-25T10:27:45Z</time>
      </trkpt>
      <trkpt lat="45.22227" lon="6.0226">
        <ele>1740.4479980469</ele>
        <time>2017-03-25T10:27:47Z</time>
      </trkpt>
      <trkpt lat="45.22229" lon="6.02253">
        <ele>1738.4479980469</ele>
        <time>2017-03-25T10:27:49Z</time>
      </trkpt>
      <trkpt lat="45.2223" lon="6.02247">
        <ele>1740.4479980469</ele>
        <time>2017-03-25T10:27:51Z</time>
      </trkpt>
      <trkpt lat="45.22231" lon="6.02239">
        <ele>1739.4479980469</ele>
        <time>2017-03-25T10:27:54Z</time>
      </trkpt>
      <trkpt lat="45.22231" lon="6.02232">
        <ele>1738.4479980469</ele>
        <time>2017-03-25T10:27:57Z</time>
      </trkpt>
      <trkpt lat="45.22231" lon="6.02226">
        <ele>1740.4479980469</ele>
        <time>2017-03-25T10:28:00Z</time>
      </trkpt>
      <trkpt lat="45.2223" lon="6.02218">
        <ele>1740.4479980469</ele>
        <time>2017-03-25T10:28:03Z</time>
      </trkpt>
      <trkpt lat="45.22229" lon="6.02211">
        <ele>1738.4479980469</ele>
        <time>2017-03-25T10:28:06Z</time>
      </trkpt>
      <trkpt lat="45.22229" lon="6.02203">
        <ele>1736.4479980469</ele>
        <time>2017-03-25T10:28:08Z</time>
      </trkpt>
      <trkpt lat="45.22229" lon="6.02191">
        <ele>1736.4479980469</ele>
        <time>2017-03-25T10:28:10Z</time>
      </trkpt>
      <trkpt lat="45.22235" lon="6.02173">
        <ele>1735.4470214844</ele>
        <time>2017-03-25T10:28:13Z</time>
      </trkpt>
      <trkpt lat="45.22243" lon="6.02162">
        <ele>1731.4470214844</ele>
        <time>2017-03-25T10:28:15Z</time>
      </trkpt>
      <trkpt lat="45.22246" lon="6.02147">
        <ele>1731.4470214844</ele>
        <time>2017-03-25T10:28:17Z</time>
      </trkpt>
      <trkpt lat="45.22248" lon="6.02128">
        <ele>1730.4470214844</ele>
        <time>2017-03-25T10:28:19Z</time>
      </trkpt>
      <trkpt lat="45.22248" lon="6.02115">
        <ele>1731.4470214844</ele>
        <time>2017-03-25T10:28:21Z</time>
      </trkpt>
      <trkpt lat="45.22251" lon="6.02097">
        <ele>1729.4470214844</ele>
        <time>2017-03-25T10:28:24Z</time>
      </trkpt>
      <trkpt lat="45.22248" lon="6.02086">
        <ele>1725.4470214844</ele>
        <time>2017-03-25T10:28:26Z</time>
      </trkpt>
      <trkpt lat="45.22247" lon="6.02078">
        <ele>1724.4470214844</ele>
        <time>2017-03-25T10:28:27Z</time>
      </trkpt>
      <trkpt lat="45.22246" lon="6.02061">
        <ele>1722.4470214844</ele>
        <time>2017-03-25T10:28:29Z</time>
      </trkpt>
      <trkpt lat="45.22247" lon="6.02041">
        <ele>1720.4470214844</ele>
        <time>2017-03-25T10:28:31Z</time>
      </trkpt>
      <trkpt lat="45.22247" lon="6.02028">
        <ele>1715.4470214844</ele>
        <time>2017-03-25T10:28:33Z</time>
      </trkpt>
      <trkpt lat="45.22246" lon="6.02011">
        <ele>1714.4470214844</ele>
        <time>2017-03-25T10:28:35Z</time>
      </trkpt>
      <trkpt lat="45.22246" lon="6.01993">
        <ele>1716.4470214844</ele>
        <time>2017-03-25T10:28:37Z</time>
      </trkpt>
      <trkpt lat="45.22252" lon="6.0197">
        <ele>1716.4470214844</ele>
        <time>2017-03-25T10:28:39Z</time>
      </trkpt>
      <trkpt lat="45.22253" lon="6.0195">
        <ele>1712.4470214844</ele>
        <time>2017-03-25T10:28:42Z</time>
      </trkpt>
      <trkpt lat="45.22253" lon="6.01939">
        <ele>1711.4470214844</ele>
        <time>2017-03-25T10:28:44Z</time>
      </trkpt>
      <trkpt lat="45.22251" lon="6.01925">
        <ele>1707.4470214844</ele>
        <time>2017-03-25T10:28:46Z</time>
      </trkpt>
      <trkpt lat="45.22252" lon="6.01918">
        <ele>1706.4470214844</ele>
        <time>2017-03-25T10:28:47Z</time>
      </trkpt>
      <trkpt lat="45.22253" lon="6.01896">
        <ele>1701.4470214844</ele>
        <time>2017-03-25T10:28:50Z</time>
      </trkpt>
      <trkpt lat="45.22258" lon="6.01886">
        <ele>1702.4470214844</ele>
        <time>2017-03-25T10:28:52Z</time>
      </trkpt>
      <trkpt lat="45.22257" lon="6.01877">
        <ele>1701.4470214844</ele>
        <time>2017-03-25T10:28:54Z</time>
      </trkpt>
      <trkpt lat="45.22258" lon="6.01868">
        <ele>1700.4470214844</ele>
        <time>2017-03-25T10:28:56Z</time>
      </trkpt>
      <trkpt lat="45.22258" lon="6.01859">
        <ele>1699.4470214844</ele>
        <time>2017-03-25T10:28:58Z</time>
      </trkpt>
      <trkpt lat="45.22258" lon="6.01853">
        <ele>1696.4470214844</ele>
        <time>2017-03-25T10:29:01Z</time>
      </trkpt>
      <trkpt lat="45.22255" lon="6.01843">
        <ele>1695.4470214844</ele>
        <time>2017-03-25T10:29:05Z</time>
      </trkpt>
      <trkpt lat="45.22257" lon="6.01828">
        <ele>1694.4470214844</ele>
        <time>2017-03-25T10:29:07Z</time>
      </trkpt>
      <trkpt lat="45.22261" lon="6.01825">
        <ele>1694.4470214844</ele>
        <time>2017-03-25T10:29:13Z</time>
      </trkpt>
      <trkpt lat="45.22263" lon="6.01818">
        <ele>1688.4470214844</ele>
        <time>2017-03-25T10:29:17Z</time>
      </trkpt>
      <trkpt lat="45.22264" lon="6.01812">
        <ele>1683.4470214844</ele>
        <time>2017-03-25T10:30:14Z</time>
      </trkpt>
      <trkpt lat="45.22262" lon="6.01806">
        <ele>1683.4470214844</ele>
        <time>2017-03-25T10:30:16Z</time>
      </trkpt>
      <trkpt lat="45.22259" lon="6.018">
        <ele>1682.4470214844</ele>
        <time>2017-03-25T10:30:18Z</time>
      </trkpt>
      <trkpt lat="45.22256" lon="6.01794">
        <ele>1682.4470214844</ele>
        <time>2017-03-25T10:30:20Z</time>
      </trkpt>
      <trkpt lat="45.22255" lon="6.01788">
        <ele>1679.4470214844</ele>
        <time>2017-03-25T10:30:25Z</time>
      </trkpt>
      <trkpt lat="45.22258" lon="6.01768">
        <ele>1679.4470214844</ele>
        <time>2017-03-25T10:30:27Z</time>
      </trkpt>
      <trkpt lat="45.22261" lon="6.01739">
        <ele>1677.4470214844</ele>
        <time>2017-03-25T10:30:29Z</time>
      </trkpt>
      <trkpt lat="45.22263" lon="6.01719">
        <ele>1676.4470214844</ele>
        <time>2017-03-25T10:30:31Z</time>
      </trkpt>
      <trkpt lat="45.22262" lon="6.01713">
        <ele>1676.4470214844</ele>
        <time>2017-03-25T10:30:32Z</time>
      </trkpt>
      <trkpt lat="45.22264" lon="6.01704">
        <ele>1675.4470214844</ele>
        <time>2017-03-25T10:30:34Z</time>
      </trkpt>
      <trkpt lat="45.22263" lon="6.01694">
        <ele>1675.4470214844</ele>
        <time>2017-03-25T10:30:37Z</time>
      </trkpt>
      <trkpt lat="45.22262" lon="6.01687">
        <ele>1675.4470214844</ele>
        <time>2017-03-25T10:30:39Z</time>
      </trkpt>
      <trkpt lat="45.22263" lon="6.0168">
        <ele>1673.4470214844</ele>
        <time>2017-03-25T10:30:42Z</time>
      </trkpt>
      <trkpt lat="45.22263" lon="6.01673">
        <ele>1674.4470214844</ele>
        <time>2017-03-25T10:30:45Z</time>
      </trkpt>
      <trkpt lat="45.22262" lon="6.01666">
        <ele>1675.4470214844</ele>
        <time>2017-03-25T10:30:47Z</time>
      </trkpt>
      <trkpt lat="45.22262" lon="6.01658">
        <ele>1675.4470214844</ele>
        <time>2017-03-25T10:30:50Z</time>
      </trkpt>
      <trkpt lat="45.22262" lon="6.01651">
        <ele>1676.4470214844</ele>
        <time>2017-03-25T10:30:54Z</time>
      </trkpt>
      <trkpt lat="45.2226" lon="6.01645">
        <ele>1679.4470214844</ele>
        <time>2017-03-25T10:30:58Z</time>
      </trkpt>
      <trkpt lat="45.2226" lon="6.01637">
        <ele>1680.4470214844</ele>
        <time>2017-03-25T10:31:03Z</time>
      </trkpt>
      <trkpt lat="45.22259" lon="6.01628">
        <ele>1678.4470214844</ele>
        <time>2017-03-25T10:31:08Z</time>
      </trkpt>
      <trkpt lat="45.2226" lon="6.01621">
        <ele>1677.4470214844</ele>
        <time>2017-03-25T10:31:14Z</time>
      </trkpt>
      <trkpt lat="45.2226" lon="6.01612">
        <ele>1676.4470214844</ele>
        <time>2017-03-25T10:31:18Z</time>
      </trkpt>
      <trkpt lat="45.22258" lon="6.01604">
        <ele>1676.4470214844</ele>
        <time>2017-03-25T10:31:21Z</time>
      </trkpt>
      <trkpt lat="45.22258" lon="6.01596">
        <ele>1674.4470214844</ele>
        <time>2017-03-25T10:31:23Z</time>
      </trkpt>
      <trkpt lat="45.22257" lon="6.0159">
        <ele>1673.4470214844</ele>
        <time>2017-03-25T10:31:25Z</time>
      </trkpt>
      <trkpt lat="45.22256" lon="6.01584">
        <ele>1673.4470214844</ele>
        <time>2017-03-25T10:31:27Z</time>
      </trkpt>
      <trkpt lat="45.22254" lon="6.01575">
        <ele>1674.4470214844</ele>
        <time>2017-03-25T10:31:30Z</time>
      </trkpt>
      <trkpt lat="45.22252" lon="6.01568">
        <ele>1672.4470214844</ele>
        <time>2017-03-25T10:31:34Z</time>
      </trkpt>
      <trkpt lat="45.22251" lon="6.01561">
        <ele>1674.4470214844</ele>
        <time>2017-03-25T10:31:59Z</time>
      </trkpt>
      <trkpt lat="45.22249" lon="6.01554">
        <ele>1675.4470214844</ele>
        <time>2017-03-25T10:32:05Z</time>
      </trkpt>
      <trkpt lat="45.22249" lon="6.01546">
        <ele>1678.4470214844</ele>
        <time>2017-03-25T10:32:10Z</time>
      </trkpt>
      <trkpt lat="45.22244" lon="6.01539">
        <ele>1681.4470214844</ele>
        <time>2017-03-25T10:32:14Z</time>
      </trkpt>
      <trkpt lat="45.22242" lon="6.01532">
        <ele>1680.4470214844</ele>
        <time>2017-03-25T10:32:19Z</time>
      </trkpt>
      <trkpt lat="45.22241" lon="6.01524">
        <ele>1682.4470214844</ele>
        <time>2017-03-25T10:32:22Z</time>
      </trkpt>
      <trkpt lat="45.2224" lon="6.01516">
        <ele>1678.4470214844</ele>
        <time>2017-03-25T10:32:47Z</time>
      </trkpt>
      <trkpt lat="45.22238" lon="6.01508">
        <ele>1683.4470214844</ele>
        <time>2017-03-25T10:32:51Z</time>
      </trkpt>
      <trkpt lat="45.22238" lon="6.015">
        <ele>1681.4470214844</ele>
        <time>2017-03-25T10:32:54Z</time>
      </trkpt>
      <trkpt lat="45.22237" lon="6.01492">
        <ele>1681.4470214844</ele>
        <time>2017-03-25T10:32:57Z</time>
      </trkpt>
      <trkpt lat="45.22236" lon="6.01485">
        <ele>1682.4470214844</ele>
        <time>2017-03-25T10:33:00Z</time>
      </trkpt>
      <trkpt lat="45.22235" lon="6.01477">
        <ele>1679.4470214844</ele>
        <time>2017-03-25T10:33:02Z</time>
      </trkpt>
      <trkpt lat="45.22233" lon="6.01461">
        <ele>1679.4460449219</ele>
        <time>2017-03-25T10:33:05Z</time>
      </trkpt>
      <trkpt lat="45.2223" lon="6.0145">
        <ele>1679.4460449219</ele>
        <time>2017-03-25T10:33:07Z</time>
      </trkpt>
      <trkpt lat="45.22228" lon="6.01441">
        <ele>1678.4460449219</ele>
        <time>2017-03-25T10:33:09Z</time>
      </trkpt>
      <trkpt lat="45.22228" lon="6.0143">
        <ele>1676.4460449219</ele>
        <time>2017-03-25T10:33:12Z</time>
      </trkpt>
      <trkpt lat="45.22231" lon="6.01419">
        <ele>1676.4460449219</ele>
        <time>2017-03-25T10:33:14Z</time>
      </trkpt>
      <trkpt lat="45.22233" lon="6.01412">
        <ele>1674.4460449219</ele>
        <time>2017-03-25T10:33:16Z</time>
      </trkpt>
      <trkpt lat="45.22236" lon="6.01403">
        <ele>1675.4460449219</ele>
        <time>2017-03-25T10:33:18Z</time>
      </trkpt>
      <trkpt lat="45.22239" lon="6.01393">
        <ele>1672.4460449219</ele>
        <time>2017-03-25T10:33:20Z</time>
      </trkpt>
      <trkpt lat="45.22242" lon="6.01388">
        <ele>1668.4460449219</ele>
        <time>2017-03-25T10:33:22Z</time>
      </trkpt>
      <trkpt lat="45.22248" lon="6.01385">
        <ele>1668.4460449219</ele>
        <time>2017-03-25T10:33:24Z</time>
      </trkpt>
      <trkpt lat="45.22252" lon="6.01381">
        <ele>1667.4460449219</ele>
        <time>2017-03-25T10:33:25Z</time>
      </trkpt>
      <trkpt lat="45.22257" lon="6.01378">
        <ele>1665.4460449219</ele>
        <time>2017-03-25T10:33:27Z</time>
      </trkpt>
      <trkpt lat="45.2226" lon="6.01373">
        <ele>1665.4460449219</ele>
        <time>2017-03-25T10:33:30Z</time>
      </trkpt>
      <trkpt lat="45.22265" lon="6.0137">
        <ele>1666.4460449219</ele>
        <time>2017-03-25T10:33:32Z</time>
      </trkpt>
      <trkpt lat="45.22271" lon="6.01366">
        <ele>1667.4460449219</ele>
        <time>2017-03-25T10:33:34Z</time>
      </trkpt>
      <trkpt lat="45.2227" lon="6.01355">
        <ele>1665.4460449219</ele>
        <time>2017-03-25T10:33:36Z</time>
      </trkpt>
      <trkpt lat="45.22273" lon="6.01341">
        <ele>1666.4460449219</ele>
        <time>2017-03-25T10:33:39Z</time>
      </trkpt>
      <trkpt lat="45.22276" lon="6.01335">
        <ele>1664.4460449219</ele>
        <time>2017-03-25T10:33:41Z</time>
      </trkpt>
      <trkpt lat="45.22276" lon="6.01326">
        <ele>1663.4460449219</ele>
        <time>2017-03-25T10:33:43Z</time>
      </trkpt>
      <trkpt lat="45.22273" lon="6.01318">
        <ele>1663.4460449219</ele>
        <time>2017-03-25T10:33:45Z</time>
      </trkpt>
      <trkpt lat="45.22267" lon="6.01319">
        <ele>1661.4460449219</ele>
        <time>2017-03-25T10:33:48Z</time>
      </trkpt>
      <trkpt lat="45.22262" lon="6.01319">
        <ele>1658.4460449219</ele>
        <time>2017-03-25T10:33:50Z</time>
      </trkpt>
      <trkpt lat="45.22254" lon="6.01314">
        <ele>1657.4460449219</ele>
        <time>2017-03-25T10:33:52Z</time>
      </trkpt>
      <trkpt lat="45.22245" lon="6.01318">
        <ele>1656.4460449219</ele>
        <time>2017-03-25T10:33:53Z</time>
      </trkpt>
      <trkpt lat="45.22236" lon="6.01307">
        <ele>1655.4460449219</ele>
        <time>2017-03-25T10:33:56Z</time>
      </trkpt>
      <trkpt lat="45.22227" lon="6.01291">
        <ele>1652.4460449219</ele>
        <time>2017-03-25T10:33:58Z</time>
      </trkpt>
      <trkpt lat="45.22228" lon="6.01283">
        <ele>1651.4460449219</ele>
        <time>2017-03-25T10:33:59Z</time>
      </trkpt>
      <trkpt lat="45.22227" lon="6.01271">
        <ele>1651.4460449219</ele>
        <time>2017-03-25T10:34:01Z</time>
      </trkpt>
      <trkpt lat="45.2223" lon="6.01255">
        <ele>1649.4460449219</ele>
        <time>2017-03-25T10:34:03Z</time>
      </trkpt>
      <trkpt lat="45.22232" lon="6.01245">
        <ele>1646.4460449219</ele>
        <time>2017-03-25T10:34:05Z</time>
      </trkpt>
      <trkpt lat="45.22236" lon="6.01239">
        <ele>1644.4460449219</ele>
        <time>2017-03-25T10:34:07Z</time>
      </trkpt>
      <trkpt lat="45.22239" lon="6.01232">
        <ele>1643.4460449219</ele>
        <time>2017-03-25T10:34:09Z</time>
      </trkpt>
      <trkpt lat="45.22236" lon="6.01226">
        <ele>1639.4460449219</ele>
        <time>2017-03-25T10:34:11Z</time>
      </trkpt>
      <trkpt lat="45.22235" lon="6.01218">
        <ele>1635.4460449219</ele>
        <time>2017-03-25T10:34:14Z</time>
      </trkpt>
      <trkpt lat="45.22232" lon="6.01209">
        <ele>1633.4460449219</ele>
        <time>2017-03-25T10:34:16Z</time>
      </trkpt>
      <trkpt lat="45.22236" lon="6.0119">
        <ele>1631.4460449219</ele>
        <time>2017-03-25T10:34:18Z</time>
      </trkpt>
      <trkpt lat="45.22236" lon="6.01169">
        <ele>1630.4460449219</ele>
        <time>2017-03-25T10:34:20Z</time>
      </trkpt>
      <trkpt lat="45.22232" lon="6.01155">
        <ele>1628.4460449219</ele>
        <time>2017-03-25T10:34:22Z</time>
      </trkpt>
      <trkpt lat="45.22234" lon="6.01132">
        <ele>1627.4460449219</ele>
        <time>2017-03-25T10:34:24Z</time>
      </trkpt>
      <trkpt lat="45.22238" lon="6.01127">
        <ele>1625.4460449219</ele>
        <time>2017-03-25T10:34:25Z</time>
      </trkpt>
      <trkpt lat="45.22238" lon="6.01114">
        <ele>1622.4460449219</ele>
        <time>2017-03-25T10:34:27Z</time>
      </trkpt>
      <trkpt lat="45.22236" lon="6.01096">
        <ele>1619.4460449219</ele>
        <time>2017-03-25T10:34:29Z</time>
      </trkpt>
      <trkpt lat="45.22233" lon="6.0108">
        <ele>1613.4460449219</ele>
        <time>2017-03-25T10:34:31Z</time>
      </trkpt>
      <trkpt lat="45.22234" lon="6.01062">
        <ele>1609.4460449219</ele>
        <time>2017-03-25T10:34:33Z</time>
      </trkpt>
      <trkpt lat="45.22234" lon="6.01042">
        <ele>1606.4460449219</ele>
        <time>2017-03-25T10:34:35Z</time>
      </trkpt>
      <trkpt lat="45.22239" lon="6.01023">
        <ele>1604.4460449219</ele>
        <time>2017-03-25T10:34:37Z</time>
      </trkpt>
      <trkpt lat="45.22237" lon="6.01003">
        <ele>1600.4460449219</ele>
        <time>2017-03-25T10:34:39Z</time>
      </trkpt>
      <trkpt lat="45.22236" lon="6.00981">
        <ele>1597.4460449219</ele>
        <time>2017-03-25T10:34:43Z</time>
      </trkpt>
      <trkpt lat="45.22234" lon="6.00973">
        <ele>1595.4460449219</ele>
        <time>2017-03-25T10:34:47Z</time>
      </trkpt>
      <trkpt lat="45.22234" lon="6.00964">
        <ele>1591.4460449219</ele>
        <time>2017-03-25T10:34:50Z</time>
      </trkpt>
      <trkpt lat="45.22234" lon="6.00942">
        <ele>1585.4460449219</ele>
        <time>2017-03-25T10:34:53Z</time>
      </trkpt>
      <trkpt lat="45.22232" lon="6.00934">
        <ele>1584.4460449219</ele>
        <time>2017-03-25T10:34:54Z</time>
      </trkpt>
      <trkpt lat="45.2223" lon="6.00927">
        <ele>1583.4460449219</ele>
        <time>2017-03-25T10:34:56Z</time>
      </trkpt>
      <trkpt lat="45.22233" lon="6.00932">
        <ele>1582.4460449219</ele>
        <time>2017-03-25T10:35:00Z</time>
      </trkpt>
      <trkpt lat="45.22242" lon="6.00924">
        <ele>1578.4460449219</ele>
        <time>2017-03-25T10:35:04Z</time>
      </trkpt>
      <trkpt lat="45.22241" lon="6.0091">
        <ele>1573.4460449219</ele>
        <time>2017-03-25T10:35:06Z</time>
      </trkpt>
      <trkpt lat="45.22243" lon="6.00901">
        <ele>1572.4460449219</ele>
        <time>2017-03-25T10:35:07Z</time>
      </trkpt>
      <trkpt lat="45.22244" lon="6.00884">
        <ele>1570.4460449219</ele>
        <time>2017-03-25T10:35:09Z</time>
      </trkpt>
      <trkpt lat="45.2224" lon="6.00869">
        <ele>1566.4460449219</ele>
        <time>2017-03-25T10:35:11Z</time>
      </trkpt>
      <trkpt lat="45.22234" lon="6.00859">
        <ele>1563.4460449219</ele>
        <time>2017-03-25T10:35:13Z</time>
      </trkpt>
      <trkpt lat="45.2223" lon="6.00854">
        <ele>1561.4460449219</ele>
        <time>2017-03-25T10:35:15Z</time>
      </trkpt>
      <trkpt lat="45.22227" lon="6.00843">
        <ele>1557.4460449219</ele>
        <time>2017-03-25T10:35:17Z</time>
      </trkpt>
      <trkpt lat="45.22224" lon="6.00831">
        <ele>1556.4460449219</ele>
        <time>2017-03-25T10:35:19Z</time>
      </trkpt>
      <trkpt lat="45.22215" lon="6.00816">
        <ele>1555.4460449219</ele>
        <time>2017-03-25T10:35:22Z</time>
      </trkpt>
      <trkpt lat="45.22207" lon="6.00805">
        <ele>1550.4460449219</ele>
        <time>2017-03-25T10:35:25Z</time>
      </trkpt>
      <trkpt lat="45.22204" lon="6.00797">
        <ele>1549.4460449219</ele>
        <time>2017-03-25T10:35:27Z</time>
      </trkpt>
      <trkpt lat="45.22201" lon="6.00789">
        <ele>1547.4460449219</ele>
        <time>2017-03-25T10:35:29Z</time>
      </trkpt>
      <trkpt lat="45.222" lon="6.0078">
        <ele>1548.4449462891</ele>
        <time>2017-03-25T10:35:32Z</time>
      </trkpt>
      <trkpt lat="45.22198" lon="6.00773">
        <ele>1546.4449462891</ele>
        <time>2017-03-25T10:35:34Z</time>
      </trkpt>
      <trkpt lat="45.22195" lon="6.00764">
        <ele>1545.4449462891</ele>
        <time>2017-03-25T10:35:36Z</time>
      </trkpt>
      <trkpt lat="45.22197" lon="6.00746">
        <ele>1540.4449462891</ele>
        <time>2017-03-25T10:35:38Z</time>
      </trkpt>
      <trkpt lat="45.22198" lon="6.00738">
        <ele>1535.4449462891</ele>
        <time>2017-03-25T10:35:41Z</time>
      </trkpt>
      <trkpt lat="45.222" lon="6.00731">
        <ele>1533.4449462891</ele>
        <time>2017-03-25T10:35:43Z</time>
      </trkpt>
      <trkpt lat="45.22207" lon="6.0073">
        <ele>1533.4449462891</ele>
        <time>2017-03-25T10:35:45Z</time>
      </trkpt>
      <trkpt lat="45.22205" lon="6.00724">
        <ele>1532.4449462891</ele>
        <time>2017-03-25T10:35:46Z</time>
      </trkpt>
      <trkpt lat="45.22211" lon="6.00718">
        <ele>1531.4449462891</ele>
        <time>2017-03-25T10:35:48Z</time>
      </trkpt>
      <trkpt lat="45.22213" lon="6.00706">
        <ele>1529.4449462891</ele>
        <time>2017-03-25T10:35:51Z</time>
      </trkpt>
      <trkpt lat="45.22212" lon="6.00693">
        <ele>1528.4449462891</ele>
        <time>2017-03-25T10:35:53Z</time>
      </trkpt>
      <trkpt lat="45.22209" lon="6.00681">
        <ele>1527.4449462891</ele>
        <time>2017-03-25T10:35:56Z</time>
      </trkpt>
      <trkpt lat="45.22209" lon="6.00674">
        <ele>1523.4449462891</ele>
        <time>2017-03-25T10:36:20Z</time>
      </trkpt>
      <trkpt lat="45.2221" lon="6.00666">
        <ele>1521.4449462891</ele>
        <time>2017-03-25T10:36:24Z</time>
      </trkpt>
      <trkpt lat="45.22211" lon="6.00658">
        <ele>1520.4449462891</ele>
        <time>2017-03-25T10:36:29Z</time>
      </trkpt>
      <trkpt lat="45.2221" lon="6.00652">
        <ele>1520.4449462891</ele>
        <time>2017-03-25T10:36:36Z</time>
      </trkpt>
      <trkpt lat="45.22214" lon="6.00646">
        <ele>1516.4449462891</ele>
        <time>2017-03-25T10:36:51Z</time>
      </trkpt>
      <trkpt lat="45.22217" lon="6.0064">
        <ele>1513.4449462891</ele>
        <time>2017-03-25T10:36:54Z</time>
      </trkpt>
      <trkpt lat="45.22221" lon="6.00634">
        <ele>1513.4449462891</ele>
        <time>2017-03-25T10:36:57Z</time>
      </trkpt>
      <trkpt lat="45.22224" lon="6.00629">
        <ele>1512.4449462891</ele>
        <time>2017-03-25T10:37:01Z</time>
      </trkpt>
      <trkpt lat="45.22227" lon="6.00619">
        <ele>1512.4449462891</ele>
        <time>2017-03-25T10:37:10Z</time>
      </trkpt>
      <trkpt lat="45.22222" lon="6.0061">
        <ele>1511.4449462891</ele>
        <time>2017-03-25T10:37:12Z</time>
      </trkpt>
      <trkpt lat="45.22217" lon="6.00599">
        <ele>1509.4449462891</ele>
        <time>2017-03-25T10:37:14Z</time>
      </trkpt>
      <trkpt lat="45.2222" lon="6.00587">
        <ele>1507.4449462891</ele>
        <time>2017-03-25T10:37:17Z</time>
      </trkpt>
      <trkpt lat="45.22222" lon="6.00579">
        <ele>1506.4449462891</ele>
        <time>2017-03-25T10:37:19Z</time>
      </trkpt>
      <trkpt lat="45.22224" lon="6.00571">
        <ele>1502.4449462891</ele>
        <time>2017-03-25T10:37:24Z</time>
      </trkpt>
      <trkpt lat="45.22223" lon="6.00564">
        <ele>1500.4449462891</ele>
        <time>2017-03-25T10:37:26Z</time>
      </trkpt>
      <trkpt lat="45.22223" lon="6.00557">
        <ele>1499.4449462891</ele>
        <time>2017-03-25T10:37:29Z</time>
      </trkpt>
      <trkpt lat="45.22225" lon="6.00551">
        <ele>1498.4449462891</ele>
        <time>2017-03-25T10:37:31Z</time>
      </trkpt>
      <trkpt lat="45.22232" lon="6.00548">
        <ele>1496.4449462891</ele>
        <time>2017-03-25T10:37:33Z</time>
      </trkpt>
      <trkpt lat="45.22235" lon="6.00537">
        <ele>1494.4449462891</ele>
        <time>2017-03-25T10:37:35Z</time>
      </trkpt>
      <trkpt lat="45.22239" lon="6.00529">
        <ele>1491.4449462891</ele>
        <time>2017-03-25T10:37:37Z</time>
      </trkpt>
      <trkpt lat="45.22232" lon="6.00515">
        <ele>1490.4449462891</ele>
        <time>2017-03-25T10:37:39Z</time>
      </trkpt>
      <trkpt lat="45.22225" lon="6.00504">
        <ele>1489.4449462891</ele>
        <time>2017-03-25T10:37:41Z</time>
      </trkpt>
      <trkpt lat="45.22222" lon="6.00494">
        <ele>1487.4449462891</ele>
        <time>2017-03-25T10:37:43Z</time>
      </trkpt>
      <trkpt lat="45.22228" lon="6.00484">
        <ele>1481.4449462891</ele>
        <time>2017-03-25T10:37:45Z</time>
      </trkpt>
      <trkpt lat="45.22235" lon="6.0047">
        <ele>1479.4449462891</ele>
        <time>2017-03-25T10:37:47Z</time>
      </trkpt>
      <trkpt lat="45.22237" lon="6.00453">
        <ele>1477.4449462891</ele>
        <time>2017-03-25T10:37:49Z</time>
      </trkpt>
      <trkpt lat="45.22241" lon="6.00444">
        <ele>1476.4449462891</ele>
        <time>2017-03-25T10:37:51Z</time>
      </trkpt>
      <trkpt lat="45.22249" lon="6.00437">
        <ele>1474.4449462891</ele>
        <time>2017-03-25T10:37:53Z</time>
      </trkpt>
      <trkpt lat="45.22256" lon="6.00434">
        <ele>1473.4449462891</ele>
        <time>2017-03-25T10:37:55Z</time>
      </trkpt>
      <trkpt lat="45.22262" lon="6.00423">
        <ele>1472.4449462891</ele>
        <time>2017-03-25T10:37:57Z</time>
      </trkpt>
      <trkpt lat="45.2226" lon="6.00415">
        <ele>1468.4449462891</ele>
        <time>2017-03-25T10:37:59Z</time>
      </trkpt>
      <trkpt lat="45.22263" lon="6.00408">
        <ele>1462.4449462891</ele>
        <time>2017-03-25T10:38:04Z</time>
      </trkpt>
      <trkpt lat="45.2227" lon="6.00408">
        <ele>1459.4449462891</ele>
        <time>2017-03-25T10:38:06Z</time>
      </trkpt>
      <trkpt lat="45.22277" lon="6.00401">
        <ele>1458.4449462891</ele>
        <time>2017-03-25T10:38:08Z</time>
      </trkpt>
      <trkpt lat="45.22281" lon="6.00393">
        <ele>1451.4449462891</ele>
        <time>2017-03-25T10:38:10Z</time>
      </trkpt>
      <trkpt lat="45.22288" lon="6.00391">
        <ele>1450.4449462891</ele>
        <time>2017-03-25T10:38:12Z</time>
      </trkpt>
      <trkpt lat="45.22291" lon="6.00383">
        <ele>1450.4449462891</ele>
        <time>2017-03-25T10:38:14Z</time>
      </trkpt>
      <trkpt lat="45.22295" lon="6.00375">
        <ele>1449.4449462891</ele>
        <time>2017-03-25T10:38:16Z</time>
      </trkpt>
      <trkpt lat="45.22294" lon="6.00369">
        <ele>1448.4449462891</ele>
        <time>2017-03-25T10:38:19Z</time>
      </trkpt>
      <trkpt lat="45.22292" lon="6.00362">
        <ele>1447.4449462891</ele>
        <time>2017-03-25T10:38:27Z</time>
      </trkpt>
      <trkpt lat="45.22292" lon="6.00353">
        <ele>1447.4449462891</ele>
        <time>2017-03-25T10:38:31Z</time>
      </trkpt>
      <trkpt lat="45.22297" lon="6.00346">
        <ele>1445.4449462891</ele>
        <time>2017-03-25T10:38:33Z</time>
      </trkpt>
      <trkpt lat="45.22299" lon="6.00332">
        <ele>1443.4449462891</ele>
        <time>2017-03-25T10:38:35Z</time>
      </trkpt>
      <trkpt lat="45.22305" lon="6.0033">
        <ele>1441.4449462891</ele>
        <time>2017-03-25T10:38:37Z</time>
      </trkpt>
      <trkpt lat="45.22311" lon="6.0032">
        <ele>1441.4449462891</ele>
        <time>2017-03-25T10:38:39Z</time>
      </trkpt>
      <trkpt lat="45.22313" lon="6.00303">
        <ele>1441.4449462891</ele>
        <time>2017-03-25T10:38:42Z</time>
      </trkpt>
      <trkpt lat="45.22317" lon="6.00297">
        <ele>1442.4449462891</ele>
        <time>2017-03-25T10:38:43Z</time>
      </trkpt>
      <trkpt lat="45.22315" lon="6.00277">
        <ele>1434.4449462891</ele>
        <time>2017-03-25T10:38:46Z</time>
      </trkpt>
      <trkpt lat="45.22308" lon="6.00264">
        <ele>1428.4449462891</ele>
        <time>2017-03-25T10:38:49Z</time>
      </trkpt>
      <trkpt lat="45.22303" lon="6.00256">
        <ele>1427.4449462891</ele>
        <time>2017-03-25T10:38:51Z</time>
      </trkpt>
      <trkpt lat="45.223" lon="6.00247">
        <ele>1425.4449462891</ele>
        <time>2017-03-25T10:38:53Z</time>
      </trkpt>
      <trkpt lat="45.22301" lon="6.00226">
        <ele>1421.4449462891</ele>
        <time>2017-03-25T10:38:55Z</time>
      </trkpt>
      <trkpt lat="45.22315" lon="6.00211">
        <ele>1417.4449462891</ele>
        <time>2017-03-25T10:38:57Z</time>
      </trkpt>
      <trkpt lat="45.22328" lon="6.00206">
        <ele>1417.4449462891</ele>
        <time>2017-03-25T10:38:59Z</time>
      </trkpt>
      <trkpt lat="45.22334" lon="6.00199">
        <ele>1416.4449462891</ele>
        <time>2017-03-25T10:39:00Z</time>
      </trkpt>
      <trkpt lat="45.22338" lon="6.00179">
        <ele>1417.4449462891</ele>
        <time>2017-03-25T10:39:03Z</time>
      </trkpt>
      <trkpt lat="45.22345" lon="6.00169">
        <ele>1414.4449462891</ele>
        <time>2017-03-25T10:39:05Z</time>
      </trkpt>
      <trkpt lat="45.22354" lon="6.00161">
        <ele>1413.4449462891</ele>
        <time>2017-03-25T10:39:07Z</time>
      </trkpt>
      <trkpt lat="45.22357" lon="6.00155">
        <ele>1410.4449462891</ele>
        <time>2017-03-25T10:39:14Z</time>
      </trkpt>
      <trkpt lat="45.22359" lon="6.00148">
        <ele>1406.4449462891</ele>
        <time>2017-03-25T10:40:38Z</time>
      </trkpt>
      <trkpt lat="45.22362" lon="6.00141">
        <ele>1404.4449462891</ele>
        <time>2017-03-25T10:40:45Z</time>
      </trkpt>
      <trkpt lat="45.22366" lon="6.00137">
        <ele>1401.4449462891</ele>
        <time>2017-03-25T10:40:50Z</time>
      </trkpt>
      <trkpt lat="45.22369" lon="6.00133">
        <ele>1401.4449462891</ele>
        <time>2017-03-25T10:40:54Z</time>
      </trkpt>
      <trkpt lat="45.22373" lon="6.00128">
        <ele>1398.4449462891</ele>
        <time>2017-03-25T10:41:19Z</time>
      </trkpt>
      <trkpt lat="45.2238" lon="6.00123">
        <ele>1398.4449462891</ele>
        <time>2017-03-25T10:41:22Z</time>
      </trkpt>
      <trkpt lat="45.22386" lon="6.00121">
        <ele>1395.4449462891</ele>
        <time>2017-03-25T10:41:25Z</time>
      </trkpt>
      <trkpt lat="45.22391" lon="6.0012">
        <ele>1392.4449462891</ele>
        <time>2017-03-25T10:41:28Z</time>
      </trkpt>
      <trkpt lat="45.22395" lon="6.00116">
        <ele>1391.4449462891</ele>
        <time>2017-03-25T10:41:31Z</time>
      </trkpt>
      <trkpt lat="45.22398" lon="6.0011">
        <ele>1388.4449462891</ele>
        <time>2017-03-25T10:41:35Z</time>
      </trkpt>
      <trkpt lat="45.22402" lon="6.00105">
        <ele>1389.4449462891</ele>
        <time>2017-03-25T10:41:38Z</time>
      </trkpt>
      <trkpt lat="45.22407" lon="6.00101">
        <ele>1389.4449462891</ele>
        <time>2017-03-25T10:41:42Z</time>
      </trkpt>
      <trkpt lat="45.22409" lon="6.00092">
        <ele>1388.4449462891</ele>
        <time>2017-03-25T10:41:46Z</time>
      </trkpt>
      <trkpt lat="45.22412" lon="6.00085">
        <ele>1388.4449462891</ele>
        <time>2017-03-25T10:41:50Z</time>
      </trkpt>
      <trkpt lat="45.22414" lon="6.00079">
        <ele>1385.4449462891</ele>
        <time>2017-03-25T10:41:55Z</time>
      </trkpt>
      <trkpt lat="45.22417" lon="6.00074">
        <ele>1380.4449462891</ele>
        <time>2017-03-25T10:42:01Z</time>
      </trkpt>
      <trkpt lat="45.22417" lon="6.00067">
        <ele>1380.4449462891</ele>
        <time>2017-03-25T10:42:06Z</time>
      </trkpt>
      <trkpt lat="45.2242" lon="6.00062">
        <ele>1379.4449462891</ele>
        <time>2017-03-25T10:42:10Z</time>
      </trkpt>
      <trkpt lat="45.22422" lon="6.00054">
        <ele>1381.4449462891</ele>
        <time>2017-03-25T10:42:15Z</time>
      </trkpt>
      <trkpt lat="45.22425" lon="6.00048">
        <ele>1378.4449462891</ele>
        <time>2017-03-25T10:42:21Z</time>
      </trkpt>
      <trkpt lat="45.22427" lon="6.0004">
        <ele>1378.4449462891</ele>
        <time>2017-03-25T10:42:26Z</time>
      </trkpt>
      <trkpt lat="45.22427" lon="6.00032">
        <ele>1378.4449462891</ele>
        <time>2017-03-25T10:42:31Z</time>
      </trkpt>
      <trkpt lat="45.22429" lon="6.00025">
        <ele>1376.4449462891</ele>
        <time>2017-03-25T10:42:37Z</time>
      </trkpt>
      <trkpt lat="45.2243" lon="6.00018">
        <ele>1377.4449462891</ele>
        <time>2017-03-25T10:42:41Z</time>
      </trkpt>
      <trkpt lat="45.22433" lon="6.00011">
        <ele>1375.4449462891</ele>
        <time>2017-03-25T10:42:46Z</time>
      </trkpt>
      <trkpt lat="45.22433" lon="6.00004">
        <ele>1374.4449462891</ele>
        <time>2017-03-25T10:42:51Z</time>
      </trkpt>
      <trkpt lat="45.22437" lon="5.99998">
        <ele>1372.4449462891</ele>
        <time>2017-03-25T10:42:56Z</time>
      </trkpt>
      <trkpt lat="45.22439" lon="5.9999">
        <ele>1375.4449462891</ele>
        <time>2017-03-25T10:42:59Z</time>
      </trkpt>
      <trkpt lat="45.22442" lon="5.99985">
        <ele>1372.4449462891</ele>
        <time>2017-03-25T10:43:02Z</time>
      </trkpt>
      <trkpt lat="45.22446" lon="5.99979">
        <ele>1370.4449462891</ele>
        <time>2017-03-25T10:43:11Z</time>
      </trkpt>
      <trkpt lat="45.22449" lon="5.99971">
        <ele>1367.4449462891</ele>
        <time>2017-03-25T10:43:15Z</time>
      </trkpt>
      <trkpt lat="45.22452" lon="5.99963">
        <ele>1363.4449462891</ele>
        <time>2017-03-25T10:43:19Z</time>
      </trkpt>
      <trkpt lat="45.22454" lon="5.99958">
        <ele>1361.4449462891</ele>
        <time>2017-03-25T10:43:22Z</time>
      </trkpt>
      <trkpt lat="45.22454" lon="5.99952">
        <ele>1365.4449462891</ele>
        <time>2017-03-25T10:43:24Z</time>
      </trkpt>
      <trkpt lat="45.22452" lon="5.99944">
        <ele>1367.4449462891</ele>
        <time>2017-03-25T10:43:27Z</time>
      </trkpt>
      <trkpt lat="45.22451" lon="5.99937">
        <ele>1368.4449462891</ele>
        <time>2017-03-25T10:43:30Z</time>
      </trkpt>
      <trkpt lat="45.22451" lon="5.9993">
        <ele>1366.4449462891</ele>
        <time>2017-03-25T10:43:36Z</time>
      </trkpt>
      <trkpt lat="45.22449" lon="5.99923">
        <ele>1367.4449462891</ele>
        <time>2017-03-25T10:43:39Z</time>
      </trkpt>
      <trkpt lat="45.22445" lon="5.99918">
        <ele>1365.4449462891</ele>
        <time>2017-03-25T10:43:42Z</time>
      </trkpt>
      <trkpt lat="45.22443" lon="5.9991">
        <ele>1361.4449462891</ele>
        <time>2017-03-25T10:43:46Z</time>
      </trkpt>
      <trkpt lat="45.22443" lon="5.99904">
        <ele>1359.4449462891</ele>
        <time>2017-03-25T10:43:50Z</time>
      </trkpt>
      <trkpt lat="45.22444" lon="5.99896">
        <ele>1356.4449462891</ele>
        <time>2017-03-25T10:44:01Z</time>
      </trkpt>
      <trkpt lat="45.22445" lon="5.99888">
        <ele>1353.4449462891</ele>
        <time>2017-03-25T10:44:06Z</time>
      </trkpt>
      <trkpt lat="45.22445" lon="5.9988">
        <ele>1353.4449462891</ele>
        <time>2017-03-25T10:44:09Z</time>
      </trkpt>
      <trkpt lat="45.22444" lon="5.99871">
        <ele>1354.4449462891</ele>
        <time>2017-03-25T10:44:12Z</time>
      </trkpt>
      <trkpt lat="45.22444" lon="5.99864">
        <ele>1353.4449462891</ele>
        <time>2017-03-25T10:44:17Z</time>
      </trkpt>
      <trkpt lat="45.22445" lon="5.99856">
        <ele>1349.4449462891</ele>
        <time>2017-03-25T10:44:20Z</time>
      </trkpt>
      <trkpt lat="45.22448" lon="5.9985">
        <ele>1347.4449462891</ele>
        <time>2017-03-25T10:44:24Z</time>
      </trkpt>
      <trkpt lat="45.22452" lon="5.99845">
        <ele>1348.4449462891</ele>
        <time>2017-03-25T10:44:29Z</time>
      </trkpt>
      <trkpt lat="45.22457" lon="5.99844">
        <ele>1345.4449462891</ele>
        <time>2017-03-25T10:44:32Z</time>
      </trkpt>
      <trkpt lat="45.22461" lon="5.9984">
        <ele>1345.4449462891</ele>
        <time>2017-03-25T10:44:37Z</time>
      </trkpt>
      <trkpt lat="45.22467" lon="5.99839">
        <ele>1343.4449462891</ele>
        <time>2017-03-25T10:44:41Z</time>
      </trkpt>
      <trkpt lat="45.22473" lon="5.99838">
        <ele>1342.4449462891</ele>
        <time>2017-03-25T10:44:45Z</time>
      </trkpt>
      <trkpt lat="45.22477" lon="5.99833">
        <ele>1342.4449462891</ele>
        <time>2017-03-25T10:44:48Z</time>
      </trkpt>
      <trkpt lat="45.22482" lon="5.9983">
        <ele>1341.4449462891</ele>
        <time>2017-03-25T10:44:51Z</time>
      </trkpt>
      <trkpt lat="45.22486" lon="5.99827">
        <ele>1340.4449462891</ele>
        <time>2017-03-25T10:44:54Z</time>
      </trkpt>
      <trkpt lat="45.2249" lon="5.99824">
        <ele>1337.4449462891</ele>
        <time>2017-03-25T10:44:58Z</time>
      </trkpt>
      <trkpt lat="45.2249" lon="5.99817">
        <ele>1335.4449462891</ele>
        <time>2017-03-25T10:45:06Z</time>
      </trkpt>
    </trkseg>
  </trk>
</gpx>